<?xml version="1.0" encoding="UTF-8" standalone="no" ?>
<gpx xmlns="http://www.topografix.com/GPX/1/1" xmlns:xsi="http://www.w3.org/2001/XMLSchema-instance" xsi:schemaLocation="http://www.topografix.com/GPX/1/1 http://www.topografix.com/GPX/1/1/gpx.xsd" version="1.1" creator="VisuGPX - https://www.visugpx.com">
  <metadata>
    <name>Sortie du 04 avril (Pâques)</name>
    <desc><![CDATA[Sortie du 04 avril (Pâques) 39.5 km]]></desc>
  </metadata>
  <trk>
    <name><![CDATA[AVR-04-10 12:11:15]]></name>
    <trkseg>
      <trkpt lat="47.36092" lon="-0.03535">
        <ele>221.24</ele>
        <time>2010-03-26T16:56:15Z</time>
      </trkpt>
      <trkpt lat="47.36077" lon="-0.03545">
        <ele>220.76</ele>
        <time>2010-03-26T16:56:28Z</time>
      </trkpt>
      <trkpt lat="47.36073" lon="-0.03566">
        <ele>221.24</ele>
        <time>2010-03-26T16:56:37Z</time>
      </trkpt>
      <trkpt lat="47.3607" lon="-0.0357">
        <ele>216.43</ele>
        <time>2010-03-26T16:56:49Z</time>
      </trkpt>
      <trkpt lat="47.3607" lon="-0.03571">
        <ele>222.2</ele>
        <time>2010-03-26T16:56:50Z</time>
      </trkpt>
      <trkpt lat="47.36066" lon="-0.03574">
        <ele>220.28</ele>
        <time>2010-03-26T16:57:02Z</time>
      </trkpt>
      <trkpt lat="47.36068" lon="-0.03556">
        <ele>220.76</ele>
        <time>2010-03-26T16:57:20Z</time>
      </trkpt>
      <trkpt lat="47.36071" lon="-0.0355">
        <ele>221.24</ele>
        <time>2010-03-26T16:57:30Z</time>
      </trkpt>
      <trkpt lat="47.36072" lon="-0.03549">
        <ele>216.43</ele>
        <time>2010-03-26T16:57:39Z</time>
      </trkpt>
      <trkpt lat="47.36072" lon="-0.03549">
        <ele>220.76</ele>
        <time>2010-03-26T16:57:40Z</time>
      </trkpt>
      <trkpt lat="47.36068" lon="-0.0355">
        <ele>216.91</ele>
        <time>2010-03-26T16:58:48Z</time>
      </trkpt>
      <trkpt lat="47.36068" lon="-0.0355">
        <ele>159.72</ele>
        <time>2010-03-26T16:58:56Z</time>
      </trkpt>
      <trkpt lat="47.36068" lon="-0.0355">
        <ele>219.8</ele>
        <time>2010-03-26T16:58:57Z</time>
      </trkpt>
      <trkpt lat="47.36068" lon="-0.0355">
        <ele>218.84</ele>
        <time>2010-03-26T16:59:14Z</time>
      </trkpt>
      <trkpt lat="47.36068" lon="-0.0355">
        <ele>218.36</ele>
        <time>2010-03-26T16:59:37Z</time>
      </trkpt>
      <trkpt lat="47.36068" lon="-0.0355">
        <ele>220.28</ele>
        <time>2010-03-26T16:59:38Z</time>
      </trkpt>
      <trkpt lat="47.36068" lon="-0.0355">
        <ele>222.2</ele>
        <time>2010-03-26T16:59:40Z</time>
      </trkpt>
      <trkpt lat="47.36068" lon="-0.0355">
        <ele>217.88</ele>
        <time>2010-03-26T16:59:41Z</time>
      </trkpt>
      <trkpt lat="47.36068" lon="-0.0355">
        <ele>221.72</ele>
        <time>2010-03-26T16:59:49Z</time>
      </trkpt>
      <trkpt lat="47.36068" lon="-0.0355">
        <ele>221.72</ele>
        <time>2010-03-26T16:59:50Z</time>
      </trkpt>
      <trkpt lat="47.36068" lon="-0.0355">
        <ele>221.24</ele>
        <time>2010-03-26T16:59:56Z</time>
      </trkpt>
      <trkpt lat="47.36068" lon="-0.0355">
        <ele>221.24</ele>
        <time>2010-03-26T17:00:02Z</time>
      </trkpt>
      <trkpt lat="47.36068" lon="-0.0355">
        <ele>219.32</ele>
        <time>2010-03-26T17:00:04Z</time>
      </trkpt>
      <trkpt lat="47.36068" lon="-0.0355">
        <ele>217.88</ele>
        <time>2010-03-26T17:00:05Z</time>
      </trkpt>
      <trkpt lat="47.36068" lon="-0.0355">
        <ele>222.68</ele>
        <time>2010-03-26T17:00:06Z</time>
      </trkpt>
      <trkpt lat="47.36068" lon="-0.0355">
        <ele>219.8</ele>
        <time>2010-03-26T17:00:08Z</time>
      </trkpt>
      <trkpt lat="47.36068" lon="-0.0355">
        <ele>220.76</ele>
        <time>2010-03-26T17:00:18Z</time>
      </trkpt>
      <trkpt lat="47.36068" lon="-0.0355">
        <ele>217.88</ele>
        <time>2010-03-26T17:00:20Z</time>
      </trkpt>
      <trkpt lat="47.36068" lon="-0.0355">
        <ele>221.72</ele>
        <time>2010-03-26T17:00:23Z</time>
      </trkpt>
      <trkpt lat="47.36068" lon="-0.0355">
        <ele>220.28</ele>
        <time>2010-03-26T17:00:25Z</time>
      </trkpt>
      <trkpt lat="47.36068" lon="-0.0355">
        <ele>219.8</ele>
        <time>2010-03-26T17:00:35Z</time>
      </trkpt>
      <trkpt lat="47.36068" lon="-0.0355">
        <ele>217.88</ele>
        <time>2010-03-26T17:00:38Z</time>
      </trkpt>
      <trkpt lat="47.36068" lon="-0.0355">
        <ele>214.99</ele>
        <time>2010-03-26T17:00:40Z</time>
      </trkpt>
      <trkpt lat="47.36068" lon="-0.0355">
        <ele>220.28</ele>
        <time>2010-03-26T17:01:00Z</time>
      </trkpt>
      <trkpt lat="47.36068" lon="-0.0355">
        <ele>220.28</ele>
        <time>2010-03-26T17:01:10Z</time>
      </trkpt>
      <trkpt lat="47.36068" lon="-0.0355">
        <ele>218.36</ele>
        <time>2010-03-26T17:01:28Z</time>
      </trkpt>
      <trkpt lat="47.36068" lon="-0.0355">
        <ele>219.8</ele>
        <time>2010-03-26T17:01:29Z</time>
      </trkpt>
      <trkpt lat="47.36068" lon="-0.0355">
        <ele>216.91</ele>
        <time>2010-03-26T17:01:34Z</time>
      </trkpt>
      <trkpt lat="47.36068" lon="-0.0355">
        <ele>219.8</ele>
        <time>2010-03-26T17:01:36Z</time>
      </trkpt>
      <trkpt lat="47.36068" lon="-0.0355">
        <ele>224.61</ele>
        <time>2010-03-26T17:01:39Z</time>
      </trkpt>
      <trkpt lat="47.36068" lon="-0.0355">
        <ele>224.61</ele>
        <time>2010-03-26T17:01:40Z</time>
      </trkpt>
      <trkpt lat="47.36068" lon="-0.0355">
        <ele>221.24</ele>
        <time>2010-03-26T17:01:42Z</time>
      </trkpt>
      <trkpt lat="47.36082" lon="-0.03423">
        <ele>219.32</ele>
        <time>2010-03-26T17:01:50Z</time>
      </trkpt>
      <trkpt lat="47.36096" lon="-0.03472">
        <ele>219.8</ele>
        <time>2010-03-26T17:02:29Z</time>
      </trkpt>
      <trkpt lat="47.36094" lon="-0.03467">
        <ele>219.8</ele>
        <time>2010-03-26T17:02:48Z</time>
      </trkpt>
      <trkpt lat="47.36095" lon="-0.03469">
        <ele>219.8</ele>
        <time>2010-03-26T17:03:11Z</time>
      </trkpt>
      <trkpt lat="47.36095" lon="-0.03458">
        <ele>220.28</ele>
        <time>2010-03-26T17:03:19Z</time>
      </trkpt>
      <trkpt lat="47.3609" lon="-0.0344">
        <ele>218.36</ele>
        <time>2010-03-26T17:03:28Z</time>
      </trkpt>
      <trkpt lat="47.36088" lon="-0.03424">
        <ele>219.32</ele>
        <time>2010-03-26T17:03:37Z</time>
      </trkpt>
      <trkpt lat="47.36086" lon="-0.03421">
        <ele>220.76</ele>
        <time>2010-03-26T17:03:41Z</time>
      </trkpt>
      <trkpt lat="47.36086" lon="-0.03421">
        <ele>219.32</ele>
        <time>2010-03-26T17:03:42Z</time>
      </trkpt>
      <trkpt lat="47.36087" lon="-0.03436">
        <ele>218.36</ele>
        <time>2010-03-26T17:03:46Z</time>
      </trkpt>
      <trkpt lat="47.36087" lon="-0.03436">
        <ele>141.93</ele>
        <time>2010-03-26T17:37:22Z</time>
      </trkpt>
      <trkpt lat="47.36087" lon="-0.03436">
        <ele>218.36</ele>
        <time>2010-03-26T17:37:23Z</time>
      </trkpt>
      <trkpt lat="47.36087" lon="-0.03436">
        <ele>219.8</ele>
        <time>2010-03-26T17:37:26Z</time>
      </trkpt>
      <trkpt lat="47.36087" lon="-0.03436">
        <ele>141.93</ele>
        <time>2010-04-03T14:02:40Z</time>
      </trkpt>
      <trkpt lat="47.36087" lon="-0.03436">
        <ele>154.91</ele>
        <time>2010-04-03T14:02:41Z</time>
      </trkpt>
      <trkpt lat="47.36087" lon="-0.03436">
        <ele>153.95</ele>
        <time>2010-04-03T14:02:44Z</time>
      </trkpt>
      <trkpt lat="47.36087" lon="-0.03436">
        <ele>141.93</ele>
        <time>2010-04-03T14:04:27Z</time>
      </trkpt>
      <trkpt lat="47.36087" lon="-0.03436">
        <ele>153.95</ele>
        <time>2010-04-03T14:04:28Z</time>
      </trkpt>
      <trkpt lat="47.36087" lon="-0.03436">
        <ele>154.91</ele>
        <time>2010-04-03T14:04:29Z</time>
      </trkpt>
      <trkpt lat="47.36087" lon="-0.03436">
        <ele>156.83</ele>
        <time>2010-04-03T14:04:40Z</time>
      </trkpt>
      <trkpt lat="47.36087" lon="-0.03436">
        <ele>155.39</ele>
        <time>2010-04-03T14:04:41Z</time>
      </trkpt>
      <trkpt lat="47.36087" lon="-0.03436">
        <ele>152.99</ele>
        <time>2010-04-03T14:05:31Z</time>
      </trkpt>
      <trkpt lat="47.36087" lon="-0.03436">
        <ele>153.95</ele>
        <time>2010-04-03T14:05:32Z</time>
      </trkpt>
      <trkpt lat="47.36122" lon="-0.03474">
        <ele>154.43</ele>
        <time>2010-04-03T14:05:35Z</time>
      </trkpt>
      <trkpt lat="47.3612" lon="-0.03488">
        <ele>154.91</ele>
        <time>2010-04-03T14:05:46Z</time>
      </trkpt>
      <trkpt lat="47.36119" lon="-0.03492">
        <ele>154.91</ele>
        <time>2010-04-03T14:05:51Z</time>
      </trkpt>
      <trkpt lat="47.36119" lon="-0.03492">
        <ele>68.87</ele>
        <time>2010-04-03T14:06:50Z</time>
      </trkpt>
      <trkpt lat="47.36119" lon="-0.03492">
        <ele>154.91</ele>
        <time>2010-04-03T14:06:51Z</time>
      </trkpt>
      <trkpt lat="47.36119" lon="-0.03492">
        <ele>152.99</ele>
        <time>2010-04-03T14:06:58Z</time>
      </trkpt>
      <trkpt lat="47.36119" lon="-0.03492">
        <ele>155.87</ele>
        <time>2010-04-03T14:07:13Z</time>
      </trkpt>
      <trkpt lat="47.36131" lon="-0.03464">
        <ele>155.39</ele>
        <time>2010-04-03T14:07:25Z</time>
      </trkpt>
      <trkpt lat="47.36137" lon="-0.03438">
        <ele>155.39</ele>
        <time>2010-04-03T14:07:35Z</time>
      </trkpt>
      <trkpt lat="47.36138" lon="-0.03431">
        <ele>155.87</ele>
        <time>2010-04-03T14:07:41Z</time>
      </trkpt>
      <trkpt lat="47.36125" lon="-0.0341">
        <ele>156.35</ele>
        <time>2010-04-03T14:08:59Z</time>
      </trkpt>
      <trkpt lat="47.36116" lon="-0.03382">
        <ele>156.35</ele>
        <time>2010-04-03T14:09:08Z</time>
      </trkpt>
      <trkpt lat="47.36088" lon="-0.03284">
        <ele>156.35</ele>
        <time>2010-04-03T14:09:37Z</time>
      </trkpt>
      <trkpt lat="47.36088" lon="-0.03284">
        <ele>153.47</ele>
        <time>2010-04-03T14:09:39Z</time>
      </trkpt>
      <trkpt lat="47.36088" lon="-0.03284">
        <ele>156.35</ele>
        <time>2010-04-03T14:09:40Z</time>
      </trkpt>
      <trkpt lat="47.36113" lon="-0.03524">
        <ele>157.31</ele>
        <time>2010-04-03T14:10:43Z</time>
      </trkpt>
      <trkpt lat="47.3611" lon="-0.03514">
        <ele>157.31</ele>
        <time>2010-04-03T14:11:56Z</time>
      </trkpt>
      <trkpt lat="47.36111" lon="-0.03514">
        <ele>153.47</ele>
        <time>2010-04-03T14:12:00Z</time>
      </trkpt>
      <trkpt lat="47.36111" lon="-0.03514">
        <ele>-18.13</ele>
        <time>2010-04-04T06:42:42Z</time>
      </trkpt>
      <trkpt lat="47.36111" lon="-0.03514">
        <ele>60.22</ele>
        <time>2010-04-04T06:42:43Z</time>
      </trkpt>
      <trkpt lat="47.36111" lon="-0.03514">
        <ele>60.22</ele>
        <time>2010-04-04T06:42:44Z</time>
      </trkpt>
      <trkpt lat="47.36111" lon="-0.03514">
        <ele>59.74</ele>
        <time>2010-04-04T06:42:50Z</time>
      </trkpt>
      <trkpt lat="47.36111" lon="-0.03514">
        <ele>59.26</ele>
        <time>2010-04-04T06:42:54Z</time>
      </trkpt>
      <trkpt lat="47.36111" lon="-0.03514">
        <ele>60.22</ele>
        <time>2010-04-04T06:42:55Z</time>
      </trkpt>
      <trkpt lat="47.36111" lon="-0.03514">
        <ele>59.26</ele>
        <time>2010-04-04T06:43:10Z</time>
      </trkpt>
      <trkpt lat="47.36111" lon="-0.03514">
        <ele>58.78</ele>
        <time>2010-04-04T06:43:16Z</time>
      </trkpt>
      <trkpt lat="47.36111" lon="-0.03514">
        <ele>61.66</ele>
        <time>2010-04-04T06:43:17Z</time>
      </trkpt>
      <trkpt lat="47.36111" lon="-0.03514">
        <ele>61.66</ele>
        <time>2010-04-04T06:43:18Z</time>
      </trkpt>
      <trkpt lat="47.36111" lon="-0.03514">
        <ele>59.26</ele>
        <time>2010-04-04T06:43:51Z</time>
      </trkpt>
      <trkpt lat="47.36111" lon="-0.03514">
        <ele>58.3</ele>
        <time>2010-04-04T06:44:22Z</time>
      </trkpt>
      <trkpt lat="47.36111" lon="-0.03514">
        <ele>59.26</ele>
        <time>2010-04-04T06:44:31Z</time>
      </trkpt>
      <trkpt lat="47.36111" lon="-0.03514">
        <ele>59.74</ele>
        <time>2010-04-04T06:44:47Z</time>
      </trkpt>
      <trkpt lat="47.36111" lon="-0.03514">
        <ele>58.78</ele>
        <time>2010-04-04T06:44:57Z</time>
      </trkpt>
      <trkpt lat="47.36111" lon="-0.03514">
        <ele>-18.13</ele>
        <time>2010-04-04T06:45:20Z</time>
      </trkpt>
      <trkpt lat="47.36111" lon="-0.03514">
        <ele>59.26</ele>
        <time>2010-04-04T06:45:21Z</time>
      </trkpt>
      <trkpt lat="47.36111" lon="-0.03514">
        <ele>59.26</ele>
        <time>2010-04-04T06:45:26Z</time>
      </trkpt>
      <trkpt lat="47.36111" lon="-0.03514">
        <ele>57.34</ele>
        <time>2010-04-04T06:45:58Z</time>
      </trkpt>
      <trkpt lat="47.36111" lon="-0.03514">
        <ele>58.3</ele>
        <time>2010-04-04T06:45:59Z</time>
      </trkpt>
      <trkpt lat="47.36111" lon="-0.03514">
        <ele>-18.13</ele>
        <time>2010-04-04T06:55:30Z</time>
      </trkpt>
      <trkpt lat="47.36111" lon="-0.03514">
        <ele>57.34</ele>
        <time>2010-04-04T06:55:32Z</time>
      </trkpt>
      <trkpt lat="47.36111" lon="-0.03514">
        <ele>53.49</ele>
        <time>2010-04-04T06:56:05Z</time>
      </trkpt>
      <trkpt lat="47.36111" lon="-0.03514">
        <ele>53.49</ele>
        <time>2010-04-04T06:56:06Z</time>
      </trkpt>
      <trkpt lat="47.36111" lon="-0.03514">
        <ele>-18.13</ele>
        <time>2010-04-04T07:08:57Z</time>
      </trkpt>
      <trkpt lat="47.36111" lon="-0.03514">
        <ele>44.84</ele>
        <time>2010-04-04T07:08:58Z</time>
      </trkpt>
      <trkpt lat="47.36111" lon="-0.03514">
        <ele>44.84</ele>
        <time>2010-04-04T07:08:59Z</time>
      </trkpt>
      <trkpt lat="47.36111" lon="-0.03514">
        <ele>43.88</ele>
        <time>2010-04-04T07:09:11Z</time>
      </trkpt>
      <trkpt lat="47.36111" lon="-0.03514">
        <ele>47.24</ele>
        <time>2010-04-04T07:09:46Z</time>
      </trkpt>
      <trkpt lat="47.36111" lon="-0.03514">
        <ele>46.28</ele>
        <time>2010-04-04T07:09:49Z</time>
      </trkpt>
      <trkpt lat="47.36111" lon="-0.03514">
        <ele>46.28</ele>
        <time>2010-04-04T07:09:57Z</time>
      </trkpt>
      <trkpt lat="47.36111" lon="-0.03514">
        <ele>48.68</ele>
        <time>2010-04-04T07:10:06Z</time>
      </trkpt>
      <trkpt lat="47.36111" lon="-0.03514">
        <ele>51.57</ele>
        <time>2010-04-04T07:10:30Z</time>
      </trkpt>
      <trkpt lat="47.36111" lon="-0.03514">
        <ele>51.57</ele>
        <time>2010-04-04T07:10:34Z</time>
      </trkpt>
      <trkpt lat="47.36124" lon="-0.03693">
        <ele>52.05</ele>
        <time>2010-04-04T07:10:35Z</time>
      </trkpt>
      <trkpt lat="47.36121" lon="-0.03658">
        <ele>52.53</ele>
        <time>2010-04-04T07:10:43Z</time>
      </trkpt>
      <trkpt lat="47.3612" lon="-0.03624">
        <ele>52.53</ele>
        <time>2010-04-04T07:10:50Z</time>
      </trkpt>
      <trkpt lat="47.3612" lon="-0.03587">
        <ele>53.01</ele>
        <time>2010-04-04T07:10:57Z</time>
      </trkpt>
      <trkpt lat="47.36134" lon="-0.03498">
        <ele>53.01</ele>
        <time>2010-04-04T07:11:05Z</time>
      </trkpt>
      <trkpt lat="47.36137" lon="-0.0346">
        <ele>55.89</ele>
        <time>2010-04-04T07:11:11Z</time>
      </trkpt>
      <trkpt lat="47.36128" lon="-0.03443">
        <ele>57.34</ele>
        <time>2010-04-04T07:11:15Z</time>
      </trkpt>
      <trkpt lat="47.36112" lon="-0.03437">
        <ele>61.18</ele>
        <time>2010-04-04T07:11:20Z</time>
      </trkpt>
      <trkpt lat="47.36105" lon="-0.03437">
        <ele>62.62</ele>
        <time>2010-04-04T07:11:22Z</time>
      </trkpt>
      <trkpt lat="47.36094" lon="-0.03436">
        <ele>64.07</ele>
        <time>2010-04-04T07:11:25Z</time>
      </trkpt>
      <trkpt lat="47.36068" lon="-0.03431">
        <ele>67.43</ele>
        <time>2010-04-04T07:11:33Z</time>
      </trkpt>
      <trkpt lat="47.36064" lon="-0.03426">
        <ele>67.91</ele>
        <time>2010-04-04T07:11:35Z</time>
      </trkpt>
      <trkpt lat="47.36061" lon="-0.0341">
        <ele>70.31</ele>
        <time>2010-04-04T07:11:40Z</time>
      </trkpt>
      <trkpt lat="47.36062" lon="-0.03392">
        <ele>71.76</ele>
        <time>2010-04-04T07:11:45Z</time>
      </trkpt>
      <trkpt lat="47.36063" lon="-0.03377">
        <ele>73.2</ele>
        <time>2010-04-04T07:11:48Z</time>
      </trkpt>
      <trkpt lat="47.36069" lon="-0.03354">
        <ele>74.64</ele>
        <time>2010-04-04T07:11:53Z</time>
      </trkpt>
      <trkpt lat="47.36076" lon="-0.0332">
        <ele>75.12</ele>
        <time>2010-04-04T07:11:59Z</time>
      </trkpt>
      <trkpt lat="47.36081" lon="-0.03292">
        <ele>75.6</ele>
        <time>2010-04-04T07:12:04Z</time>
      </trkpt>
      <trkpt lat="47.36087" lon="-0.03255">
        <ele>77.52</ele>
        <time>2010-04-04T07:12:10Z</time>
      </trkpt>
      <trkpt lat="47.36096" lon="-0.03213">
        <ele>76.08</ele>
        <time>2010-04-04T07:12:17Z</time>
      </trkpt>
      <trkpt lat="47.36098" lon="-0.03174">
        <ele>77.52</ele>
        <time>2010-04-04T07:12:24Z</time>
      </trkpt>
      <trkpt lat="47.36092" lon="-0.03152">
        <ele>78</ele>
        <time>2010-04-04T07:12:29Z</time>
      </trkpt>
      <trkpt lat="47.36078" lon="-0.03114">
        <ele>79.45</ele>
        <time>2010-04-04T07:12:37Z</time>
      </trkpt>
      <trkpt lat="47.36071" lon="-0.03087">
        <ele>79.93</ele>
        <time>2010-04-04T07:12:43Z</time>
      </trkpt>
      <trkpt lat="47.36064" lon="-0.03062">
        <ele>81.85</ele>
        <time>2010-04-04T07:12:49Z</time>
      </trkpt>
      <trkpt lat="47.36062" lon="-0.03056">
        <ele>80.89</ele>
        <time>2010-04-04T07:12:51Z</time>
      </trkpt>
      <trkpt lat="47.36053" lon="-0.03041">
        <ele>82.81</ele>
        <time>2010-04-04T07:12:56Z</time>
      </trkpt>
      <trkpt lat="47.36044" lon="-0.03018">
        <ele>83.77</ele>
        <time>2010-04-04T07:13:02Z</time>
      </trkpt>
      <trkpt lat="47.36033" lon="-0.02994">
        <ele>86.66</ele>
        <time>2010-04-04T07:13:08Z</time>
      </trkpt>
      <trkpt lat="47.36023" lon="-0.0297">
        <ele>87.14</ele>
        <time>2010-04-04T07:13:13Z</time>
      </trkpt>
      <trkpt lat="47.36011" lon="-0.0295">
        <ele>87.14</ele>
        <time>2010-04-04T07:13:18Z</time>
      </trkpt>
      <trkpt lat="47.35999" lon="-0.0293">
        <ele>88.1</ele>
        <time>2010-04-04T07:13:24Z</time>
      </trkpt>
      <trkpt lat="47.3598" lon="-0.02906">
        <ele>89.54</ele>
        <time>2010-04-04T07:13:31Z</time>
      </trkpt>
      <trkpt lat="47.35957" lon="-0.02891">
        <ele>90.98</ele>
        <time>2010-04-04T07:13:38Z</time>
      </trkpt>
      <trkpt lat="47.35941" lon="-0.02877">
        <ele>90.98</ele>
        <time>2010-04-04T07:13:44Z</time>
      </trkpt>
      <trkpt lat="47.35918" lon="-0.02861">
        <ele>92.9</ele>
        <time>2010-04-04T07:13:52Z</time>
      </trkpt>
      <trkpt lat="47.35895" lon="-0.02844">
        <ele>93.87</ele>
        <time>2010-04-04T07:14:00Z</time>
      </trkpt>
      <trkpt lat="47.35875" lon="-0.02834">
        <ele>94.83</ele>
        <time>2010-04-04T07:14:06Z</time>
      </trkpt>
      <trkpt lat="47.3585" lon="-0.02828">
        <ele>95.79</ele>
        <time>2010-04-04T07:14:13Z</time>
      </trkpt>
      <trkpt lat="47.35819" lon="-0.02818">
        <ele>94.83</ele>
        <time>2010-04-04T07:14:21Z</time>
      </trkpt>
      <trkpt lat="47.35797" lon="-0.02803">
        <ele>94.83</ele>
        <time>2010-04-04T07:14:28Z</time>
      </trkpt>
      <trkpt lat="47.3578" lon="-0.02787">
        <ele>95.31</ele>
        <time>2010-04-04T07:14:34Z</time>
      </trkpt>
      <trkpt lat="47.35758" lon="-0.02767">
        <ele>93.87</ele>
        <time>2010-04-04T07:14:41Z</time>
      </trkpt>
      <trkpt lat="47.35737" lon="-0.02742">
        <ele>95.79</ele>
        <time>2010-04-04T07:14:48Z</time>
      </trkpt>
      <trkpt lat="47.35733" lon="-0.02732">
        <ele>95.79</ele>
        <time>2010-04-04T07:14:50Z</time>
      </trkpt>
      <trkpt lat="47.35731" lon="-0.02727">
        <ele>96.27</ele>
        <time>2010-04-04T07:14:51Z</time>
      </trkpt>
      <trkpt lat="47.3573" lon="-0.02721">
        <ele>96.27</ele>
        <time>2010-04-04T07:14:52Z</time>
      </trkpt>
      <trkpt lat="47.35725" lon="-0.027">
        <ele>95.79</ele>
        <time>2010-04-04T07:14:56Z</time>
      </trkpt>
      <trkpt lat="47.35718" lon="-0.02662">
        <ele>95.31</ele>
        <time>2010-04-04T07:15:03Z</time>
      </trkpt>
      <trkpt lat="47.35716" lon="-0.02646">
        <ele>97.23</ele>
        <time>2010-04-04T07:15:06Z</time>
      </trkpt>
      <trkpt lat="47.35711" lon="-0.02614">
        <ele>98.67</ele>
        <time>2010-04-04T07:15:12Z</time>
      </trkpt>
      <trkpt lat="47.3571" lon="-0.02576">
        <ele>99.63</ele>
        <time>2010-04-04T07:15:19Z</time>
      </trkpt>
      <trkpt lat="47.35708" lon="-0.02539">
        <ele>101.08</ele>
        <time>2010-04-04T07:15:26Z</time>
      </trkpt>
      <trkpt lat="47.35708" lon="-0.02534">
        <ele>101.08</ele>
        <time>2010-04-04T07:15:27Z</time>
      </trkpt>
      <trkpt lat="47.35705" lon="-0.02502">
        <ele>101.56</ele>
        <time>2010-04-04T07:15:33Z</time>
      </trkpt>
      <trkpt lat="47.35701" lon="-0.0245">
        <ele>101.56</ele>
        <time>2010-04-04T07:15:42Z</time>
      </trkpt>
      <trkpt lat="47.35698" lon="-0.02411">
        <ele>102.52</ele>
        <time>2010-04-04T07:15:49Z</time>
      </trkpt>
      <trkpt lat="47.35698" lon="-0.02405">
        <ele>103</ele>
        <time>2010-04-04T07:15:50Z</time>
      </trkpt>
      <trkpt lat="47.35695" lon="-0.02359">
        <ele>103.48</ele>
        <time>2010-04-04T07:15:58Z</time>
      </trkpt>
      <trkpt lat="47.35695" lon="-0.02312">
        <ele>103.96</ele>
        <time>2010-04-04T07:16:06Z</time>
      </trkpt>
      <trkpt lat="47.35695" lon="-0.023">
        <ele>104.44</ele>
        <time>2010-04-04T07:16:08Z</time>
      </trkpt>
      <trkpt lat="47.35696" lon="-0.02288">
        <ele>104.44</ele>
        <time>2010-04-04T07:16:10Z</time>
      </trkpt>
      <trkpt lat="47.35696" lon="-0.02282">
        <ele>104.92</ele>
        <time>2010-04-04T07:16:11Z</time>
      </trkpt>
      <trkpt lat="47.35697" lon="-0.02262">
        <ele>104.92</ele>
        <time>2010-04-04T07:16:14Z</time>
      </trkpt>
      <trkpt lat="47.35695" lon="-0.02237">
        <ele>105.4</ele>
        <time>2010-04-04T07:16:18Z</time>
      </trkpt>
      <trkpt lat="47.3569" lon="-0.02213">
        <ele>105.4</ele>
        <time>2010-04-04T07:16:22Z</time>
      </trkpt>
      <trkpt lat="47.35686" lon="-0.02195">
        <ele>105.88</ele>
        <time>2010-04-04T07:16:25Z</time>
      </trkpt>
      <trkpt lat="47.35678" lon="-0.02161">
        <ele>107.32</ele>
        <time>2010-04-04T07:16:31Z</time>
      </trkpt>
      <trkpt lat="47.35673" lon="-0.02141">
        <ele>108.29</ele>
        <time>2010-04-04T07:16:35Z</time>
      </trkpt>
      <trkpt lat="47.35672" lon="-0.02135">
        <ele>106.84</ele>
        <time>2010-04-04T07:16:36Z</time>
      </trkpt>
      <trkpt lat="47.3567" lon="-0.0213">
        <ele>106.36</ele>
        <time>2010-04-04T07:16:37Z</time>
      </trkpt>
      <trkpt lat="47.35669" lon="-0.02126">
        <ele>106.84</ele>
        <time>2010-04-04T07:16:38Z</time>
      </trkpt>
      <trkpt lat="47.35668" lon="-0.02121">
        <ele>107.32</ele>
        <time>2010-04-04T07:16:39Z</time>
      </trkpt>
      <trkpt lat="47.35667" lon="-0.02116">
        <ele>107.32</ele>
        <time>2010-04-04T07:16:40Z</time>
      </trkpt>
      <trkpt lat="47.35666" lon="-0.02111">
        <ele>107.81</ele>
        <time>2010-04-04T07:16:41Z</time>
      </trkpt>
      <trkpt lat="47.35661" lon="-0.02082">
        <ele>109.25</ele>
        <time>2010-04-04T07:16:46Z</time>
      </trkpt>
      <trkpt lat="47.35655" lon="-0.02055">
        <ele>107.81</ele>
        <time>2010-04-04T07:16:51Z</time>
      </trkpt>
      <trkpt lat="47.35645" lon="-0.02018">
        <ele>108.77</ele>
        <time>2010-04-04T07:16:58Z</time>
      </trkpt>
      <trkpt lat="47.35645" lon="-0.01988">
        <ele>107.81</ele>
        <time>2010-04-04T07:17:04Z</time>
      </trkpt>
      <trkpt lat="47.35639" lon="-0.01968">
        <ele>107.32</ele>
        <time>2010-04-04T07:17:09Z</time>
      </trkpt>
      <trkpt lat="47.35638" lon="-0.01963">
        <ele>107.81</ele>
        <time>2010-04-04T07:17:10Z</time>
      </trkpt>
      <trkpt lat="47.35636" lon="-0.01957">
        <ele>108.29</ele>
        <time>2010-04-04T07:17:11Z</time>
      </trkpt>
      <trkpt lat="47.35628" lon="-0.01934">
        <ele>107.32</ele>
        <time>2010-04-04T07:17:15Z</time>
      </trkpt>
      <trkpt lat="47.35617" lon="-0.01892">
        <ele>109.25</ele>
        <time>2010-04-04T07:17:23Z</time>
      </trkpt>
      <trkpt lat="47.3561" lon="-0.01867">
        <ele>107.81</ele>
        <time>2010-04-04T07:17:28Z</time>
      </trkpt>
      <trkpt lat="47.35602" lon="-0.01836">
        <ele>108.77</ele>
        <time>2010-04-04T07:17:34Z</time>
      </trkpt>
      <trkpt lat="47.35593" lon="-0.01804">
        <ele>108.29</ele>
        <time>2010-04-04T07:17:41Z</time>
      </trkpt>
      <trkpt lat="47.35586" lon="-0.0177">
        <ele>107.81</ele>
        <time>2010-04-04T07:17:49Z</time>
      </trkpt>
      <trkpt lat="47.3558" lon="-0.01749">
        <ele>107.81</ele>
        <time>2010-04-04T07:17:55Z</time>
      </trkpt>
      <trkpt lat="47.35573" lon="-0.01726">
        <ele>109.25</ele>
        <time>2010-04-04T07:18:01Z</time>
      </trkpt>
      <trkpt lat="47.35572" lon="-0.01722">
        <ele>108.77</ele>
        <time>2010-04-04T07:18:02Z</time>
      </trkpt>
      <trkpt lat="47.35572" lon="-0.01718">
        <ele>108.77</ele>
        <time>2010-04-04T07:18:03Z</time>
      </trkpt>
      <trkpt lat="47.35564" lon="-0.01687">
        <ele>107.81</ele>
        <time>2010-04-04T07:18:10Z</time>
      </trkpt>
      <trkpt lat="47.35555" lon="-0.01648">
        <ele>108.77</ele>
        <time>2010-04-04T07:18:18Z</time>
      </trkpt>
      <trkpt lat="47.35547" lon="-0.01623">
        <ele>109.25</ele>
        <time>2010-04-04T07:18:23Z</time>
      </trkpt>
      <trkpt lat="47.35541" lon="-0.01603">
        <ele>110.21</ele>
        <time>2010-04-04T07:18:27Z</time>
      </trkpt>
      <trkpt lat="47.35537" lon="-0.01576">
        <ele>109.73</ele>
        <time>2010-04-04T07:18:32Z</time>
      </trkpt>
      <trkpt lat="47.35525" lon="-0.01547">
        <ele>108.77</ele>
        <time>2010-04-04T07:18:38Z</time>
      </trkpt>
      <trkpt lat="47.35522" lon="-0.01545">
        <ele>107.32</ele>
        <time>2010-04-04T07:18:39Z</time>
      </trkpt>
      <trkpt lat="47.35518" lon="-0.01544">
        <ele>108.77</ele>
        <time>2010-04-04T07:18:40Z</time>
      </trkpt>
      <trkpt lat="47.35515" lon="-0.01544">
        <ele>108.77</ele>
        <time>2010-04-04T07:18:41Z</time>
      </trkpt>
      <trkpt lat="47.35512" lon="-0.01545">
        <ele>109.25</ele>
        <time>2010-04-04T07:18:42Z</time>
      </trkpt>
      <trkpt lat="47.35508" lon="-0.01545">
        <ele>108.77</ele>
        <time>2010-04-04T07:18:43Z</time>
      </trkpt>
      <trkpt lat="47.35505" lon="-0.01545">
        <ele>108.29</ele>
        <time>2010-04-04T07:18:44Z</time>
      </trkpt>
      <trkpt lat="47.35502" lon="-0.01545">
        <ele>108.77</ele>
        <time>2010-04-04T07:18:45Z</time>
      </trkpt>
      <trkpt lat="47.355" lon="-0.01544">
        <ele>107.32</ele>
        <time>2010-04-04T07:18:46Z</time>
      </trkpt>
      <trkpt lat="47.35497" lon="-0.01543">
        <ele>107.81</ele>
        <time>2010-04-04T07:18:47Z</time>
      </trkpt>
      <trkpt lat="47.35494" lon="-0.01542">
        <ele>108.29</ele>
        <time>2010-04-04T07:18:48Z</time>
      </trkpt>
      <trkpt lat="47.35491" lon="-0.01542">
        <ele>107.32</ele>
        <time>2010-04-04T07:18:49Z</time>
      </trkpt>
      <trkpt lat="47.35488" lon="-0.01542">
        <ele>107.81</ele>
        <time>2010-04-04T07:18:50Z</time>
      </trkpt>
      <trkpt lat="47.35485" lon="-0.01541">
        <ele>107.81</ele>
        <time>2010-04-04T07:18:51Z</time>
      </trkpt>
      <trkpt lat="47.35481" lon="-0.0154">
        <ele>107.32</ele>
        <time>2010-04-04T07:18:52Z</time>
      </trkpt>
      <trkpt lat="47.35456" lon="-0.01531">
        <ele>107.32</ele>
        <time>2010-04-04T07:18:59Z</time>
      </trkpt>
      <trkpt lat="47.35434" lon="-0.01526">
        <ele>108.77</ele>
        <time>2010-04-04T07:19:06Z</time>
      </trkpt>
      <trkpt lat="47.35431" lon="-0.01526">
        <ele>107.81</ele>
        <time>2010-04-04T07:19:07Z</time>
      </trkpt>
      <trkpt lat="47.35428" lon="-0.01526">
        <ele>108.29</ele>
        <time>2010-04-04T07:19:08Z</time>
      </trkpt>
      <trkpt lat="47.35426" lon="-0.01527">
        <ele>108.29</ele>
        <time>2010-04-04T07:19:09Z</time>
      </trkpt>
      <trkpt lat="47.35423" lon="-0.01527">
        <ele>107.81</ele>
        <time>2010-04-04T07:19:10Z</time>
      </trkpt>
      <trkpt lat="47.3542" lon="-0.01527">
        <ele>107.32</ele>
        <time>2010-04-04T07:19:11Z</time>
      </trkpt>
      <trkpt lat="47.35413" lon="-0.01525">
        <ele>108.77</ele>
        <time>2010-04-04T07:19:14Z</time>
      </trkpt>
      <trkpt lat="47.35412" lon="-0.01524">
        <ele>106.84</ele>
        <time>2010-04-04T07:19:15Z</time>
      </trkpt>
      <trkpt lat="47.3541" lon="-0.01523">
        <ele>109.25</ele>
        <time>2010-04-04T07:19:16Z</time>
      </trkpt>
      <trkpt lat="47.35409" lon="-0.01521">
        <ele>107.81</ele>
        <time>2010-04-04T07:19:17Z</time>
      </trkpt>
      <trkpt lat="47.35407" lon="-0.01518">
        <ele>107.81</ele>
        <time>2010-04-04T07:19:18Z</time>
      </trkpt>
      <trkpt lat="47.35393" lon="-0.0151">
        <ele>108.29</ele>
        <time>2010-04-04T07:19:24Z</time>
      </trkpt>
      <trkpt lat="47.35382" lon="-0.01508">
        <ele>107.81</ele>
        <time>2010-04-04T07:19:29Z</time>
      </trkpt>
      <trkpt lat="47.35381" lon="-0.01508">
        <ele>106.84</ele>
        <time>2010-04-04T07:19:30Z</time>
      </trkpt>
      <trkpt lat="47.35379" lon="-0.01508">
        <ele>106.84</ele>
        <time>2010-04-04T07:19:31Z</time>
      </trkpt>
      <trkpt lat="47.35378" lon="-0.01507">
        <ele>107.81</ele>
        <time>2010-04-04T07:19:32Z</time>
      </trkpt>
      <trkpt lat="47.35376" lon="-0.01505">
        <ele>106.84</ele>
        <time>2010-04-04T07:19:33Z</time>
      </trkpt>
      <trkpt lat="47.35374" lon="-0.01504">
        <ele>106.36</ele>
        <time>2010-04-04T07:19:34Z</time>
      </trkpt>
      <trkpt lat="47.35372" lon="-0.01503">
        <ele>107.32</ele>
        <time>2010-04-04T07:19:35Z</time>
      </trkpt>
      <trkpt lat="47.35358" lon="-0.01487">
        <ele>104.92</ele>
        <time>2010-04-04T07:19:41Z</time>
      </trkpt>
      <trkpt lat="47.35345" lon="-0.01471">
        <ele>105.4</ele>
        <time>2010-04-04T07:19:46Z</time>
      </trkpt>
      <trkpt lat="47.3534" lon="-0.01469">
        <ele>105.88</ele>
        <time>2010-04-04T07:19:47Z</time>
      </trkpt>
      <trkpt lat="47.35312" lon="-0.0145">
        <ele>103</ele>
        <time>2010-04-04T07:19:54Z</time>
      </trkpt>
      <trkpt lat="47.35308" lon="-0.01447">
        <ele>102.52</ele>
        <time>2010-04-04T07:19:55Z</time>
      </trkpt>
      <trkpt lat="47.35298" lon="-0.0144">
        <ele>101.56</ele>
        <time>2010-04-04T07:19:57Z</time>
      </trkpt>
      <trkpt lat="47.35273" lon="-0.01415">
        <ele>99.15</ele>
        <time>2010-04-04T07:20:02Z</time>
      </trkpt>
      <trkpt lat="47.35255" lon="-0.01393">
        <ele>97.23</ele>
        <time>2010-04-04T07:20:05Z</time>
      </trkpt>
      <trkpt lat="47.35248" lon="-0.01386">
        <ele>95.79</ele>
        <time>2010-04-04T07:20:06Z</time>
      </trkpt>
      <trkpt lat="47.35243" lon="-0.01378">
        <ele>94.35</ele>
        <time>2010-04-04T07:20:07Z</time>
      </trkpt>
      <trkpt lat="47.35231" lon="-0.01364">
        <ele>92.9</ele>
        <time>2010-04-04T07:20:09Z</time>
      </trkpt>
      <trkpt lat="47.35216" lon="-0.01349">
        <ele>91.94</ele>
        <time>2010-04-04T07:20:11Z</time>
      </trkpt>
      <trkpt lat="47.35192" lon="-0.01327">
        <ele>88.1</ele>
        <time>2010-04-04T07:20:14Z</time>
      </trkpt>
      <trkpt lat="47.35184" lon="-0.0132">
        <ele>88.1</ele>
        <time>2010-04-04T07:20:15Z</time>
      </trkpt>
      <trkpt lat="47.35161" lon="-0.01299">
        <ele>84.73</ele>
        <time>2010-04-04T07:20:18Z</time>
      </trkpt>
      <trkpt lat="47.35137" lon="-0.01277">
        <ele>82.33</ele>
        <time>2010-04-04T07:20:21Z</time>
      </trkpt>
      <trkpt lat="47.35128" lon="-0.01268">
        <ele>79.45</ele>
        <time>2010-04-04T07:20:22Z</time>
      </trkpt>
      <trkpt lat="47.3511" lon="-0.01248">
        <ele>76.56</ele>
        <time>2010-04-04T07:20:24Z</time>
      </trkpt>
      <trkpt lat="47.35085" lon="-0.0122">
        <ele>73.2</ele>
        <time>2010-04-04T07:20:27Z</time>
      </trkpt>
      <trkpt lat="47.35067" lon="-0.012">
        <ele>71.76</ele>
        <time>2010-04-04T07:20:29Z</time>
      </trkpt>
      <trkpt lat="47.35036" lon="-0.01162">
        <ele>68.39</ele>
        <time>2010-04-04T07:20:33Z</time>
      </trkpt>
      <trkpt lat="47.35011" lon="-0.01138">
        <ele>65.03</ele>
        <time>2010-04-04T07:20:36Z</time>
      </trkpt>
      <trkpt lat="47.35005" lon="-0.01135">
        <ele>65.03</ele>
        <time>2010-04-04T07:20:37Z</time>
      </trkpt>
      <trkpt lat="47.34998" lon="-0.01136">
        <ele>64.07</ele>
        <time>2010-04-04T07:20:38Z</time>
      </trkpt>
      <trkpt lat="47.34993" lon="-0.01141">
        <ele>64.55</ele>
        <time>2010-04-04T07:20:39Z</time>
      </trkpt>
      <trkpt lat="47.34989" lon="-0.01146">
        <ele>63.58</ele>
        <time>2010-04-04T07:20:40Z</time>
      </trkpt>
      <trkpt lat="47.34985" lon="-0.01153">
        <ele>64.55</ele>
        <time>2010-04-04T07:20:41Z</time>
      </trkpt>
      <trkpt lat="47.34982" lon="-0.01159">
        <ele>64.07</ele>
        <time>2010-04-04T07:20:42Z</time>
      </trkpt>
      <trkpt lat="47.34958" lon="-0.01209">
        <ele>64.55</ele>
        <time>2010-04-04T07:20:50Z</time>
      </trkpt>
      <trkpt lat="47.34942" lon="-0.01242">
        <ele>65.99</ele>
        <time>2010-04-04T07:20:56Z</time>
      </trkpt>
      <trkpt lat="47.34935" lon="-0.01258">
        <ele>65.99</ele>
        <time>2010-04-04T07:20:59Z</time>
      </trkpt>
      <trkpt lat="47.34929" lon="-0.01267">
        <ele>66.95</ele>
        <time>2010-04-04T07:21:01Z</time>
      </trkpt>
      <trkpt lat="47.34925" lon="-0.01271">
        <ele>66.95</ele>
        <time>2010-04-04T07:21:02Z</time>
      </trkpt>
      <trkpt lat="47.34921" lon="-0.01273">
        <ele>65.99</ele>
        <time>2010-04-04T07:21:03Z</time>
      </trkpt>
      <trkpt lat="47.34917" lon="-0.01272">
        <ele>65.51</ele>
        <time>2010-04-04T07:21:04Z</time>
      </trkpt>
      <trkpt lat="47.34913" lon="-0.01269">
        <ele>65.51</ele>
        <time>2010-04-04T07:21:05Z</time>
      </trkpt>
      <trkpt lat="47.34904" lon="-0.01263">
        <ele>65.03</ele>
        <time>2010-04-04T07:21:07Z</time>
      </trkpt>
      <trkpt lat="47.34881" lon="-0.01244">
        <ele>63.58</ele>
        <time>2010-04-04T07:21:12Z</time>
      </trkpt>
      <trkpt lat="47.34876" lon="-0.01243">
        <ele>63.1</ele>
        <time>2010-04-04T07:21:13Z</time>
      </trkpt>
      <trkpt lat="47.34871" lon="-0.01245">
        <ele>62.62</ele>
        <time>2010-04-04T07:21:14Z</time>
      </trkpt>
      <trkpt lat="47.34866" lon="-0.01249">
        <ele>63.1</ele>
        <time>2010-04-04T07:21:15Z</time>
      </trkpt>
      <trkpt lat="47.34862" lon="-0.01255">
        <ele>63.1</ele>
        <time>2010-04-04T07:21:16Z</time>
      </trkpt>
      <trkpt lat="47.34858" lon="-0.0126">
        <ele>63.58</ele>
        <time>2010-04-04T07:21:17Z</time>
      </trkpt>
      <trkpt lat="47.34842" lon="-0.01284">
        <ele>62.14</ele>
        <time>2010-04-04T07:21:21Z</time>
      </trkpt>
      <trkpt lat="47.34826" lon="-0.01305">
        <ele>62.62</ele>
        <time>2010-04-04T07:21:25Z</time>
      </trkpt>
      <trkpt lat="47.34813" lon="-0.01319">
        <ele>60.7</ele>
        <time>2010-04-04T07:21:28Z</time>
      </trkpt>
      <trkpt lat="47.34804" lon="-0.01329">
        <ele>60.22</ele>
        <time>2010-04-04T07:21:30Z</time>
      </trkpt>
      <trkpt lat="47.348" lon="-0.01332">
        <ele>60.22</ele>
        <time>2010-04-04T07:21:31Z</time>
      </trkpt>
      <trkpt lat="47.34794" lon="-0.01333">
        <ele>58.78</ele>
        <time>2010-04-04T07:21:32Z</time>
      </trkpt>
      <trkpt lat="47.34789" lon="-0.01331">
        <ele>58.78</ele>
        <time>2010-04-04T07:21:33Z</time>
      </trkpt>
      <trkpt lat="47.34784" lon="-0.01328">
        <ele>58.3</ele>
        <time>2010-04-04T07:21:34Z</time>
      </trkpt>
      <trkpt lat="47.34779" lon="-0.01325">
        <ele>57.82</ele>
        <time>2010-04-04T07:21:35Z</time>
      </trkpt>
      <trkpt lat="47.34753" lon="-0.01298">
        <ele>57.82</ele>
        <time>2010-04-04T07:21:42Z</time>
      </trkpt>
      <trkpt lat="47.34746" lon="-0.01288">
        <ele>56.86</ele>
        <time>2010-04-04T07:21:44Z</time>
      </trkpt>
      <trkpt lat="47.34733" lon="-0.01274">
        <ele>54.45</ele>
        <time>2010-04-04T07:21:47Z</time>
      </trkpt>
      <trkpt lat="47.34729" lon="-0.0127">
        <ele>54.45</ele>
        <time>2010-04-04T07:21:48Z</time>
      </trkpt>
      <trkpt lat="47.34725" lon="-0.01266">
        <ele>53.97</ele>
        <time>2010-04-04T07:21:49Z</time>
      </trkpt>
      <trkpt lat="47.34722" lon="-0.01264">
        <ele>53.97</ele>
        <time>2010-04-04T07:21:50Z</time>
      </trkpt>
      <trkpt lat="47.34719" lon="-0.01263">
        <ele>53.97</ele>
        <time>2010-04-04T07:21:51Z</time>
      </trkpt>
      <trkpt lat="47.34716" lon="-0.01263">
        <ele>53.49</ele>
        <time>2010-04-04T07:21:52Z</time>
      </trkpt>
      <trkpt lat="47.34714" lon="-0.01264">
        <ele>52.53</ele>
        <time>2010-04-04T07:21:53Z</time>
      </trkpt>
      <trkpt lat="47.34712" lon="-0.01267">
        <ele>52.05</ele>
        <time>2010-04-04T07:21:54Z</time>
      </trkpt>
      <trkpt lat="47.34709" lon="-0.01271">
        <ele>52.53</ele>
        <time>2010-04-04T07:21:55Z</time>
      </trkpt>
      <trkpt lat="47.3469" lon="-0.01307">
        <ele>53.01</ele>
        <time>2010-04-04T07:22:03Z</time>
      </trkpt>
      <trkpt lat="47.34665" lon="-0.01352">
        <ele>51.09</ele>
        <time>2010-04-04T07:22:12Z</time>
      </trkpt>
      <trkpt lat="47.34663" lon="-0.01357">
        <ele>52.53</ele>
        <time>2010-04-04T07:22:13Z</time>
      </trkpt>
      <trkpt lat="47.34652" lon="-0.01377">
        <ele>52.05</ele>
        <time>2010-04-04T07:22:17Z</time>
      </trkpt>
      <trkpt lat="47.34649" lon="-0.01382">
        <ele>52.53</ele>
        <time>2010-04-04T07:22:18Z</time>
      </trkpt>
      <trkpt lat="47.34642" lon="-0.01396">
        <ele>52.53</ele>
        <time>2010-04-04T07:22:23Z</time>
      </trkpt>
      <trkpt lat="47.3464" lon="-0.01398">
        <ele>51.09</ele>
        <time>2010-04-04T07:22:24Z</time>
      </trkpt>
      <trkpt lat="47.34639" lon="-0.01399">
        <ele>51.09</ele>
        <time>2010-04-04T07:22:25Z</time>
      </trkpt>
      <trkpt lat="47.34638" lon="-0.014">
        <ele>51.09</ele>
        <time>2010-04-04T07:22:26Z</time>
      </trkpt>
      <trkpt lat="47.34634" lon="-0.01404">
        <ele>52.05</ele>
        <time>2010-04-04T07:22:30Z</time>
      </trkpt>
      <trkpt lat="47.34634" lon="-0.01405">
        <ele>50.61</ele>
        <time>2010-04-04T07:22:36Z</time>
      </trkpt>
      <trkpt lat="47.34629" lon="-0.01413">
        <ele>50.61</ele>
        <time>2010-04-04T07:22:54Z</time>
      </trkpt>
      <trkpt lat="47.34613" lon="-0.01443">
        <ele>52.05</ele>
        <time>2010-04-04T07:23:01Z</time>
      </trkpt>
      <trkpt lat="47.34595" lon="-0.01478">
        <ele>51.57</ele>
        <time>2010-04-04T07:23:09Z</time>
      </trkpt>
      <trkpt lat="47.3458" lon="-0.01505">
        <ele>51.09</ele>
        <time>2010-04-04T07:23:15Z</time>
      </trkpt>
      <trkpt lat="47.34577" lon="-0.01509">
        <ele>51.09</ele>
        <time>2010-04-04T07:23:16Z</time>
      </trkpt>
      <trkpt lat="47.34569" lon="-0.01525">
        <ele>51.57</ele>
        <time>2010-04-04T07:23:19Z</time>
      </trkpt>
      <trkpt lat="47.3454" lon="-0.01577">
        <ele>50.13</ele>
        <time>2010-04-04T07:23:29Z</time>
      </trkpt>
      <trkpt lat="47.34509" lon="-0.01634">
        <ele>50.13</ele>
        <time>2010-04-04T07:23:40Z</time>
      </trkpt>
      <trkpt lat="47.34491" lon="-0.01666">
        <ele>51.09</ele>
        <time>2010-04-04T07:23:46Z</time>
      </trkpt>
      <trkpt lat="47.3447" lon="-0.01698">
        <ele>50.61</ele>
        <time>2010-04-04T07:23:53Z</time>
      </trkpt>
      <trkpt lat="47.34467" lon="-0.01702">
        <ele>51.09</ele>
        <time>2010-04-04T07:23:54Z</time>
      </trkpt>
      <trkpt lat="47.34441" lon="-0.01743">
        <ele>50.13</ele>
        <time>2010-04-04T07:24:02Z</time>
      </trkpt>
      <trkpt lat="47.34414" lon="-0.01784">
        <ele>50.61</ele>
        <time>2010-04-04T07:24:10Z</time>
      </trkpt>
      <trkpt lat="47.34391" lon="-0.01814">
        <ele>48.2</ele>
        <time>2010-04-04T07:24:17Z</time>
      </trkpt>
      <trkpt lat="47.34372" lon="-0.01839">
        <ele>50.13</ele>
        <time>2010-04-04T07:24:24Z</time>
      </trkpt>
      <trkpt lat="47.34361" lon="-0.01853">
        <ele>48.68</ele>
        <time>2010-04-04T07:24:28Z</time>
      </trkpt>
      <trkpt lat="47.34356" lon="-0.01855">
        <ele>47.72</ele>
        <time>2010-04-04T07:24:30Z</time>
      </trkpt>
      <trkpt lat="47.34353" lon="-0.01853">
        <ele>49.16</ele>
        <time>2010-04-04T07:24:31Z</time>
      </trkpt>
      <trkpt lat="47.34352" lon="-0.01849">
        <ele>46.76</ele>
        <time>2010-04-04T07:24:32Z</time>
      </trkpt>
      <trkpt lat="47.34347" lon="-0.018">
        <ele>48.68</ele>
        <time>2010-04-04T07:24:40Z</time>
      </trkpt>
      <trkpt lat="47.34343" lon="-0.01754">
        <ele>47.24</ele>
        <time>2010-04-04T07:24:48Z</time>
      </trkpt>
      <trkpt lat="47.34342" lon="-0.01747">
        <ele>48.2</ele>
        <time>2010-04-04T07:24:49Z</time>
      </trkpt>
      <trkpt lat="47.34341" lon="-0.01735">
        <ele>49.65</ele>
        <time>2010-04-04T07:24:51Z</time>
      </trkpt>
      <trkpt lat="47.3434" lon="-0.01699">
        <ele>50.61</ele>
        <time>2010-04-04T07:24:57Z</time>
      </trkpt>
      <trkpt lat="47.34341" lon="-0.01667">
        <ele>51.09</ele>
        <time>2010-04-04T07:25:02Z</time>
      </trkpt>
      <trkpt lat="47.34342" lon="-0.01661">
        <ele>52.05</ele>
        <time>2010-04-04T07:25:03Z</time>
      </trkpt>
      <trkpt lat="47.34342" lon="-0.01654">
        <ele>52.05</ele>
        <time>2010-04-04T07:25:04Z</time>
      </trkpt>
      <trkpt lat="47.34342" lon="-0.01648">
        <ele>51.09</ele>
        <time>2010-04-04T07:25:05Z</time>
      </trkpt>
      <trkpt lat="47.34343" lon="-0.01642">
        <ele>51.09</ele>
        <time>2010-04-04T07:25:06Z</time>
      </trkpt>
      <trkpt lat="47.34343" lon="-0.01636">
        <ele>52.53</ele>
        <time>2010-04-04T07:25:07Z</time>
      </trkpt>
      <trkpt lat="47.34346" lon="-0.01571">
        <ele>52.05</ele>
        <time>2010-04-04T07:25:17Z</time>
      </trkpt>
      <trkpt lat="47.3435" lon="-0.01505">
        <ele>54.45</ele>
        <time>2010-04-04T07:25:27Z</time>
      </trkpt>
      <trkpt lat="47.34354" lon="-0.01441">
        <ele>55.41</ele>
        <time>2010-04-04T07:25:37Z</time>
      </trkpt>
      <trkpt lat="47.34356" lon="-0.01374">
        <ele>56.37</ele>
        <time>2010-04-04T07:25:48Z</time>
      </trkpt>
      <trkpt lat="47.34355" lon="-0.01362">
        <ele>57.34</ele>
        <time>2010-04-04T07:25:50Z</time>
      </trkpt>
      <trkpt lat="47.34344" lon="-0.01305">
        <ele>58.78</ele>
        <time>2010-04-04T07:26:00Z</time>
      </trkpt>
      <trkpt lat="47.34326" lon="-0.01246">
        <ele>59.74</ele>
        <time>2010-04-04T07:26:11Z</time>
      </trkpt>
      <trkpt lat="47.34317" lon="-0.01219">
        <ele>60.7</ele>
        <time>2010-04-04T07:26:16Z</time>
      </trkpt>
      <trkpt lat="47.34316" lon="-0.01214">
        <ele>60.22</ele>
        <time>2010-04-04T07:26:17Z</time>
      </trkpt>
      <trkpt lat="47.34298" lon="-0.01155">
        <ele>62.14</ele>
        <time>2010-04-04T07:26:28Z</time>
      </trkpt>
      <trkpt lat="47.34284" lon="-0.01113">
        <ele>65.03</ele>
        <time>2010-04-04T07:26:36Z</time>
      </trkpt>
      <trkpt lat="47.34269" lon="-0.01066">
        <ele>65.51</ele>
        <time>2010-04-04T07:26:45Z</time>
      </trkpt>
      <trkpt lat="47.34257" lon="-0.01026">
        <ele>67.43</ele>
        <time>2010-04-04T07:26:53Z</time>
      </trkpt>
      <trkpt lat="47.34246" lon="-0.00995">
        <ele>66.95</ele>
        <time>2010-04-04T07:27:00Z</time>
      </trkpt>
      <trkpt lat="47.3424" lon="-0.00982">
        <ele>70.31</ele>
        <time>2010-04-04T07:27:03Z</time>
      </trkpt>
      <trkpt lat="47.34239" lon="-0.00977">
        <ele>69.83</ele>
        <time>2010-04-04T07:27:04Z</time>
      </trkpt>
      <trkpt lat="47.34233" lon="-0.00952">
        <ele>70.31</ele>
        <time>2010-04-04T07:27:10Z</time>
      </trkpt>
      <trkpt lat="47.3423" lon="-0.00944">
        <ele>70.31</ele>
        <time>2010-04-04T07:27:12Z</time>
      </trkpt>
      <trkpt lat="47.34228" lon="-0.00942">
        <ele>71.76</ele>
        <time>2010-04-04T07:27:13Z</time>
      </trkpt>
      <trkpt lat="47.34225" lon="-0.00941">
        <ele>71.27</ele>
        <time>2010-04-04T07:27:14Z</time>
      </trkpt>
      <trkpt lat="47.34219" lon="-0.0094">
        <ele>72.72</ele>
        <time>2010-04-04T07:27:17Z</time>
      </trkpt>
      <trkpt lat="47.342" lon="-0.00949">
        <ele>73.2</ele>
        <time>2010-04-04T07:27:23Z</time>
      </trkpt>
      <trkpt lat="47.34184" lon="-0.00957">
        <ele>71.27</ele>
        <time>2010-04-04T07:27:27Z</time>
      </trkpt>
      <trkpt lat="47.34179" lon="-0.00959">
        <ele>70.31</ele>
        <time>2010-04-04T07:27:28Z</time>
      </trkpt>
      <trkpt lat="47.34174" lon="-0.00962">
        <ele>71.27</ele>
        <time>2010-04-04T07:27:29Z</time>
      </trkpt>
      <trkpt lat="47.34155" lon="-0.00973">
        <ele>69.35</ele>
        <time>2010-04-04T07:27:33Z</time>
      </trkpt>
      <trkpt lat="47.34139" lon="-0.00982">
        <ele>71.76</ele>
        <time>2010-04-04T07:27:38Z</time>
      </trkpt>
      <trkpt lat="47.34122" lon="-0.00995">
        <ele>71.27</ele>
        <time>2010-04-04T07:27:43Z</time>
      </trkpt>
      <trkpt lat="47.34117" lon="-0.00999">
        <ele>71.76</ele>
        <time>2010-04-04T07:27:44Z</time>
      </trkpt>
      <trkpt lat="47.34113" lon="-0.01003">
        <ele>72.72</ele>
        <time>2010-04-04T07:27:45Z</time>
      </trkpt>
      <trkpt lat="47.34101" lon="-0.01014">
        <ele>71.76</ele>
        <time>2010-04-04T07:27:48Z</time>
      </trkpt>
      <trkpt lat="47.34097" lon="-0.01017">
        <ele>71.27</ele>
        <time>2010-04-04T07:27:49Z</time>
      </trkpt>
      <trkpt lat="47.34074" lon="-0.0105">
        <ele>72.24</ele>
        <time>2010-04-04T07:27:56Z</time>
      </trkpt>
      <trkpt lat="47.34058" lon="-0.01085">
        <ele>71.27</ele>
        <time>2010-04-04T07:28:02Z</time>
      </trkpt>
      <trkpt lat="47.34054" lon="-0.01097">
        <ele>70.79</ele>
        <time>2010-04-04T07:28:04Z</time>
      </trkpt>
      <trkpt lat="47.34051" lon="-0.01103">
        <ele>70.31</ele>
        <time>2010-04-04T07:28:05Z</time>
      </trkpt>
      <trkpt lat="47.34047" lon="-0.01109">
        <ele>69.35</ele>
        <time>2010-04-04T07:28:06Z</time>
      </trkpt>
      <trkpt lat="47.34043" lon="-0.01114">
        <ele>68.87</ele>
        <time>2010-04-04T07:28:07Z</time>
      </trkpt>
      <trkpt lat="47.34039" lon="-0.01118">
        <ele>68.39</ele>
        <time>2010-04-04T07:28:08Z</time>
      </trkpt>
      <trkpt lat="47.34035" lon="-0.01121">
        <ele>69.35</ele>
        <time>2010-04-04T07:28:09Z</time>
      </trkpt>
      <trkpt lat="47.34031" lon="-0.01125">
        <ele>68.87</ele>
        <time>2010-04-04T07:28:10Z</time>
      </trkpt>
      <trkpt lat="47.34027" lon="-0.01129">
        <ele>68.87</ele>
        <time>2010-04-04T07:28:11Z</time>
      </trkpt>
      <trkpt lat="47.34023" lon="-0.01133">
        <ele>68.87</ele>
        <time>2010-04-04T07:28:12Z</time>
      </trkpt>
      <trkpt lat="47.33987" lon="-0.01161">
        <ele>70.79</ele>
        <time>2010-04-04T07:28:20Z</time>
      </trkpt>
      <trkpt lat="47.33973" lon="-0.01171">
        <ele>69.83</ele>
        <time>2010-04-04T07:28:23Z</time>
      </trkpt>
      <trkpt lat="47.3394" lon="-0.0119">
        <ele>67.43</ele>
        <time>2010-04-04T07:28:30Z</time>
      </trkpt>
      <trkpt lat="47.33929" lon="-0.01195">
        <ele>67.43</ele>
        <time>2010-04-04T07:28:33Z</time>
      </trkpt>
      <trkpt lat="47.33919" lon="-0.012">
        <ele>68.39</ele>
        <time>2010-04-04T07:28:35Z</time>
      </trkpt>
      <trkpt lat="47.33909" lon="-0.01205">
        <ele>66.47</ele>
        <time>2010-04-04T07:28:37Z</time>
      </trkpt>
      <trkpt lat="47.33905" lon="-0.01207">
        <ele>66.95</ele>
        <time>2010-04-04T07:28:38Z</time>
      </trkpt>
      <trkpt lat="47.339" lon="-0.01209">
        <ele>67.91</ele>
        <time>2010-04-04T07:28:39Z</time>
      </trkpt>
      <trkpt lat="47.33896" lon="-0.0121">
        <ele>66.47</ele>
        <time>2010-04-04T07:28:40Z</time>
      </trkpt>
      <trkpt lat="47.33892" lon="-0.01213">
        <ele>67.43</ele>
        <time>2010-04-04T07:28:41Z</time>
      </trkpt>
      <trkpt lat="47.33863" lon="-0.01231">
        <ele>64.55</ele>
        <time>2010-04-04T07:28:47Z</time>
      </trkpt>
      <trkpt lat="47.33859" lon="-0.01235">
        <ele>65.99</ele>
        <time>2010-04-04T07:28:48Z</time>
      </trkpt>
      <trkpt lat="47.33844" lon="-0.01244">
        <ele>65.03</ele>
        <time>2010-04-04T07:28:51Z</time>
      </trkpt>
      <trkpt lat="47.3384" lon="-0.01247">
        <ele>65.03</ele>
        <time>2010-04-04T07:28:52Z</time>
      </trkpt>
      <trkpt lat="47.33835" lon="-0.0125">
        <ele>64.55</ele>
        <time>2010-04-04T07:28:53Z</time>
      </trkpt>
      <trkpt lat="47.3382" lon="-0.01259">
        <ele>63.58</ele>
        <time>2010-04-04T07:28:56Z</time>
      </trkpt>
      <trkpt lat="47.33815" lon="-0.01262">
        <ele>63.1</ele>
        <time>2010-04-04T07:28:57Z</time>
      </trkpt>
      <trkpt lat="47.3381" lon="-0.01265">
        <ele>63.1</ele>
        <time>2010-04-04T07:28:58Z</time>
      </trkpt>
      <trkpt lat="47.33805" lon="-0.01268">
        <ele>61.66</ele>
        <time>2010-04-04T07:28:59Z</time>
      </trkpt>
      <trkpt lat="47.338" lon="-0.01271">
        <ele>63.1</ele>
        <time>2010-04-04T07:29:00Z</time>
      </trkpt>
      <trkpt lat="47.3379" lon="-0.01277">
        <ele>62.14</ele>
        <time>2010-04-04T07:29:02Z</time>
      </trkpt>
      <trkpt lat="47.33772" lon="-0.01288">
        <ele>60.7</ele>
        <time>2010-04-04T07:29:06Z</time>
      </trkpt>
      <trkpt lat="47.33768" lon="-0.01291">
        <ele>61.18</ele>
        <time>2010-04-04T07:29:07Z</time>
      </trkpt>
      <trkpt lat="47.3375" lon="-0.01305">
        <ele>61.66</ele>
        <time>2010-04-04T07:29:11Z</time>
      </trkpt>
      <trkpt lat="47.33729" lon="-0.0132">
        <ele>63.58</ele>
        <time>2010-04-04T07:29:16Z</time>
      </trkpt>
      <trkpt lat="47.33699" lon="-0.01345">
        <ele>65.51</ele>
        <time>2010-04-04T07:29:24Z</time>
      </trkpt>
      <trkpt lat="47.33683" lon="-0.01357">
        <ele>63.1</ele>
        <time>2010-04-04T07:29:29Z</time>
      </trkpt>
      <trkpt lat="47.33681" lon="-0.01355">
        <ele>63.58</ele>
        <time>2010-04-04T07:29:30Z</time>
      </trkpt>
      <trkpt lat="47.33679" lon="-0.01352">
        <ele>63.1</ele>
        <time>2010-04-04T07:29:31Z</time>
      </trkpt>
      <trkpt lat="47.33678" lon="-0.01348">
        <ele>64.07</ele>
        <time>2010-04-04T07:29:32Z</time>
      </trkpt>
      <trkpt lat="47.33677" lon="-0.01343">
        <ele>63.1</ele>
        <time>2010-04-04T07:29:33Z</time>
      </trkpt>
      <trkpt lat="47.33664" lon="-0.01297">
        <ele>64.55</ele>
        <time>2010-04-04T07:29:41Z</time>
      </trkpt>
      <trkpt lat="47.33652" lon="-0.01249">
        <ele>66.47</ele>
        <time>2010-04-04T07:29:50Z</time>
      </trkpt>
      <trkpt lat="47.33652" lon="-0.01207">
        <ele>65.99</ele>
        <time>2010-04-04T07:29:58Z</time>
      </trkpt>
      <trkpt lat="47.33649" lon="-0.01169">
        <ele>67.43</ele>
        <time>2010-04-04T07:30:05Z</time>
      </trkpt>
      <trkpt lat="47.33646" lon="-0.01126">
        <ele>66.95</ele>
        <time>2010-04-04T07:30:13Z</time>
      </trkpt>
      <trkpt lat="47.33645" lon="-0.011">
        <ele>67.43</ele>
        <time>2010-04-04T07:30:18Z</time>
      </trkpt>
      <trkpt lat="47.33645" lon="-0.01073">
        <ele>68.87</ele>
        <time>2010-04-04T07:30:24Z</time>
      </trkpt>
      <trkpt lat="47.33645" lon="-0.01047">
        <ele>69.83</ele>
        <time>2010-04-04T07:30:29Z</time>
      </trkpt>
      <trkpt lat="47.33645" lon="-0.01037">
        <ele>69.35</ele>
        <time>2010-04-04T07:30:31Z</time>
      </trkpt>
      <trkpt lat="47.33646" lon="-0.01033">
        <ele>70.79</ele>
        <time>2010-04-04T07:30:32Z</time>
      </trkpt>
      <trkpt lat="47.33646" lon="-0.01029">
        <ele>69.35</ele>
        <time>2010-04-04T07:30:33Z</time>
      </trkpt>
      <trkpt lat="47.33646" lon="-0.01024">
        <ele>69.35</ele>
        <time>2010-04-04T07:30:34Z</time>
      </trkpt>
      <trkpt lat="47.33645" lon="-0.01019">
        <ele>70.31</ele>
        <time>2010-04-04T07:30:35Z</time>
      </trkpt>
      <trkpt lat="47.33645" lon="-0.00998">
        <ele>71.27</ele>
        <time>2010-04-04T07:30:39Z</time>
      </trkpt>
      <trkpt lat="47.33646" lon="-0.0097">
        <ele>71.27</ele>
        <time>2010-04-04T07:30:45Z</time>
      </trkpt>
      <trkpt lat="47.33641" lon="-0.0095">
        <ele>72.24</ele>
        <time>2010-04-04T07:30:51Z</time>
      </trkpt>
      <trkpt lat="47.3364" lon="-0.00925">
        <ele>73.68</ele>
        <time>2010-04-04T07:30:57Z</time>
      </trkpt>
      <trkpt lat="47.3364" lon="-0.00898">
        <ele>74.64</ele>
        <time>2010-04-04T07:31:03Z</time>
      </trkpt>
      <trkpt lat="47.33639" lon="-0.00872">
        <ele>75.6</ele>
        <time>2010-04-04T07:31:09Z</time>
      </trkpt>
      <trkpt lat="47.33635" lon="-0.00852">
        <ele>76.08</ele>
        <time>2010-04-04T07:31:14Z</time>
      </trkpt>
      <trkpt lat="47.33631" lon="-0.00822">
        <ele>78.97</ele>
        <time>2010-04-04T07:31:20Z</time>
      </trkpt>
      <trkpt lat="47.33628" lon="-0.00798">
        <ele>79.45</ele>
        <time>2010-04-04T07:31:26Z</time>
      </trkpt>
      <trkpt lat="47.33628" lon="-0.00779">
        <ele>83.77</ele>
        <time>2010-04-04T07:31:33Z</time>
      </trkpt>
      <trkpt lat="47.33631" lon="-0.00757">
        <ele>83.77</ele>
        <time>2010-04-04T07:31:41Z</time>
      </trkpt>
      <trkpt lat="47.33632" lon="-0.00752">
        <ele>85.21</ele>
        <time>2010-04-04T07:31:43Z</time>
      </trkpt>
      <trkpt lat="47.33632" lon="-0.0075">
        <ele>86.18</ele>
        <time>2010-04-04T07:31:44Z</time>
      </trkpt>
      <trkpt lat="47.33633" lon="-0.00747">
        <ele>85.69</ele>
        <time>2010-04-04T07:31:45Z</time>
      </trkpt>
      <trkpt lat="47.33633" lon="-0.00739">
        <ele>86.18</ele>
        <time>2010-04-04T07:31:48Z</time>
      </trkpt>
      <trkpt lat="47.33633" lon="-0.00735">
        <ele>86.66</ele>
        <time>2010-04-04T07:31:49Z</time>
      </trkpt>
      <trkpt lat="47.33634" lon="-0.00732">
        <ele>87.14</ele>
        <time>2010-04-04T07:31:50Z</time>
      </trkpt>
      <trkpt lat="47.33633" lon="-0.0073">
        <ele>86.66</ele>
        <time>2010-04-04T07:31:51Z</time>
      </trkpt>
      <trkpt lat="47.33634" lon="-0.00727">
        <ele>87.14</ele>
        <time>2010-04-04T07:31:52Z</time>
      </trkpt>
      <trkpt lat="47.33634" lon="-0.00725">
        <ele>86.66</ele>
        <time>2010-04-04T07:31:53Z</time>
      </trkpt>
      <trkpt lat="47.33634" lon="-0.00723">
        <ele>88.1</ele>
        <time>2010-04-04T07:31:54Z</time>
      </trkpt>
      <trkpt lat="47.33635" lon="-0.00721">
        <ele>88.1</ele>
        <time>2010-04-04T07:31:55Z</time>
      </trkpt>
      <trkpt lat="47.33635" lon="-0.00719">
        <ele>88.1</ele>
        <time>2010-04-04T07:31:56Z</time>
      </trkpt>
      <trkpt lat="47.33635" lon="-0.00716">
        <ele>88.58</ele>
        <time>2010-04-04T07:31:57Z</time>
      </trkpt>
      <trkpt lat="47.33635" lon="-0.00713">
        <ele>89.06</ele>
        <time>2010-04-04T07:31:58Z</time>
      </trkpt>
      <trkpt lat="47.33635" lon="-0.0071">
        <ele>87.62</ele>
        <time>2010-04-04T07:31:59Z</time>
      </trkpt>
      <trkpt lat="47.33636" lon="-0.00707">
        <ele>88.1</ele>
        <time>2010-04-04T07:32:00Z</time>
      </trkpt>
      <trkpt lat="47.33635" lon="-0.00701">
        <ele>90.02</ele>
        <time>2010-04-04T07:32:03Z</time>
      </trkpt>
      <trkpt lat="47.33632" lon="-0.00693">
        <ele>88.58</ele>
        <time>2010-04-04T07:32:07Z</time>
      </trkpt>
      <trkpt lat="47.33632" lon="-0.00691">
        <ele>89.54</ele>
        <time>2010-04-04T07:32:08Z</time>
      </trkpt>
      <trkpt lat="47.33632" lon="-0.00689">
        <ele>89.06</ele>
        <time>2010-04-04T07:32:09Z</time>
      </trkpt>
      <trkpt lat="47.33632" lon="-0.00686">
        <ele>88.58</ele>
        <time>2010-04-04T07:32:10Z</time>
      </trkpt>
      <trkpt lat="47.33631" lon="-0.00684">
        <ele>89.06</ele>
        <time>2010-04-04T07:32:11Z</time>
      </trkpt>
      <trkpt lat="47.3363" lon="-0.00672">
        <ele>90.5</ele>
        <time>2010-04-04T07:32:16Z</time>
      </trkpt>
      <trkpt lat="47.3363" lon="-0.0066">
        <ele>90.02</ele>
        <time>2010-04-04T07:32:21Z</time>
      </trkpt>
      <trkpt lat="47.33628" lon="-0.00655">
        <ele>90.5</ele>
        <time>2010-04-04T07:32:23Z</time>
      </trkpt>
      <trkpt lat="47.33627" lon="-0.00653">
        <ele>91.46</ele>
        <time>2010-04-04T07:32:24Z</time>
      </trkpt>
      <trkpt lat="47.33627" lon="-0.0065">
        <ele>90.98</ele>
        <time>2010-04-04T07:32:25Z</time>
      </trkpt>
      <trkpt lat="47.33625" lon="-0.00627">
        <ele>91.46</ele>
        <time>2010-04-04T07:32:33Z</time>
      </trkpt>
      <trkpt lat="47.33624" lon="-0.00611">
        <ele>91.46</ele>
        <time>2010-04-04T07:32:38Z</time>
      </trkpt>
      <trkpt lat="47.33622" lon="-0.00601">
        <ele>93.39</ele>
        <time>2010-04-04T07:32:41Z</time>
      </trkpt>
      <trkpt lat="47.33618" lon="-0.00579">
        <ele>92.9</ele>
        <time>2010-04-04T07:32:47Z</time>
      </trkpt>
      <trkpt lat="47.33616" lon="-0.00559">
        <ele>94.83</ele>
        <time>2010-04-04T07:32:52Z</time>
      </trkpt>
      <trkpt lat="47.33607" lon="-0.00533">
        <ele>93.87</ele>
        <time>2010-04-04T07:32:59Z</time>
      </trkpt>
      <trkpt lat="47.33605" lon="-0.00519">
        <ele>95.79</ele>
        <time>2010-04-04T07:33:02Z</time>
      </trkpt>
      <trkpt lat="47.33598" lon="-0.00498">
        <ele>95.31</ele>
        <time>2010-04-04T07:33:08Z</time>
      </trkpt>
      <trkpt lat="47.33595" lon="-0.00489">
        <ele>94.83</ele>
        <time>2010-04-04T07:33:10Z</time>
      </trkpt>
      <trkpt lat="47.33586" lon="-0.00458">
        <ele>95.79</ele>
        <time>2010-04-04T07:33:17Z</time>
      </trkpt>
      <trkpt lat="47.3358" lon="-0.00448">
        <ele>95.79</ele>
        <time>2010-04-04T07:33:22Z</time>
      </trkpt>
      <trkpt lat="47.33579" lon="-0.00445">
        <ele>94.83</ele>
        <time>2010-04-04T07:33:30Z</time>
      </trkpt>
      <trkpt lat="47.33575" lon="-0.00434">
        <ele>95.79</ele>
        <time>2010-04-04T07:33:35Z</time>
      </trkpt>
      <trkpt lat="47.3357" lon="-0.00417">
        <ele>96.75</ele>
        <time>2010-04-04T07:33:41Z</time>
      </trkpt>
      <trkpt lat="47.33561" lon="-0.00394">
        <ele>95.31</ele>
        <time>2010-04-04T07:33:46Z</time>
      </trkpt>
      <trkpt lat="47.3355" lon="-0.00367">
        <ele>94.83</ele>
        <time>2010-04-04T07:33:52Z</time>
      </trkpt>
      <trkpt lat="47.33544" lon="-0.00352">
        <ele>96.27</ele>
        <time>2010-04-04T07:33:55Z</time>
      </trkpt>
      <trkpt lat="47.33536" lon="-0.00332">
        <ele>96.27</ele>
        <time>2010-04-04T07:33:59Z</time>
      </trkpt>
      <trkpt lat="47.33519" lon="-0.00317">
        <ele>96.75</ele>
        <time>2010-04-04T07:34:04Z</time>
      </trkpt>
      <trkpt lat="47.33497" lon="-0.00299">
        <ele>96.75</ele>
        <time>2010-04-04T07:34:10Z</time>
      </trkpt>
      <trkpt lat="47.33474" lon="-0.00288">
        <ele>96.27</ele>
        <time>2010-04-04T07:34:16Z</time>
      </trkpt>
      <trkpt lat="47.33458" lon="-0.00278">
        <ele>96.27</ele>
        <time>2010-04-04T07:34:22Z</time>
      </trkpt>
      <trkpt lat="47.33442" lon="-0.00253">
        <ele>96.27</ele>
        <time>2010-04-04T07:34:28Z</time>
      </trkpt>
      <trkpt lat="47.33437" lon="-0.00225">
        <ele>96.75</ele>
        <time>2010-04-04T07:34:34Z</time>
      </trkpt>
      <trkpt lat="47.3344" lon="-0.00208">
        <ele>97.71</ele>
        <time>2010-04-04T07:34:40Z</time>
      </trkpt>
      <trkpt lat="47.33441" lon="-0.00208">
        <ele>97.23</ele>
        <time>2010-04-04T07:34:41Z</time>
      </trkpt>
      <trkpt lat="47.33442" lon="-0.00208">
        <ele>98.67</ele>
        <time>2010-04-04T07:34:42Z</time>
      </trkpt>
      <trkpt lat="47.33444" lon="-0.00208">
        <ele>98.19</ele>
        <time>2010-04-04T07:34:43Z</time>
      </trkpt>
      <trkpt lat="47.33445" lon="-0.00208">
        <ele>96.75</ele>
        <time>2010-04-04T07:34:44Z</time>
      </trkpt>
      <trkpt lat="47.33447" lon="-0.00207">
        <ele>96.75</ele>
        <time>2010-04-04T07:34:45Z</time>
      </trkpt>
      <trkpt lat="47.33449" lon="-0.00207">
        <ele>97.23</ele>
        <time>2010-04-04T07:34:46Z</time>
      </trkpt>
      <trkpt lat="47.33452" lon="-0.00206">
        <ele>97.23</ele>
        <time>2010-04-04T07:34:47Z</time>
      </trkpt>
      <trkpt lat="47.33464" lon="-0.00206">
        <ele>96.75</ele>
        <time>2010-04-04T07:34:51Z</time>
      </trkpt>
      <trkpt lat="47.33478" lon="-0.002">
        <ele>97.23</ele>
        <time>2010-04-04T07:34:57Z</time>
      </trkpt>
      <trkpt lat="47.33495" lon="-0.00194">
        <ele>97.23</ele>
        <time>2010-04-04T07:35:03Z</time>
      </trkpt>
      <trkpt lat="47.33518" lon="-0.00191">
        <ele>96.27</ele>
        <time>2010-04-04T07:35:10Z</time>
      </trkpt>
      <trkpt lat="47.33548" lon="-0.00189">
        <ele>95.31</ele>
        <time>2010-04-04T07:35:18Z</time>
      </trkpt>
      <trkpt lat="47.33561" lon="-0.00187">
        <ele>94.83</ele>
        <time>2010-04-04T07:35:21Z</time>
      </trkpt>
      <trkpt lat="47.33565" lon="-0.00186">
        <ele>94.83</ele>
        <time>2010-04-04T07:35:22Z</time>
      </trkpt>
      <trkpt lat="47.33593" lon="-0.00177">
        <ele>92.9</ele>
        <time>2010-04-04T07:35:29Z</time>
      </trkpt>
      <trkpt lat="47.33594" lon="-0.00174">
        <ele>92.9</ele>
        <time>2010-04-04T07:35:30Z</time>
      </trkpt>
      <trkpt lat="47.33593" lon="-0.00171">
        <ele>93.87</ele>
        <time>2010-04-04T07:35:31Z</time>
      </trkpt>
      <trkpt lat="47.33592" lon="-0.00169">
        <ele>93.39</ele>
        <time>2010-04-04T07:35:32Z</time>
      </trkpt>
      <trkpt lat="47.33592" lon="-0.00168">
        <ele>92.9</ele>
        <time>2010-04-04T07:35:33Z</time>
      </trkpt>
      <trkpt lat="47.33591" lon="-0.00166">
        <ele>93.39</ele>
        <time>2010-04-04T07:35:34Z</time>
      </trkpt>
      <trkpt lat="47.3359" lon="-0.00165">
        <ele>93.87</ele>
        <time>2010-04-04T07:35:35Z</time>
      </trkpt>
      <trkpt lat="47.33589" lon="-0.00164">
        <ele>93.87</ele>
        <time>2010-04-04T07:35:36Z</time>
      </trkpt>
      <trkpt lat="47.33587" lon="-0.00162">
        <ele>93.87</ele>
        <time>2010-04-04T07:35:41Z</time>
      </trkpt>
      <trkpt lat="47.33584" lon="-0.00161">
        <ele>94.83</ele>
        <time>2010-04-04T07:35:45Z</time>
      </trkpt>
      <trkpt lat="47.33583" lon="-0.00161">
        <ele>92.9</ele>
        <time>2010-04-04T07:35:51Z</time>
      </trkpt>
      <trkpt lat="47.33576" lon="-0.00155">
        <ele>93.87</ele>
        <time>2010-04-04T07:35:58Z</time>
      </trkpt>
      <trkpt lat="47.33559" lon="-0.0014">
        <ele>94.83</ele>
        <time>2010-04-04T07:36:07Z</time>
      </trkpt>
      <trkpt lat="47.33544" lon="-0.00123">
        <ele>95.31</ele>
        <time>2010-04-04T07:36:14Z</time>
      </trkpt>
      <trkpt lat="47.33525" lon="-0.00105">
        <ele>96.27</ele>
        <time>2010-04-04T07:36:21Z</time>
      </trkpt>
      <trkpt lat="47.33503" lon="-0.00087">
        <ele>97.23</ele>
        <time>2010-04-04T07:36:28Z</time>
      </trkpt>
      <trkpt lat="47.33474" lon="-0.0006">
        <ele>98.19</ele>
        <time>2010-04-04T07:36:37Z</time>
      </trkpt>
      <trkpt lat="47.33451" lon="-0.00038">
        <ele>99.15</ele>
        <time>2010-04-04T07:36:44Z</time>
      </trkpt>
      <trkpt lat="47.33438" lon="-0.00025">
        <ele>101.08</ele>
        <time>2010-04-04T07:36:48Z</time>
      </trkpt>
      <trkpt lat="47.33425" lon="-0.0001">
        <ele>100.11</ele>
        <time>2010-04-04T07:36:53Z</time>
      </trkpt>
      <trkpt lat="47.33416" lon="-3.0E-5">
        <ele>99.63</ele>
        <time>2010-04-04T07:36:59Z</time>
      </trkpt>
      <trkpt lat="47.33408" lon="4.0E-5">
        <ele>99.15</ele>
        <time>2010-04-04T07:37:05Z</time>
      </trkpt>
      <trkpt lat="47.33407" lon="5.0E-5">
        <ele>99.63</ele>
        <time>2010-04-04T07:37:06Z</time>
      </trkpt>
      <trkpt lat="47.33403" lon="7.0E-5">
        <ele>98.67</ele>
        <time>2010-04-04T07:37:09Z</time>
      </trkpt>
      <trkpt lat="47.33399" lon="0.0001">
        <ele>100.11</ele>
        <time>2010-04-04T07:37:11Z</time>
      </trkpt>
      <trkpt lat="47.3339" lon="0.0002">
        <ele>99.63</ele>
        <time>2010-04-04T07:37:17Z</time>
      </trkpt>
      <trkpt lat="47.3338" lon="0.0003">
        <ele>100.11</ele>
        <time>2010-04-04T07:37:23Z</time>
      </trkpt>
      <trkpt lat="47.33369" lon="0.00039">
        <ele>100.11</ele>
        <time>2010-04-04T07:37:29Z</time>
      </trkpt>
      <trkpt lat="47.33355" lon="0.00051">
        <ele>99.15</ele>
        <time>2010-04-04T07:37:35Z</time>
      </trkpt>
      <trkpt lat="47.33342" lon="0.00065">
        <ele>99.63</ele>
        <time>2010-04-04T07:37:40Z</time>
      </trkpt>
      <trkpt lat="47.33325" lon="0.00082">
        <ele>100.6</ele>
        <time>2010-04-04T07:37:46Z</time>
      </trkpt>
      <trkpt lat="47.33314" lon="0.00094">
        <ele>100.11</ele>
        <time>2010-04-04T07:37:50Z</time>
      </trkpt>
      <trkpt lat="47.33291" lon="0.00115">
        <ele>101.56</ele>
        <time>2010-04-04T07:37:57Z</time>
      </trkpt>
      <trkpt lat="47.33274" lon="0.00132">
        <ele>103</ele>
        <time>2010-04-04T07:38:03Z</time>
      </trkpt>
      <trkpt lat="47.33256" lon="0.00148">
        <ele>103.48</ele>
        <time>2010-04-04T07:38:09Z</time>
      </trkpt>
      <trkpt lat="47.33242" lon="0.00164">
        <ele>104.44</ele>
        <time>2010-04-04T07:38:14Z</time>
      </trkpt>
      <trkpt lat="47.33222" lon="0.00185">
        <ele>104.44</ele>
        <time>2010-04-04T07:38:21Z</time>
      </trkpt>
      <trkpt lat="47.33207" lon="0.00197">
        <ele>104.92</ele>
        <time>2010-04-04T07:38:26Z</time>
      </trkpt>
      <trkpt lat="47.33184" lon="0.00219">
        <ele>104.44</ele>
        <time>2010-04-04T07:38:33Z</time>
      </trkpt>
      <trkpt lat="47.33168" lon="0.00234">
        <ele>104.92</ele>
        <time>2010-04-04T07:38:39Z</time>
      </trkpt>
      <trkpt lat="47.33156" lon="0.00246">
        <ele>105.88</ele>
        <time>2010-04-04T07:38:43Z</time>
      </trkpt>
      <trkpt lat="47.3314" lon="0.00261">
        <ele>104.92</ele>
        <time>2010-04-04T07:38:50Z</time>
      </trkpt>
      <trkpt lat="47.3313" lon="0.00269">
        <ele>105.4</ele>
        <time>2010-04-04T07:38:53Z</time>
      </trkpt>
      <trkpt lat="47.33126" lon="0.00272">
        <ele>104.92</ele>
        <time>2010-04-04T07:38:54Z</time>
      </trkpt>
      <trkpt lat="47.33117" lon="0.0028">
        <ele>103.96</ele>
        <time>2010-04-04T07:38:56Z</time>
      </trkpt>
      <trkpt lat="47.33113" lon="0.00285">
        <ele>103.48</ele>
        <time>2010-04-04T07:38:57Z</time>
      </trkpt>
      <trkpt lat="47.33097" lon="0.003">
        <ele>102.04</ele>
        <time>2010-04-04T07:39:01Z</time>
      </trkpt>
      <trkpt lat="47.33092" lon="0.00305">
        <ele>101.56</ele>
        <time>2010-04-04T07:39:02Z</time>
      </trkpt>
      <trkpt lat="47.33059" lon="0.00336">
        <ele>99.15</ele>
        <time>2010-04-04T07:39:08Z</time>
      </trkpt>
      <trkpt lat="47.33053" lon="0.00342">
        <ele>97.71</ele>
        <time>2010-04-04T07:39:09Z</time>
      </trkpt>
      <trkpt lat="47.33043" lon="0.00353">
        <ele>96.75</ele>
        <time>2010-04-04T07:39:11Z</time>
      </trkpt>
      <trkpt lat="47.33038" lon="0.0036">
        <ele>95.79</ele>
        <time>2010-04-04T07:39:12Z</time>
      </trkpt>
      <trkpt lat="47.33034" lon="0.00366">
        <ele>94.83</ele>
        <time>2010-04-04T07:39:13Z</time>
      </trkpt>
      <trkpt lat="47.33029" lon="0.00371">
        <ele>94.83</ele>
        <time>2010-04-04T07:39:14Z</time>
      </trkpt>
      <trkpt lat="47.33024" lon="0.00377">
        <ele>94.35</ele>
        <time>2010-04-04T07:39:15Z</time>
      </trkpt>
      <trkpt lat="47.33021" lon="0.00382">
        <ele>92.9</ele>
        <time>2010-04-04T07:39:16Z</time>
      </trkpt>
      <trkpt lat="47.33016" lon="0.00389">
        <ele>92.42</ele>
        <time>2010-04-04T07:39:17Z</time>
      </trkpt>
      <trkpt lat="47.33009" lon="0.00396">
        <ele>91.94</ele>
        <time>2010-04-04T07:39:18Z</time>
      </trkpt>
      <trkpt lat="47.33002" lon="0.00405">
        <ele>90.98</ele>
        <time>2010-04-04T07:39:19Z</time>
      </trkpt>
      <trkpt lat="47.32995" lon="0.00413">
        <ele>90.98</ele>
        <time>2010-04-04T07:39:20Z</time>
      </trkpt>
      <trkpt lat="47.32989" lon="0.0042">
        <ele>88.58</ele>
        <time>2010-04-04T07:39:21Z</time>
      </trkpt>
      <trkpt lat="47.32982" lon="0.00426">
        <ele>87.62</ele>
        <time>2010-04-04T07:39:22Z</time>
      </trkpt>
      <trkpt lat="47.32973" lon="0.0043">
        <ele>86.66</ele>
        <time>2010-04-04T07:39:23Z</time>
      </trkpt>
      <trkpt lat="47.32966" lon="0.00433">
        <ele>85.69</ele>
        <time>2010-04-04T07:39:24Z</time>
      </trkpt>
      <trkpt lat="47.32958" lon="0.00437">
        <ele>85.21</ele>
        <time>2010-04-04T07:39:25Z</time>
      </trkpt>
      <trkpt lat="47.32951" lon="0.0044">
        <ele>83.77</ele>
        <time>2010-04-04T07:39:26Z</time>
      </trkpt>
      <trkpt lat="47.32945" lon="0.00442">
        <ele>81.85</ele>
        <time>2010-04-04T07:39:27Z</time>
      </trkpt>
      <trkpt lat="47.3294" lon="0.00444">
        <ele>80.89</ele>
        <time>2010-04-04T07:39:28Z</time>
      </trkpt>
      <trkpt lat="47.32934" lon="0.00448">
        <ele>79.45</ele>
        <time>2010-04-04T07:39:30Z</time>
      </trkpt>
      <trkpt lat="47.32932" lon="0.0045">
        <ele>79.93</ele>
        <time>2010-04-04T07:39:31Z</time>
      </trkpt>
      <trkpt lat="47.32929" lon="0.00454">
        <ele>78</ele>
        <time>2010-04-04T07:39:32Z</time>
      </trkpt>
      <trkpt lat="47.3292" lon="0.00462">
        <ele>76.08</ele>
        <time>2010-04-04T07:39:36Z</time>
      </trkpt>
      <trkpt lat="47.32915" lon="0.00467">
        <ele>75.6</ele>
        <time>2010-04-04T07:39:44Z</time>
      </trkpt>
      <trkpt lat="47.32895" lon="0.00484">
        <ele>74.64</ele>
        <time>2010-04-04T07:39:49Z</time>
      </trkpt>
      <trkpt lat="47.32879" lon="0.00496">
        <ele>72.24</ele>
        <time>2010-04-04T07:39:52Z</time>
      </trkpt>
      <trkpt lat="47.32868" lon="0.00511">
        <ele>70.79</ele>
        <time>2010-04-04T07:39:55Z</time>
      </trkpt>
      <trkpt lat="47.32868" lon="0.00517">
        <ele>69.35</ele>
        <time>2010-04-04T07:39:56Z</time>
      </trkpt>
      <trkpt lat="47.32869" lon="0.00522">
        <ele>70.31</ele>
        <time>2010-04-04T07:39:57Z</time>
      </trkpt>
      <trkpt lat="47.32872" lon="0.00528">
        <ele>69.83</ele>
        <time>2010-04-04T07:39:58Z</time>
      </trkpt>
      <trkpt lat="47.32875" lon="0.00532">
        <ele>69.83</ele>
        <time>2010-04-04T07:39:59Z</time>
      </trkpt>
      <trkpt lat="47.32879" lon="0.00535">
        <ele>69.35</ele>
        <time>2010-04-04T07:40:00Z</time>
      </trkpt>
      <trkpt lat="47.32883" lon="0.00538">
        <ele>69.35</ele>
        <time>2010-04-04T07:40:01Z</time>
      </trkpt>
      <trkpt lat="47.32887" lon="0.00541">
        <ele>70.31</ele>
        <time>2010-04-04T07:40:02Z</time>
      </trkpt>
      <trkpt lat="47.32891" lon="0.00544">
        <ele>70.31</ele>
        <time>2010-04-04T07:40:03Z</time>
      </trkpt>
      <trkpt lat="47.32895" lon="0.00548">
        <ele>69.83</ele>
        <time>2010-04-04T07:40:04Z</time>
      </trkpt>
      <trkpt lat="47.32912" lon="0.00568">
        <ele>69.83</ele>
        <time>2010-04-04T07:40:09Z</time>
      </trkpt>
      <trkpt lat="47.32942" lon="0.00602">
        <ele>69.83</ele>
        <time>2010-04-04T07:40:18Z</time>
      </trkpt>
      <trkpt lat="47.32962" lon="0.00624">
        <ele>69.35</ele>
        <time>2010-04-04T07:40:24Z</time>
      </trkpt>
      <trkpt lat="47.32965" lon="0.00627">
        <ele>69.35</ele>
        <time>2010-04-04T07:40:25Z</time>
      </trkpt>
      <trkpt lat="47.32969" lon="0.00631">
        <ele>69.83</ele>
        <time>2010-04-04T07:40:26Z</time>
      </trkpt>
      <trkpt lat="47.32972" lon="0.00635">
        <ele>70.31</ele>
        <time>2010-04-04T07:40:27Z</time>
      </trkpt>
      <trkpt lat="47.32989" lon="0.00654">
        <ele>69.35</ele>
        <time>2010-04-04T07:40:32Z</time>
      </trkpt>
      <trkpt lat="47.33007" lon="0.00675">
        <ele>70.79</ele>
        <time>2010-04-04T07:40:38Z</time>
      </trkpt>
      <trkpt lat="47.33035" lon="0.00702">
        <ele>70.31</ele>
        <time>2010-04-04T07:40:46Z</time>
      </trkpt>
      <trkpt lat="47.3306" lon="0.00727">
        <ele>69.35</ele>
        <time>2010-04-04T07:40:53Z</time>
      </trkpt>
      <trkpt lat="47.33084" lon="0.00752">
        <ele>68.87</ele>
        <time>2010-04-04T07:41:00Z</time>
      </trkpt>
      <trkpt lat="47.33088" lon="0.00757">
        <ele>68.87</ele>
        <time>2010-04-04T07:41:01Z</time>
      </trkpt>
      <trkpt lat="47.33096" lon="0.00766">
        <ele>67.91</ele>
        <time>2010-04-04T07:41:03Z</time>
      </trkpt>
      <trkpt lat="47.33099" lon="0.0077">
        <ele>66.95</ele>
        <time>2010-04-04T07:41:04Z</time>
      </trkpt>
      <trkpt lat="47.33103" lon="0.00772">
        <ele>66.95</ele>
        <time>2010-04-04T07:41:05Z</time>
      </trkpt>
      <trkpt lat="47.33107" lon="0.00775">
        <ele>67.43</ele>
        <time>2010-04-04T07:41:06Z</time>
      </trkpt>
      <trkpt lat="47.33111" lon="0.00779">
        <ele>67.43</ele>
        <time>2010-04-04T07:41:07Z</time>
      </trkpt>
      <trkpt lat="47.33115" lon="0.00783">
        <ele>66.47</ele>
        <time>2010-04-04T07:41:08Z</time>
      </trkpt>
      <trkpt lat="47.33119" lon="0.00787">
        <ele>65.51</ele>
        <time>2010-04-04T07:41:09Z</time>
      </trkpt>
      <trkpt lat="47.3313" lon="0.00802">
        <ele>65.99</ele>
        <time>2010-04-04T07:41:12Z</time>
      </trkpt>
      <trkpt lat="47.33136" lon="0.00814">
        <ele>64.07</ele>
        <time>2010-04-04T07:41:14Z</time>
      </trkpt>
      <trkpt lat="47.33139" lon="0.0082">
        <ele>64.55</ele>
        <time>2010-04-04T07:41:15Z</time>
      </trkpt>
      <trkpt lat="47.33148" lon="0.00842">
        <ele>63.1</ele>
        <time>2010-04-04T07:41:19Z</time>
      </trkpt>
      <trkpt lat="47.33152" lon="0.00847">
        <ele>62.62</ele>
        <time>2010-04-04T07:41:20Z</time>
      </trkpt>
      <trkpt lat="47.33164" lon="0.00863">
        <ele>61.66</ele>
        <time>2010-04-04T07:41:23Z</time>
      </trkpt>
      <trkpt lat="47.33173" lon="0.00872">
        <ele>61.18</ele>
        <time>2010-04-04T07:41:25Z</time>
      </trkpt>
      <trkpt lat="47.33178" lon="0.00876">
        <ele>60.22</ele>
        <time>2010-04-04T07:41:26Z</time>
      </trkpt>
      <trkpt lat="47.33182" lon="0.00881">
        <ele>60.22</ele>
        <time>2010-04-04T07:41:27Z</time>
      </trkpt>
      <trkpt lat="47.33186" lon="0.00886">
        <ele>60.7</ele>
        <time>2010-04-04T07:41:28Z</time>
      </trkpt>
      <trkpt lat="47.33191" lon="0.00889">
        <ele>60.22</ele>
        <time>2010-04-04T07:41:29Z</time>
      </trkpt>
      <trkpt lat="47.33197" lon="0.00892">
        <ele>60.22</ele>
        <time>2010-04-04T07:41:30Z</time>
      </trkpt>
      <trkpt lat="47.33202" lon="0.00897">
        <ele>59.74</ele>
        <time>2010-04-04T07:41:31Z</time>
      </trkpt>
      <trkpt lat="47.33206" lon="0.00901">
        <ele>59.74</ele>
        <time>2010-04-04T07:41:32Z</time>
      </trkpt>
      <trkpt lat="47.3321" lon="0.00905">
        <ele>59.26</ele>
        <time>2010-04-04T07:41:33Z</time>
      </trkpt>
      <trkpt lat="47.33215" lon="0.00909">
        <ele>60.22</ele>
        <time>2010-04-04T07:41:34Z</time>
      </trkpt>
      <trkpt lat="47.33247" lon="0.00929">
        <ele>57.82</ele>
        <time>2010-04-04T07:41:41Z</time>
      </trkpt>
      <trkpt lat="47.33264" lon="0.00946">
        <ele>57.34</ele>
        <time>2010-04-04T07:41:46Z</time>
      </trkpt>
      <trkpt lat="47.33267" lon="0.00951">
        <ele>56.37</ele>
        <time>2010-04-04T07:41:47Z</time>
      </trkpt>
      <trkpt lat="47.33271" lon="0.00956">
        <ele>56.86</ele>
        <time>2010-04-04T07:41:48Z</time>
      </trkpt>
      <trkpt lat="47.33275" lon="0.00961">
        <ele>56.86</ele>
        <time>2010-04-04T07:41:49Z</time>
      </trkpt>
      <trkpt lat="47.33279" lon="0.00966">
        <ele>57.34</ele>
        <time>2010-04-04T07:41:50Z</time>
      </trkpt>
      <trkpt lat="47.33282" lon="0.00971">
        <ele>56.37</ele>
        <time>2010-04-04T07:41:51Z</time>
      </trkpt>
      <trkpt lat="47.33298" lon="0.00991">
        <ele>54.93</ele>
        <time>2010-04-04T07:41:55Z</time>
      </trkpt>
      <trkpt lat="47.33318" lon="0.01014">
        <ele>53.97</ele>
        <time>2010-04-04T07:42:00Z</time>
      </trkpt>
      <trkpt lat="47.33321" lon="0.01019">
        <ele>54.93</ele>
        <time>2010-04-04T07:42:01Z</time>
      </trkpt>
      <trkpt lat="47.33323" lon="0.01025">
        <ele>54.45</ele>
        <time>2010-04-04T07:42:02Z</time>
      </trkpt>
      <trkpt lat="47.33324" lon="0.01031">
        <ele>53.97</ele>
        <time>2010-04-04T07:42:03Z</time>
      </trkpt>
      <trkpt lat="47.33325" lon="0.01037">
        <ele>53.49</ele>
        <time>2010-04-04T07:42:04Z</time>
      </trkpt>
      <trkpt lat="47.33323" lon="0.01043">
        <ele>53.01</ele>
        <time>2010-04-04T07:42:05Z</time>
      </trkpt>
      <trkpt lat="47.3332" lon="0.01051">
        <ele>53.49</ele>
        <time>2010-04-04T07:42:06Z</time>
      </trkpt>
      <trkpt lat="47.33315" lon="0.01065">
        <ele>52.05</ele>
        <time>2010-04-04T07:42:08Z</time>
      </trkpt>
      <trkpt lat="47.33313" lon="0.01071">
        <ele>51.57</ele>
        <time>2010-04-04T07:42:09Z</time>
      </trkpt>
      <trkpt lat="47.33308" lon="0.01082">
        <ele>52.05</ele>
        <time>2010-04-04T07:42:11Z</time>
      </trkpt>
      <trkpt lat="47.33305" lon="0.01087">
        <ele>52.05</ele>
        <time>2010-04-04T07:42:12Z</time>
      </trkpt>
      <trkpt lat="47.333" lon="0.01097">
        <ele>51.09</ele>
        <time>2010-04-04T07:42:16Z</time>
      </trkpt>
      <trkpt lat="47.33293" lon="0.01105">
        <ele>50.13</ele>
        <time>2010-04-04T07:42:20Z</time>
      </trkpt>
      <trkpt lat="47.33293" lon="0.01108">
        <ele>51.09</ele>
        <time>2010-04-04T07:42:21Z</time>
      </trkpt>
      <trkpt lat="47.33294" lon="0.01111">
        <ele>51.09</ele>
        <time>2010-04-04T07:42:22Z</time>
      </trkpt>
      <trkpt lat="47.33296" lon="0.01113">
        <ele>51.09</ele>
        <time>2010-04-04T07:42:23Z</time>
      </trkpt>
      <trkpt lat="47.33298" lon="0.01115">
        <ele>51.09</ele>
        <time>2010-04-04T07:42:24Z</time>
      </trkpt>
      <trkpt lat="47.33299" lon="0.01116">
        <ele>50.61</ele>
        <time>2010-04-04T07:42:25Z</time>
      </trkpt>
      <trkpt lat="47.33304" lon="0.01121">
        <ele>51.09</ele>
        <time>2010-04-04T07:42:31Z</time>
      </trkpt>
      <trkpt lat="47.33311" lon="0.01127">
        <ele>49.65</ele>
        <time>2010-04-04T07:42:38Z</time>
      </trkpt>
      <trkpt lat="47.33324" lon="0.01138">
        <ele>50.13</ele>
        <time>2010-04-04T07:42:45Z</time>
      </trkpt>
      <trkpt lat="47.33337" lon="0.01147">
        <ele>51.09</ele>
        <time>2010-04-04T07:42:51Z</time>
      </trkpt>
      <trkpt lat="47.33343" lon="0.01166">
        <ele>51.09</ele>
        <time>2010-04-04T07:42:57Z</time>
      </trkpt>
      <trkpt lat="47.33341" lon="0.01189">
        <ele>50.13</ele>
        <time>2010-04-04T07:43:03Z</time>
      </trkpt>
      <trkpt lat="47.33328" lon="0.01225">
        <ele>49.65</ele>
        <time>2010-04-04T07:43:10Z</time>
      </trkpt>
      <trkpt lat="47.33307" lon="0.01276">
        <ele>48.2</ele>
        <time>2010-04-04T07:43:18Z</time>
      </trkpt>
      <trkpt lat="47.3329" lon="0.01323">
        <ele>45.8</ele>
        <time>2010-04-04T07:43:24Z</time>
      </trkpt>
      <trkpt lat="47.33264" lon="0.01395">
        <ele>43.4</ele>
        <time>2010-04-04T07:43:33Z</time>
      </trkpt>
      <trkpt lat="47.33262" lon="0.01403">
        <ele>42.92</ele>
        <time>2010-04-04T07:43:34Z</time>
      </trkpt>
      <trkpt lat="47.33261" lon="0.01411">
        <ele>43.88</ele>
        <time>2010-04-04T07:43:35Z</time>
      </trkpt>
      <trkpt lat="47.33261" lon="0.01419">
        <ele>43.88</ele>
        <time>2010-04-04T07:43:36Z</time>
      </trkpt>
      <trkpt lat="47.33261" lon="0.01427">
        <ele>43.88</ele>
        <time>2010-04-04T07:43:37Z</time>
      </trkpt>
      <trkpt lat="47.33263" lon="0.01435">
        <ele>42.92</ele>
        <time>2010-04-04T07:43:38Z</time>
      </trkpt>
      <trkpt lat="47.33265" lon="0.01442">
        <ele>42.92</ele>
        <time>2010-04-04T07:43:39Z</time>
      </trkpt>
      <trkpt lat="47.33268" lon="0.01448">
        <ele>43.88</ele>
        <time>2010-04-04T07:43:40Z</time>
      </trkpt>
      <trkpt lat="47.33271" lon="0.01454">
        <ele>43.88</ele>
        <time>2010-04-04T07:43:41Z</time>
      </trkpt>
      <trkpt lat="47.33275" lon="0.0146">
        <ele>43.88</ele>
        <time>2010-04-04T07:43:42Z</time>
      </trkpt>
      <trkpt lat="47.33281" lon="0.01473">
        <ele>42.92</ele>
        <time>2010-04-04T07:43:44Z</time>
      </trkpt>
      <trkpt lat="47.33284" lon="0.01481">
        <ele>43.88</ele>
        <time>2010-04-04T07:43:45Z</time>
      </trkpt>
      <trkpt lat="47.33286" lon="0.01489">
        <ele>43.4</ele>
        <time>2010-04-04T07:43:46Z</time>
      </trkpt>
      <trkpt lat="47.33288" lon="0.01498">
        <ele>43.4</ele>
        <time>2010-04-04T07:43:47Z</time>
      </trkpt>
      <trkpt lat="47.33288" lon="0.01507">
        <ele>42.92</ele>
        <time>2010-04-04T07:43:48Z</time>
      </trkpt>
      <trkpt lat="47.33288" lon="0.01517">
        <ele>42.92</ele>
        <time>2010-04-04T07:43:49Z</time>
      </trkpt>
      <trkpt lat="47.33287" lon="0.01526">
        <ele>43.88</ele>
        <time>2010-04-04T07:43:50Z</time>
      </trkpt>
      <trkpt lat="47.33286" lon="0.01535">
        <ele>43.4</ele>
        <time>2010-04-04T07:43:51Z</time>
      </trkpt>
      <trkpt lat="47.33285" lon="0.01544">
        <ele>43.4</ele>
        <time>2010-04-04T07:43:52Z</time>
      </trkpt>
      <trkpt lat="47.3328" lon="0.01611">
        <ele>42.92</ele>
        <time>2010-04-04T07:43:59Z</time>
      </trkpt>
      <trkpt lat="47.33282" lon="0.01685">
        <ele>43.4</ele>
        <time>2010-04-04T07:44:07Z</time>
      </trkpt>
      <trkpt lat="47.33281" lon="0.01716">
        <ele>42.92</ele>
        <time>2010-04-04T07:44:11Z</time>
      </trkpt>
      <trkpt lat="47.33283" lon="0.01721">
        <ele>43.4</ele>
        <time>2010-04-04T07:44:12Z</time>
      </trkpt>
      <trkpt lat="47.33286" lon="0.01724">
        <ele>42.92</ele>
        <time>2010-04-04T07:44:13Z</time>
      </trkpt>
      <trkpt lat="47.3329" lon="0.01725">
        <ele>42.44</ele>
        <time>2010-04-04T07:44:14Z</time>
      </trkpt>
      <trkpt lat="47.33294" lon="0.01725">
        <ele>42.44</ele>
        <time>2010-04-04T07:44:15Z</time>
      </trkpt>
      <trkpt lat="47.33298" lon="0.01724">
        <ele>42.92</ele>
        <time>2010-04-04T07:44:16Z</time>
      </trkpt>
      <trkpt lat="47.33335" lon="0.01714">
        <ele>44.36</ele>
        <time>2010-04-04T07:44:24Z</time>
      </trkpt>
      <trkpt lat="47.33344" lon="0.01714">
        <ele>43.4</ele>
        <time>2010-04-04T07:44:26Z</time>
      </trkpt>
      <trkpt lat="47.33347" lon="0.01716">
        <ele>44.36</ele>
        <time>2010-04-04T07:44:27Z</time>
      </trkpt>
      <trkpt lat="47.3335" lon="0.0172">
        <ele>43.4</ele>
        <time>2010-04-04T07:44:28Z</time>
      </trkpt>
      <trkpt lat="47.33361" lon="0.01741">
        <ele>43.4</ele>
        <time>2010-04-04T07:44:32Z</time>
      </trkpt>
      <trkpt lat="47.33364" lon="0.01747">
        <ele>43.88</ele>
        <time>2010-04-04T07:44:33Z</time>
      </trkpt>
      <trkpt lat="47.33368" lon="0.01752">
        <ele>43.4</ele>
        <time>2010-04-04T07:44:34Z</time>
      </trkpt>
      <trkpt lat="47.33374" lon="0.01765">
        <ele>44.84</ele>
        <time>2010-04-04T07:44:36Z</time>
      </trkpt>
      <trkpt lat="47.33378" lon="0.01771">
        <ele>44.36</ele>
        <time>2010-04-04T07:44:37Z</time>
      </trkpt>
      <trkpt lat="47.33381" lon="0.01777">
        <ele>43.88</ele>
        <time>2010-04-04T07:44:38Z</time>
      </trkpt>
      <trkpt lat="47.33412" lon="0.01834">
        <ele>43.4</ele>
        <time>2010-04-04T07:44:47Z</time>
      </trkpt>
      <trkpt lat="47.33415" lon="0.01839">
        <ele>43.4</ele>
        <time>2010-04-04T07:44:48Z</time>
      </trkpt>
      <trkpt lat="47.33417" lon="0.01844">
        <ele>43.88</ele>
        <time>2010-04-04T07:44:49Z</time>
      </trkpt>
      <trkpt lat="47.3342" lon="0.01848">
        <ele>42.92</ele>
        <time>2010-04-04T07:44:50Z</time>
      </trkpt>
      <trkpt lat="47.33423" lon="0.01852">
        <ele>42.44</ele>
        <time>2010-04-04T07:44:51Z</time>
      </trkpt>
      <trkpt lat="47.33437" lon="0.01874">
        <ele>42.92</ele>
        <time>2010-04-04T07:44:56Z</time>
      </trkpt>
      <trkpt lat="47.33442" lon="0.01883">
        <ele>43.88</ele>
        <time>2010-04-04T07:44:58Z</time>
      </trkpt>
      <trkpt lat="47.33451" lon="0.01905">
        <ele>45.8</ele>
        <time>2010-04-04T07:45:04Z</time>
      </trkpt>
      <trkpt lat="47.33454" lon="0.01912">
        <ele>43.88</ele>
        <time>2010-04-04T07:45:07Z</time>
      </trkpt>
      <trkpt lat="47.3346" lon="0.01909">
        <ele>45.32</ele>
        <time>2010-04-04T07:45:10Z</time>
      </trkpt>
      <trkpt lat="47.33463" lon="0.01909">
        <ele>44.84</ele>
        <time>2010-04-04T07:45:11Z</time>
      </trkpt>
      <trkpt lat="47.33468" lon="0.01948">
        <ele>46.28</ele>
        <time>2010-04-04T07:45:20Z</time>
      </trkpt>
      <trkpt lat="47.33456" lon="0.0196">
        <ele>46.76</ele>
        <time>2010-04-04T07:45:26Z</time>
      </trkpt>
      <trkpt lat="47.33435" lon="0.01982">
        <ele>47.24</ele>
        <time>2010-04-04T07:45:33Z</time>
      </trkpt>
      <trkpt lat="47.33429" lon="0.01994">
        <ele>46.76</ele>
        <time>2010-04-04T07:45:36Z</time>
      </trkpt>
      <trkpt lat="47.3343" lon="0.01999">
        <ele>47.72</ele>
        <time>2010-04-04T07:45:37Z</time>
      </trkpt>
      <trkpt lat="47.33432" lon="0.02002">
        <ele>47.24</ele>
        <time>2010-04-04T07:45:38Z</time>
      </trkpt>
      <trkpt lat="47.33435" lon="0.02005">
        <ele>48.2</ele>
        <time>2010-04-04T07:45:39Z</time>
      </trkpt>
      <trkpt lat="47.33438" lon="0.02008">
        <ele>48.68</ele>
        <time>2010-04-04T07:45:40Z</time>
      </trkpt>
      <trkpt lat="47.33441" lon="0.02012">
        <ele>47.24</ele>
        <time>2010-04-04T07:45:41Z</time>
      </trkpt>
      <trkpt lat="47.33465" lon="0.02047">
        <ele>49.16</ele>
        <time>2010-04-04T07:45:49Z</time>
      </trkpt>
      <trkpt lat="47.33495" lon="0.0209">
        <ele>50.13</ele>
        <time>2010-04-04T07:45:59Z</time>
      </trkpt>
      <trkpt lat="47.33509" lon="0.02112">
        <ele>49.65</ele>
        <time>2010-04-04T07:46:04Z</time>
      </trkpt>
      <trkpt lat="47.33515" lon="0.0212">
        <ele>50.61</ele>
        <time>2010-04-04T07:46:06Z</time>
      </trkpt>
      <trkpt lat="47.33524" lon="0.02132">
        <ele>51.57</ele>
        <time>2010-04-04T07:46:09Z</time>
      </trkpt>
      <trkpt lat="47.33525" lon="0.02137">
        <ele>51.57</ele>
        <time>2010-04-04T07:46:10Z</time>
      </trkpt>
      <trkpt lat="47.33525" lon="0.02142">
        <ele>51.09</ele>
        <time>2010-04-04T07:46:11Z</time>
      </trkpt>
      <trkpt lat="47.33523" lon="0.02147">
        <ele>50.61</ele>
        <time>2010-04-04T07:46:12Z</time>
      </trkpt>
      <trkpt lat="47.3352" lon="0.02151">
        <ele>51.09</ele>
        <time>2010-04-04T07:46:13Z</time>
      </trkpt>
      <trkpt lat="47.33516" lon="0.02154">
        <ele>51.09</ele>
        <time>2010-04-04T07:46:14Z</time>
      </trkpt>
      <trkpt lat="47.33491" lon="0.02182">
        <ele>50.61</ele>
        <time>2010-04-04T07:46:21Z</time>
      </trkpt>
      <trkpt lat="47.33489" lon="0.02187">
        <ele>51.09</ele>
        <time>2010-04-04T07:46:22Z</time>
      </trkpt>
      <trkpt lat="47.33488" lon="0.02192">
        <ele>51.57</ele>
        <time>2010-04-04T07:46:23Z</time>
      </trkpt>
      <trkpt lat="47.33488" lon="0.02198">
        <ele>50.61</ele>
        <time>2010-04-04T07:46:24Z</time>
      </trkpt>
      <trkpt lat="47.33491" lon="0.02203">
        <ele>50.61</ele>
        <time>2010-04-04T07:46:25Z</time>
      </trkpt>
      <trkpt lat="47.33494" lon="0.02207">
        <ele>51.57</ele>
        <time>2010-04-04T07:46:26Z</time>
      </trkpt>
      <trkpt lat="47.33497" lon="0.0221">
        <ele>50.13</ele>
        <time>2010-04-04T07:46:27Z</time>
      </trkpt>
      <trkpt lat="47.33501" lon="0.02212">
        <ele>51.57</ele>
        <time>2010-04-04T07:46:28Z</time>
      </trkpt>
      <trkpt lat="47.33505" lon="0.02215">
        <ele>52.05</ele>
        <time>2010-04-04T07:46:29Z</time>
      </trkpt>
      <trkpt lat="47.33513" lon="0.0222">
        <ele>52.05</ele>
        <time>2010-04-04T07:46:31Z</time>
      </trkpt>
      <trkpt lat="47.33518" lon="0.02223">
        <ele>52.05</ele>
        <time>2010-04-04T07:46:32Z</time>
      </trkpt>
      <trkpt lat="47.3353" lon="0.02231">
        <ele>52.05</ele>
        <time>2010-04-04T07:46:35Z</time>
      </trkpt>
      <trkpt lat="47.33535" lon="0.02232">
        <ele>51.57</ele>
        <time>2010-04-04T07:46:36Z</time>
      </trkpt>
      <trkpt lat="47.33544" lon="0.02235">
        <ele>53.01</ele>
        <time>2010-04-04T07:46:38Z</time>
      </trkpt>
      <trkpt lat="47.33561" lon="0.02243">
        <ele>51.57</ele>
        <time>2010-04-04T07:46:42Z</time>
      </trkpt>
      <trkpt lat="47.33569" lon="0.02246">
        <ele>52.05</ele>
        <time>2010-04-04T07:46:44Z</time>
      </trkpt>
      <trkpt lat="47.33582" lon="0.0225">
        <ele>52.53</ele>
        <time>2010-04-04T07:46:47Z</time>
      </trkpt>
      <trkpt lat="47.33587" lon="0.02252">
        <ele>51.57</ele>
        <time>2010-04-04T07:46:48Z</time>
      </trkpt>
      <trkpt lat="47.33591" lon="0.02255">
        <ele>52.53</ele>
        <time>2010-04-04T07:46:49Z</time>
      </trkpt>
      <trkpt lat="47.33613" lon="0.02273">
        <ele>52.05</ele>
        <time>2010-04-04T07:46:55Z</time>
      </trkpt>
      <trkpt lat="47.33641" lon="0.02299">
        <ele>52.53</ele>
        <time>2010-04-04T07:47:03Z</time>
      </trkpt>
      <trkpt lat="47.33664" lon="0.02325">
        <ele>52.05</ele>
        <time>2010-04-04T07:47:10Z</time>
      </trkpt>
      <trkpt lat="47.33689" lon="0.02358">
        <ele>52.53</ele>
        <time>2010-04-04T07:47:19Z</time>
      </trkpt>
      <trkpt lat="47.33715" lon="0.02391">
        <ele>53.01</ele>
        <time>2010-04-04T07:47:28Z</time>
      </trkpt>
      <trkpt lat="47.33727" lon="0.02402">
        <ele>53.49</ele>
        <time>2010-04-04T07:47:33Z</time>
      </trkpt>
      <trkpt lat="47.33737" lon="0.02417">
        <ele>54.45</ele>
        <time>2010-04-04T07:47:38Z</time>
      </trkpt>
      <trkpt lat="47.33748" lon="0.0243">
        <ele>55.41</ele>
        <time>2010-04-04T07:47:42Z</time>
      </trkpt>
      <trkpt lat="47.33765" lon="0.02453">
        <ele>55.89</ele>
        <time>2010-04-04T07:47:49Z</time>
      </trkpt>
      <trkpt lat="47.33773" lon="0.02464">
        <ele>56.37</ele>
        <time>2010-04-04T07:47:53Z</time>
      </trkpt>
      <trkpt lat="47.33775" lon="0.02465">
        <ele>55.89</ele>
        <time>2010-04-04T07:47:54Z</time>
      </trkpt>
      <trkpt lat="47.33791" lon="0.02489">
        <ele>58.3</ele>
        <time>2010-04-04T07:48:00Z</time>
      </trkpt>
      <trkpt lat="47.33795" lon="0.02503">
        <ele>56.86</ele>
        <time>2010-04-04T07:48:02Z</time>
      </trkpt>
      <trkpt lat="47.33809" lon="0.02534">
        <ele>57.82</ele>
        <time>2010-04-04T07:48:09Z</time>
      </trkpt>
      <trkpt lat="47.33816" lon="0.02544">
        <ele>57.34</ele>
        <time>2010-04-04T07:48:12Z</time>
      </trkpt>
      <trkpt lat="47.33816" lon="0.02548">
        <ele>56.86</ele>
        <time>2010-04-04T07:48:13Z</time>
      </trkpt>
      <trkpt lat="47.33815" lon="0.02553">
        <ele>57.34</ele>
        <time>2010-04-04T07:48:14Z</time>
      </trkpt>
      <trkpt lat="47.33815" lon="0.02557">
        <ele>58.3</ele>
        <time>2010-04-04T07:48:15Z</time>
      </trkpt>
      <trkpt lat="47.33816" lon="0.0256">
        <ele>58.78</ele>
        <time>2010-04-04T07:48:16Z</time>
      </trkpt>
      <trkpt lat="47.33818" lon="0.02564">
        <ele>58.3</ele>
        <time>2010-04-04T07:48:17Z</time>
      </trkpt>
      <trkpt lat="47.3382" lon="0.02568">
        <ele>57.82</ele>
        <time>2010-04-04T07:48:18Z</time>
      </trkpt>
      <trkpt lat="47.33822" lon="0.02573">
        <ele>57.82</ele>
        <time>2010-04-04T07:48:19Z</time>
      </trkpt>
      <trkpt lat="47.3384" lon="0.02599">
        <ele>59.26</ele>
        <time>2010-04-04T07:48:25Z</time>
      </trkpt>
      <trkpt lat="47.33862" lon="0.02628">
        <ele>60.22</ele>
        <time>2010-04-04T07:48:32Z</time>
      </trkpt>
      <trkpt lat="47.33873" lon="0.02651">
        <ele>59.74</ele>
        <time>2010-04-04T07:48:37Z</time>
      </trkpt>
      <trkpt lat="47.33885" lon="0.02683">
        <ele>58.78</ele>
        <time>2010-04-04T07:48:43Z</time>
      </trkpt>
      <trkpt lat="47.33895" lon="0.02705">
        <ele>57.82</ele>
        <time>2010-04-04T07:48:49Z</time>
      </trkpt>
      <trkpt lat="47.33899" lon="0.02713">
        <ele>58.3</ele>
        <time>2010-04-04T07:48:52Z</time>
      </trkpt>
      <trkpt lat="47.33905" lon="0.02719">
        <ele>59.26</ele>
        <time>2010-04-04T07:48:56Z</time>
      </trkpt>
      <trkpt lat="47.33907" lon="0.0272">
        <ele>59.74</ele>
        <time>2010-04-04T07:48:57Z</time>
      </trkpt>
      <trkpt lat="47.33928" lon="0.02726">
        <ele>59.74</ele>
        <time>2010-04-04T07:49:03Z</time>
      </trkpt>
      <trkpt lat="47.33932" lon="0.02727">
        <ele>60.22</ele>
        <time>2010-04-04T07:49:04Z</time>
      </trkpt>
      <trkpt lat="47.33936" lon="0.0273">
        <ele>59.26</ele>
        <time>2010-04-04T07:49:05Z</time>
      </trkpt>
      <trkpt lat="47.33958" lon="0.02742">
        <ele>60.7</ele>
        <time>2010-04-04T07:49:10Z</time>
      </trkpt>
      <trkpt lat="47.33971" lon="0.02752">
        <ele>60.7</ele>
        <time>2010-04-04T07:49:14Z</time>
      </trkpt>
      <trkpt lat="47.33978" lon="0.02757">
        <ele>60.7</ele>
        <time>2010-04-04T07:49:16Z</time>
      </trkpt>
      <trkpt lat="47.33984" lon="0.02758">
        <ele>61.18</ele>
        <time>2010-04-04T07:49:17Z</time>
      </trkpt>
      <trkpt lat="47.34007" lon="0.02769">
        <ele>61.66</ele>
        <time>2010-04-04T07:49:23Z</time>
      </trkpt>
      <trkpt lat="47.34011" lon="0.02771">
        <ele>61.18</ele>
        <time>2010-04-04T07:49:24Z</time>
      </trkpt>
      <trkpt lat="47.34038" lon="0.02788">
        <ele>62.14</ele>
        <time>2010-04-04T07:49:32Z</time>
      </trkpt>
      <trkpt lat="47.34045" lon="0.02794">
        <ele>62.62</ele>
        <time>2010-04-04T07:49:35Z</time>
      </trkpt>
      <trkpt lat="47.34047" lon="0.02796">
        <ele>62.62</ele>
        <time>2010-04-04T07:49:36Z</time>
      </trkpt>
      <trkpt lat="47.34051" lon="0.02796">
        <ele>61.66</ele>
        <time>2010-04-04T07:49:37Z</time>
      </trkpt>
      <trkpt lat="47.34054" lon="0.02797">
        <ele>62.14</ele>
        <time>2010-04-04T07:49:38Z</time>
      </trkpt>
      <trkpt lat="47.34057" lon="0.02798">
        <ele>64.07</ele>
        <time>2010-04-04T07:49:39Z</time>
      </trkpt>
      <trkpt lat="47.34059" lon="0.028">
        <ele>63.1</ele>
        <time>2010-04-04T07:49:40Z</time>
      </trkpt>
      <trkpt lat="47.34061" lon="0.02803">
        <ele>62.62</ele>
        <time>2010-04-04T07:49:41Z</time>
      </trkpt>
      <trkpt lat="47.34064" lon="0.02804">
        <ele>63.1</ele>
        <time>2010-04-04T07:49:42Z</time>
      </trkpt>
      <trkpt lat="47.34066" lon="0.02805">
        <ele>65.03</ele>
        <time>2010-04-04T07:49:43Z</time>
      </trkpt>
      <trkpt lat="47.34068" lon="0.02806">
        <ele>63.58</ele>
        <time>2010-04-04T07:49:44Z</time>
      </trkpt>
      <trkpt lat="47.34071" lon="0.02807">
        <ele>62.14</ele>
        <time>2010-04-04T07:49:45Z</time>
      </trkpt>
      <trkpt lat="47.34074" lon="0.02808">
        <ele>62.62</ele>
        <time>2010-04-04T07:49:46Z</time>
      </trkpt>
      <trkpt lat="47.34091" lon="0.02815">
        <ele>64.07</ele>
        <time>2010-04-04T07:49:52Z</time>
      </trkpt>
      <trkpt lat="47.3411" lon="0.02824">
        <ele>64.55</ele>
        <time>2010-04-04T07:49:58Z</time>
      </trkpt>
      <trkpt lat="47.34126" lon="0.02833">
        <ele>64.55</ele>
        <time>2010-04-04T07:50:03Z</time>
      </trkpt>
      <trkpt lat="47.34129" lon="0.02834">
        <ele>65.03</ele>
        <time>2010-04-04T07:50:04Z</time>
      </trkpt>
      <trkpt lat="47.34132" lon="0.02835">
        <ele>65.03</ele>
        <time>2010-04-04T07:50:05Z</time>
      </trkpt>
      <trkpt lat="47.34148" lon="0.02851">
        <ele>65.51</ele>
        <time>2010-04-04T07:50:11Z</time>
      </trkpt>
      <trkpt lat="47.3416" lon="0.02865">
        <ele>67.43</ele>
        <time>2010-04-04T07:50:16Z</time>
      </trkpt>
      <trkpt lat="47.34167" lon="0.02866">
        <ele>65.51</ele>
        <time>2010-04-04T07:50:18Z</time>
      </trkpt>
      <trkpt lat="47.3418" lon="0.02877">
        <ele>66.95</ele>
        <time>2010-04-04T07:50:23Z</time>
      </trkpt>
      <trkpt lat="47.34183" lon="0.02877">
        <ele>66.95</ele>
        <time>2010-04-04T07:50:24Z</time>
      </trkpt>
      <trkpt lat="47.34186" lon="0.02878">
        <ele>67.91</ele>
        <time>2010-04-04T07:50:25Z</time>
      </trkpt>
      <trkpt lat="47.34204" lon="0.02891">
        <ele>68.39</ele>
        <time>2010-04-04T07:50:30Z</time>
      </trkpt>
      <trkpt lat="47.34213" lon="0.02901">
        <ele>68.39</ele>
        <time>2010-04-04T07:50:33Z</time>
      </trkpt>
      <trkpt lat="47.34215" lon="0.02905">
        <ele>66.47</ele>
        <time>2010-04-04T07:50:34Z</time>
      </trkpt>
      <trkpt lat="47.34218" lon="0.02908">
        <ele>67.43</ele>
        <time>2010-04-04T07:50:35Z</time>
      </trkpt>
      <trkpt lat="47.3423" lon="0.02931">
        <ele>67.43</ele>
        <time>2010-04-04T07:50:40Z</time>
      </trkpt>
      <trkpt lat="47.34231" lon="0.02935">
        <ele>66.47</ele>
        <time>2010-04-04T07:50:41Z</time>
      </trkpt>
      <trkpt lat="47.34246" lon="0.0294">
        <ele>67.43</ele>
        <time>2010-04-04T07:50:46Z</time>
      </trkpt>
      <trkpt lat="47.34262" lon="0.02967">
        <ele>67.91</ele>
        <time>2010-04-04T07:50:51Z</time>
      </trkpt>
      <trkpt lat="47.34276" lon="0.03004">
        <ele>66.47</ele>
        <time>2010-04-04T07:50:57Z</time>
      </trkpt>
      <trkpt lat="47.34293" lon="0.03026">
        <ele>66.95</ele>
        <time>2010-04-04T07:51:03Z</time>
      </trkpt>
      <trkpt lat="47.34296" lon="0.03027">
        <ele>66.47</ele>
        <time>2010-04-04T07:51:04Z</time>
      </trkpt>
      <trkpt lat="47.34298" lon="0.03029">
        <ele>66.47</ele>
        <time>2010-04-04T07:51:05Z</time>
      </trkpt>
      <trkpt lat="47.343" lon="0.03031">
        <ele>66.47</ele>
        <time>2010-04-04T07:51:06Z</time>
      </trkpt>
      <trkpt lat="47.34301" lon="0.03032">
        <ele>66.95</ele>
        <time>2010-04-04T07:51:07Z</time>
      </trkpt>
      <trkpt lat="47.34303" lon="0.03034">
        <ele>67.91</ele>
        <time>2010-04-04T07:51:08Z</time>
      </trkpt>
      <trkpt lat="47.34308" lon="0.03039">
        <ele>67.43</ele>
        <time>2010-04-04T07:51:14Z</time>
      </trkpt>
      <trkpt lat="47.34315" lon="0.0304">
        <ele>68.39</ele>
        <time>2010-04-04T07:51:27Z</time>
      </trkpt>
      <trkpt lat="47.34316" lon="0.0304">
        <ele>67.43</ele>
        <time>2010-04-04T07:51:29Z</time>
      </trkpt>
      <trkpt lat="47.34317" lon="0.0304">
        <ele>67.91</ele>
        <time>2010-04-04T07:51:34Z</time>
      </trkpt>
      <trkpt lat="47.34318" lon="0.0304">
        <ele>65.99</ele>
        <time>2010-04-04T07:53:37Z</time>
      </trkpt>
      <trkpt lat="47.34318" lon="0.0304">
        <ele>67.43</ele>
        <time>2010-04-04T07:53:59Z</time>
      </trkpt>
      <trkpt lat="47.34321" lon="0.03039">
        <ele>66.47</ele>
        <time>2010-04-04T07:54:38Z</time>
      </trkpt>
      <trkpt lat="47.34327" lon="0.03036">
        <ele>65.99</ele>
        <time>2010-04-04T07:55:11Z</time>
      </trkpt>
      <trkpt lat="47.34326" lon="0.03038">
        <ele>65.51</ele>
        <time>2010-04-04T07:55:13Z</time>
      </trkpt>
      <trkpt lat="47.34317" lon="0.03058">
        <ele>65.51</ele>
        <time>2010-04-04T07:55:20Z</time>
      </trkpt>
      <trkpt lat="47.34301" lon="0.03082">
        <ele>65.51</ele>
        <time>2010-04-04T07:55:26Z</time>
      </trkpt>
      <trkpt lat="47.34282" lon="0.03116">
        <ele>62.62</ele>
        <time>2010-04-04T07:55:32Z</time>
      </trkpt>
      <trkpt lat="47.34278" lon="0.03122">
        <ele>62.62</ele>
        <time>2010-04-04T07:55:33Z</time>
      </trkpt>
      <trkpt lat="47.34274" lon="0.03127">
        <ele>62.62</ele>
        <time>2010-04-04T07:55:34Z</time>
      </trkpt>
      <trkpt lat="47.3427" lon="0.03133">
        <ele>62.62</ele>
        <time>2010-04-04T07:55:35Z</time>
      </trkpt>
      <trkpt lat="47.34242" lon="0.03172">
        <ele>60.22</ele>
        <time>2010-04-04T07:55:42Z</time>
      </trkpt>
      <trkpt lat="47.34238" lon="0.03178">
        <ele>60.7</ele>
        <time>2010-04-04T07:55:43Z</time>
      </trkpt>
      <trkpt lat="47.34233" lon="0.03184">
        <ele>60.7</ele>
        <time>2010-04-04T07:55:44Z</time>
      </trkpt>
      <trkpt lat="47.34229" lon="0.03191">
        <ele>59.74</ele>
        <time>2010-04-04T07:55:45Z</time>
      </trkpt>
      <trkpt lat="47.34215" lon="0.03208">
        <ele>59.74</ele>
        <time>2010-04-04T07:55:48Z</time>
      </trkpt>
      <trkpt lat="47.34211" lon="0.03214">
        <ele>59.26</ele>
        <time>2010-04-04T07:55:49Z</time>
      </trkpt>
      <trkpt lat="47.34203" lon="0.03227">
        <ele>58.78</ele>
        <time>2010-04-04T07:55:51Z</time>
      </trkpt>
      <trkpt lat="47.34198" lon="0.03234">
        <ele>58.3</ele>
        <time>2010-04-04T07:55:52Z</time>
      </trkpt>
      <trkpt lat="47.34193" lon="0.03241">
        <ele>58.78</ele>
        <time>2010-04-04T07:55:53Z</time>
      </trkpt>
      <trkpt lat="47.34165" lon="0.03281">
        <ele>56.86</ele>
        <time>2010-04-04T07:55:59Z</time>
      </trkpt>
      <trkpt lat="47.34151" lon="0.033">
        <ele>56.37</ele>
        <time>2010-04-04T07:56:02Z</time>
      </trkpt>
      <trkpt lat="47.3414" lon="0.03311">
        <ele>55.89</ele>
        <time>2010-04-04T07:56:04Z</time>
      </trkpt>
      <trkpt lat="47.3411" lon="0.03356">
        <ele>54.93</ele>
        <time>2010-04-04T07:56:10Z</time>
      </trkpt>
      <trkpt lat="47.34069" lon="0.03414">
        <ele>53.49</ele>
        <time>2010-04-04T07:56:18Z</time>
      </trkpt>
      <trkpt lat="47.34031" lon="0.03469">
        <ele>51.09</ele>
        <time>2010-04-04T07:56:25Z</time>
      </trkpt>
      <trkpt lat="47.34026" lon="0.03475">
        <ele>51.57</ele>
        <time>2010-04-04T07:56:26Z</time>
      </trkpt>
      <trkpt lat="47.34021" lon="0.03481">
        <ele>51.09</ele>
        <time>2010-04-04T07:56:27Z</time>
      </trkpt>
      <trkpt lat="47.34016" lon="0.03488">
        <ele>50.13</ele>
        <time>2010-04-04T07:56:28Z</time>
      </trkpt>
      <trkpt lat="47.34012" lon="0.03494">
        <ele>49.65</ele>
        <time>2010-04-04T07:56:29Z</time>
      </trkpt>
      <trkpt lat="47.34007" lon="0.03501">
        <ele>49.16</ele>
        <time>2010-04-04T07:56:30Z</time>
      </trkpt>
      <trkpt lat="47.33981" lon="0.03534">
        <ele>48.68</ele>
        <time>2010-04-04T07:56:34Z</time>
      </trkpt>
      <trkpt lat="47.33975" lon="0.03541">
        <ele>48.68</ele>
        <time>2010-04-04T07:56:35Z</time>
      </trkpt>
      <trkpt lat="47.33959" lon="0.03562">
        <ele>47.24</ele>
        <time>2010-04-04T07:56:38Z</time>
      </trkpt>
      <trkpt lat="47.33949" lon="0.03577">
        <ele>47.24</ele>
        <time>2010-04-04T07:56:40Z</time>
      </trkpt>
      <trkpt lat="47.33945" lon="0.03585">
        <ele>47.24</ele>
        <time>2010-04-04T07:56:41Z</time>
      </trkpt>
      <trkpt lat="47.3394" lon="0.03593">
        <ele>47.24</ele>
        <time>2010-04-04T07:56:42Z</time>
      </trkpt>
      <trkpt lat="47.33935" lon="0.03599">
        <ele>46.76</ele>
        <time>2010-04-04T07:56:43Z</time>
      </trkpt>
      <trkpt lat="47.3393" lon="0.03606">
        <ele>46.28</ele>
        <time>2010-04-04T07:56:44Z</time>
      </trkpt>
      <trkpt lat="47.33926" lon="0.03613">
        <ele>46.28</ele>
        <time>2010-04-04T07:56:45Z</time>
      </trkpt>
      <trkpt lat="47.33903" lon="0.03648">
        <ele>44.84</ele>
        <time>2010-04-04T07:56:50Z</time>
      </trkpt>
      <trkpt lat="47.33891" lon="0.03664">
        <ele>43.88</ele>
        <time>2010-04-04T07:56:53Z</time>
      </trkpt>
      <trkpt lat="47.33886" lon="0.0369">
        <ele>42.44</ele>
        <time>2010-04-04T07:56:58Z</time>
      </trkpt>
      <trkpt lat="47.3389" lon="0.03705">
        <ele>42.44</ele>
        <time>2010-04-04T07:57:03Z</time>
      </trkpt>
      <trkpt lat="47.33896" lon="0.03718">
        <ele>42.44</ele>
        <time>2010-04-04T07:57:11Z</time>
      </trkpt>
      <trkpt lat="47.33897" lon="0.03719">
        <ele>42.44</ele>
        <time>2010-04-04T07:57:12Z</time>
      </trkpt>
      <trkpt lat="47.33897" lon="0.03722">
        <ele>42.44</ele>
        <time>2010-04-04T07:57:13Z</time>
      </trkpt>
      <trkpt lat="47.33897" lon="0.03724">
        <ele>41.95</ele>
        <time>2010-04-04T07:57:14Z</time>
      </trkpt>
      <trkpt lat="47.33896" lon="0.03725">
        <ele>40.99</ele>
        <time>2010-04-04T07:57:15Z</time>
      </trkpt>
      <trkpt lat="47.33895" lon="0.03724">
        <ele>41.47</ele>
        <time>2010-04-04T07:57:16Z</time>
      </trkpt>
      <trkpt lat="47.33894" lon="0.03722">
        <ele>41.47</ele>
        <time>2010-04-04T07:57:17Z</time>
      </trkpt>
      <trkpt lat="47.33887" lon="0.03704">
        <ele>42.44</ele>
        <time>2010-04-04T07:57:23Z</time>
      </trkpt>
      <trkpt lat="47.33877" lon="0.03677">
        <ele>42.44</ele>
        <time>2010-04-04T07:57:29Z</time>
      </trkpt>
      <trkpt lat="47.33869" lon="0.03663">
        <ele>43.4</ele>
        <time>2010-04-04T07:57:32Z</time>
      </trkpt>
      <trkpt lat="47.33851" lon="0.03632">
        <ele>43.88</ele>
        <time>2010-04-04T07:57:38Z</time>
      </trkpt>
      <trkpt lat="47.33847" lon="0.03627">
        <ele>43.88</ele>
        <time>2010-04-04T07:57:39Z</time>
      </trkpt>
      <trkpt lat="47.33844" lon="0.03621">
        <ele>44.36</ele>
        <time>2010-04-04T07:57:40Z</time>
      </trkpt>
      <trkpt lat="47.33818" lon="0.03576">
        <ele>42.92</ele>
        <time>2010-04-04T07:57:48Z</time>
      </trkpt>
      <trkpt lat="47.33791" lon="0.03533">
        <ele>41.95</ele>
        <time>2010-04-04T07:57:56Z</time>
      </trkpt>
      <trkpt lat="47.33788" lon="0.03531">
        <ele>40.99</ele>
        <time>2010-04-04T07:57:57Z</time>
      </trkpt>
      <trkpt lat="47.33785" lon="0.03531">
        <ele>41.95</ele>
        <time>2010-04-04T07:57:58Z</time>
      </trkpt>
      <trkpt lat="47.33782" lon="0.03534">
        <ele>41.47</ele>
        <time>2010-04-04T07:57:59Z</time>
      </trkpt>
      <trkpt lat="47.33752" lon="0.03568">
        <ele>40.03</ele>
        <time>2010-04-04T07:58:08Z</time>
      </trkpt>
      <trkpt lat="47.33748" lon="0.03572">
        <ele>40.51</ele>
        <time>2010-04-04T07:58:09Z</time>
      </trkpt>
      <trkpt lat="47.33728" lon="0.03599">
        <ele>39.07</ele>
        <time>2010-04-04T07:58:15Z</time>
      </trkpt>
      <trkpt lat="47.33684" lon="0.03654">
        <ele>39.07</ele>
        <time>2010-04-04T07:58:27Z</time>
      </trkpt>
      <trkpt lat="47.3366" lon="0.03687">
        <ele>42.44</ele>
        <time>2010-04-04T07:58:36Z</time>
      </trkpt>
      <trkpt lat="47.33658" lon="0.0369">
        <ele>42.44</ele>
        <time>2010-04-04T07:58:37Z</time>
      </trkpt>
      <trkpt lat="47.3364" lon="0.03713">
        <ele>44.84</ele>
        <time>2010-04-04T07:58:45Z</time>
      </trkpt>
      <trkpt lat="47.33633" lon="0.03721">
        <ele>45.8</ele>
        <time>2010-04-04T07:58:48Z</time>
      </trkpt>
      <trkpt lat="47.33619" lon="0.03739">
        <ele>47.72</ele>
        <time>2010-04-04T07:58:55Z</time>
      </trkpt>
      <trkpt lat="47.33602" lon="0.03759">
        <ele>48.68</ele>
        <time>2010-04-04T07:59:03Z</time>
      </trkpt>
      <trkpt lat="47.33594" lon="0.03769">
        <ele>49.65</ele>
        <time>2010-04-04T07:59:07Z</time>
      </trkpt>
      <trkpt lat="47.33585" lon="0.03788">
        <ele>50.61</ele>
        <time>2010-04-04T07:59:13Z</time>
      </trkpt>
      <trkpt lat="47.33586" lon="0.0381">
        <ele>50.13</ele>
        <time>2010-04-04T07:59:18Z</time>
      </trkpt>
      <trkpt lat="47.33589" lon="0.03835">
        <ele>50.61</ele>
        <time>2010-04-04T07:59:23Z</time>
      </trkpt>
      <trkpt lat="47.33593" lon="0.03867">
        <ele>51.57</ele>
        <time>2010-04-04T07:59:29Z</time>
      </trkpt>
      <trkpt lat="47.33603" lon="0.03915">
        <ele>50.61</ele>
        <time>2010-04-04T07:59:37Z</time>
      </trkpt>
      <trkpt lat="47.33603" lon="0.03925">
        <ele>51.57</ele>
        <time>2010-04-04T07:59:39Z</time>
      </trkpt>
      <trkpt lat="47.33601" lon="0.0393">
        <ele>51.09</ele>
        <time>2010-04-04T07:59:40Z</time>
      </trkpt>
      <trkpt lat="47.33598" lon="0.03934">
        <ele>51.09</ele>
        <time>2010-04-04T07:59:41Z</time>
      </trkpt>
      <trkpt lat="47.33595" lon="0.03938">
        <ele>52.05</ele>
        <time>2010-04-04T07:59:42Z</time>
      </trkpt>
      <trkpt lat="47.33593" lon="0.03942">
        <ele>52.53</ele>
        <time>2010-04-04T07:59:43Z</time>
      </trkpt>
      <trkpt lat="47.33568" lon="0.03981">
        <ele>53.97</ele>
        <time>2010-04-04T07:59:52Z</time>
      </trkpt>
      <trkpt lat="47.33565" lon="0.03986">
        <ele>53.97</ele>
        <time>2010-04-04T07:59:53Z</time>
      </trkpt>
      <trkpt lat="47.33547" lon="0.04014">
        <ele>53.49</ele>
        <time>2010-04-04T08:00:00Z</time>
      </trkpt>
      <trkpt lat="47.33531" lon="0.04032">
        <ele>53.97</ele>
        <time>2010-04-04T08:00:06Z</time>
      </trkpt>
      <trkpt lat="47.33529" lon="0.04029">
        <ele>54.45</ele>
        <time>2010-04-04T08:00:07Z</time>
      </trkpt>
      <trkpt lat="47.33511" lon="0.04006">
        <ele>54.45</ele>
        <time>2010-04-04T08:00:13Z</time>
      </trkpt>
      <trkpt lat="47.33503" lon="0.03995">
        <ele>54.93</ele>
        <time>2010-04-04T08:00:16Z</time>
      </trkpt>
      <trkpt lat="47.335" lon="0.0399">
        <ele>54.45</ele>
        <time>2010-04-04T08:00:17Z</time>
      </trkpt>
      <trkpt lat="47.33482" lon="0.03966">
        <ele>55.89</ele>
        <time>2010-04-04T08:00:23Z</time>
      </trkpt>
      <trkpt lat="47.33475" lon="0.03957">
        <ele>55.41</ele>
        <time>2010-04-04T08:00:25Z</time>
      </trkpt>
      <trkpt lat="47.33472" lon="0.03953">
        <ele>55.41</ele>
        <time>2010-04-04T08:00:26Z</time>
      </trkpt>
      <trkpt lat="47.33446" lon="0.03925">
        <ele>55.41</ele>
        <time>2010-04-04T08:00:33Z</time>
      </trkpt>
      <trkpt lat="47.33417" lon="0.03896">
        <ele>55.89</ele>
        <time>2010-04-04T08:00:41Z</time>
      </trkpt>
      <trkpt lat="47.33384" lon="0.03862">
        <ele>56.37</ele>
        <time>2010-04-04T08:00:50Z</time>
      </trkpt>
      <trkpt lat="47.33364" lon="0.03843">
        <ele>57.34</ele>
        <time>2010-04-04T08:00:56Z</time>
      </trkpt>
      <trkpt lat="47.33336" lon="0.03813">
        <ele>56.37</ele>
        <time>2010-04-04T08:01:04Z</time>
      </trkpt>
      <trkpt lat="47.33322" lon="0.038">
        <ele>56.37</ele>
        <time>2010-04-04T08:01:08Z</time>
      </trkpt>
      <trkpt lat="47.33299" lon="0.03776">
        <ele>56.37</ele>
        <time>2010-04-04T08:01:14Z</time>
      </trkpt>
      <trkpt lat="47.33295" lon="0.03772">
        <ele>56.37</ele>
        <time>2010-04-04T08:01:15Z</time>
      </trkpt>
      <trkpt lat="47.3326" lon="0.03738">
        <ele>55.89</ele>
        <time>2010-04-04T08:01:23Z</time>
      </trkpt>
      <trkpt lat="47.33217" lon="0.03704">
        <ele>56.37</ele>
        <time>2010-04-04T08:01:33Z</time>
      </trkpt>
      <trkpt lat="47.33209" lon="0.03698">
        <ele>54.93</ele>
        <time>2010-04-04T08:01:35Z</time>
      </trkpt>
      <trkpt lat="47.33184" lon="0.0368">
        <ele>54.93</ele>
        <time>2010-04-04T08:01:41Z</time>
      </trkpt>
      <trkpt lat="47.33181" lon="0.03678">
        <ele>55.41</ele>
        <time>2010-04-04T08:01:42Z</time>
      </trkpt>
      <trkpt lat="47.33178" lon="0.03676">
        <ele>54.45</ele>
        <time>2010-04-04T08:01:43Z</time>
      </trkpt>
      <trkpt lat="47.33174" lon="0.03675">
        <ele>55.89</ele>
        <time>2010-04-04T08:01:44Z</time>
      </trkpt>
      <trkpt lat="47.33172" lon="0.03677">
        <ele>55.41</ele>
        <time>2010-04-04T08:01:45Z</time>
      </trkpt>
      <trkpt lat="47.33171" lon="0.0368">
        <ele>55.89</ele>
        <time>2010-04-04T08:01:46Z</time>
      </trkpt>
      <trkpt lat="47.33171" lon="0.03683">
        <ele>55.41</ele>
        <time>2010-04-04T08:01:47Z</time>
      </trkpt>
      <trkpt lat="47.33173" lon="0.03695">
        <ele>57.34</ele>
        <time>2010-04-04T08:01:52Z</time>
      </trkpt>
      <trkpt lat="47.33178" lon="0.03712">
        <ele>58.3</ele>
        <time>2010-04-04T08:01:58Z</time>
      </trkpt>
      <trkpt lat="47.33179" lon="0.03715">
        <ele>58.3</ele>
        <time>2010-04-04T08:01:59Z</time>
      </trkpt>
      <trkpt lat="47.3318" lon="0.03718">
        <ele>58.3</ele>
        <time>2010-04-04T08:02:00Z</time>
      </trkpt>
      <trkpt lat="47.33183" lon="0.03728">
        <ele>58.78</ele>
        <time>2010-04-04T08:02:04Z</time>
      </trkpt>
      <trkpt lat="47.33184" lon="0.03732">
        <ele>58.78</ele>
        <time>2010-04-04T08:02:05Z</time>
      </trkpt>
      <trkpt lat="47.33185" lon="0.03737">
        <ele>58.78</ele>
        <time>2010-04-04T08:02:06Z</time>
      </trkpt>
      <trkpt lat="47.33186" lon="0.03742">
        <ele>59.26</ele>
        <time>2010-04-04T08:02:07Z</time>
      </trkpt>
      <trkpt lat="47.33187" lon="0.03746">
        <ele>59.26</ele>
        <time>2010-04-04T08:02:08Z</time>
      </trkpt>
      <trkpt lat="47.33188" lon="0.03751">
        <ele>59.74</ele>
        <time>2010-04-04T08:02:09Z</time>
      </trkpt>
      <trkpt lat="47.33189" lon="0.03756">
        <ele>60.22</ele>
        <time>2010-04-04T08:02:10Z</time>
      </trkpt>
      <trkpt lat="47.3319" lon="0.03761">
        <ele>60.22</ele>
        <time>2010-04-04T08:02:11Z</time>
      </trkpt>
      <trkpt lat="47.33192" lon="0.03765">
        <ele>60.22</ele>
        <time>2010-04-04T08:02:12Z</time>
      </trkpt>
      <trkpt lat="47.33194" lon="0.0377">
        <ele>59.74</ele>
        <time>2010-04-04T08:02:13Z</time>
      </trkpt>
      <trkpt lat="47.33199" lon="0.03787">
        <ele>61.66</ele>
        <time>2010-04-04T08:02:18Z</time>
      </trkpt>
      <trkpt lat="47.332" lon="0.03791">
        <ele>62.14</ele>
        <time>2010-04-04T08:02:19Z</time>
      </trkpt>
      <trkpt lat="47.33202" lon="0.03795">
        <ele>61.66</ele>
        <time>2010-04-04T08:02:20Z</time>
      </trkpt>
      <trkpt lat="47.33203" lon="0.03798">
        <ele>62.14</ele>
        <time>2010-04-04T08:02:21Z</time>
      </trkpt>
      <trkpt lat="47.33204" lon="0.03801">
        <ele>63.1</ele>
        <time>2010-04-04T08:02:22Z</time>
      </trkpt>
      <trkpt lat="47.33206" lon="0.03804">
        <ele>62.14</ele>
        <time>2010-04-04T08:02:23Z</time>
      </trkpt>
      <trkpt lat="47.33207" lon="0.03808">
        <ele>62.14</ele>
        <time>2010-04-04T08:02:24Z</time>
      </trkpt>
      <trkpt lat="47.33208" lon="0.03812">
        <ele>62.14</ele>
        <time>2010-04-04T08:02:25Z</time>
      </trkpt>
      <trkpt lat="47.33209" lon="0.03815">
        <ele>63.58</ele>
        <time>2010-04-04T08:02:26Z</time>
      </trkpt>
      <trkpt lat="47.33211" lon="0.03818">
        <ele>64.07</ele>
        <time>2010-04-04T08:02:27Z</time>
      </trkpt>
      <trkpt lat="47.33212" lon="0.03822">
        <ele>63.58</ele>
        <time>2010-04-04T08:02:28Z</time>
      </trkpt>
      <trkpt lat="47.33214" lon="0.03827">
        <ele>63.58</ele>
        <time>2010-04-04T08:02:30Z</time>
      </trkpt>
      <trkpt lat="47.33215" lon="0.0383">
        <ele>64.07</ele>
        <time>2010-04-04T08:02:31Z</time>
      </trkpt>
      <trkpt lat="47.33216" lon="0.03833">
        <ele>65.03</ele>
        <time>2010-04-04T08:02:32Z</time>
      </trkpt>
      <trkpt lat="47.33219" lon="0.03839">
        <ele>65.03</ele>
        <time>2010-04-04T08:02:35Z</time>
      </trkpt>
      <trkpt lat="47.33219" lon="0.03842">
        <ele>65.03</ele>
        <time>2010-04-04T08:02:36Z</time>
      </trkpt>
      <trkpt lat="47.33219" lon="0.03845">
        <ele>65.51</ele>
        <time>2010-04-04T08:02:37Z</time>
      </trkpt>
      <trkpt lat="47.3322" lon="0.03849">
        <ele>64.07</ele>
        <time>2010-04-04T08:02:38Z</time>
      </trkpt>
      <trkpt lat="47.3322" lon="0.03852">
        <ele>65.03</ele>
        <time>2010-04-04T08:02:39Z</time>
      </trkpt>
      <trkpt lat="47.33227" lon="0.03872">
        <ele>65.03</ele>
        <time>2010-04-04T08:02:44Z</time>
      </trkpt>
      <trkpt lat="47.33228" lon="0.03901">
        <ele>65.99</ele>
        <time>2010-04-04T08:02:49Z</time>
      </trkpt>
      <trkpt lat="47.33231" lon="0.0393">
        <ele>65.99</ele>
        <time>2010-04-04T08:02:54Z</time>
      </trkpt>
      <trkpt lat="47.33233" lon="0.03962">
        <ele>65.51</ele>
        <time>2010-04-04T08:03:00Z</time>
      </trkpt>
      <trkpt lat="47.33233" lon="0.03984">
        <ele>65.99</ele>
        <time>2010-04-04T08:03:04Z</time>
      </trkpt>
      <trkpt lat="47.33234" lon="0.04007">
        <ele>66.47</ele>
        <time>2010-04-04T08:03:09Z</time>
      </trkpt>
      <trkpt lat="47.33235" lon="0.04035">
        <ele>65.99</ele>
        <time>2010-04-04T08:03:15Z</time>
      </trkpt>
      <trkpt lat="47.33236" lon="0.04048">
        <ele>66.95</ele>
        <time>2010-04-04T08:03:20Z</time>
      </trkpt>
      <trkpt lat="47.33237" lon="0.04051">
        <ele>66.47</ele>
        <time>2010-04-04T08:03:36Z</time>
      </trkpt>
      <trkpt lat="47.33237" lon="0.04054">
        <ele>65.99</ele>
        <time>2010-04-04T08:03:37Z</time>
      </trkpt>
      <trkpt lat="47.33238" lon="0.0406">
        <ele>65.51</ele>
        <time>2010-04-04T08:03:40Z</time>
      </trkpt>
      <trkpt lat="47.33239" lon="0.04068">
        <ele>65.99</ele>
        <time>2010-04-04T08:03:42Z</time>
      </trkpt>
      <trkpt lat="47.33239" lon="0.04072">
        <ele>65.99</ele>
        <time>2010-04-04T08:03:43Z</time>
      </trkpt>
      <trkpt lat="47.3324" lon="0.0409">
        <ele>65.51</ele>
        <time>2010-04-04T08:03:48Z</time>
      </trkpt>
      <trkpt lat="47.33233" lon="0.04111">
        <ele>66.47</ele>
        <time>2010-04-04T08:03:54Z</time>
      </trkpt>
      <trkpt lat="47.33232" lon="0.04113">
        <ele>66.47</ele>
        <time>2010-04-04T08:03:55Z</time>
      </trkpt>
      <trkpt lat="47.33218" lon="0.04122">
        <ele>67.43</ele>
        <time>2010-04-04T08:04:02Z</time>
      </trkpt>
      <trkpt lat="47.33212" lon="0.04119">
        <ele>68.39</ele>
        <time>2010-04-04T08:04:08Z</time>
      </trkpt>
      <trkpt lat="47.33209" lon="0.04118">
        <ele>69.35</ele>
        <time>2010-04-04T08:04:12Z</time>
      </trkpt>
      <trkpt lat="47.33196" lon="0.04113">
        <ele>69.83</ele>
        <time>2010-04-04T08:04:17Z</time>
      </trkpt>
      <trkpt lat="47.33181" lon="0.04107">
        <ele>69.83</ele>
        <time>2010-04-04T08:04:22Z</time>
      </trkpt>
      <trkpt lat="47.33166" lon="0.041">
        <ele>69.83</ele>
        <time>2010-04-04T08:04:28Z</time>
      </trkpt>
      <trkpt lat="47.33156" lon="0.04093">
        <ele>71.76</ele>
        <time>2010-04-04T08:04:34Z</time>
      </trkpt>
      <trkpt lat="47.33148" lon="0.04095">
        <ele>71.76</ele>
        <time>2010-04-04T08:04:40Z</time>
      </trkpt>
      <trkpt lat="47.3314" lon="0.04091">
        <ele>73.2</ele>
        <time>2010-04-04T08:04:55Z</time>
      </trkpt>
      <trkpt lat="47.33138" lon="0.04089">
        <ele>72.72</ele>
        <time>2010-04-04T08:05:00Z</time>
      </trkpt>
      <trkpt lat="47.3313" lon="0.04084">
        <ele>73.2</ele>
        <time>2010-04-04T08:05:08Z</time>
      </trkpt>
      <trkpt lat="47.33124" lon="0.04082">
        <ele>74.16</ele>
        <time>2010-04-04T08:05:14Z</time>
      </trkpt>
      <trkpt lat="47.33119" lon="0.0408">
        <ele>74.64</ele>
        <time>2010-04-04T08:05:20Z</time>
      </trkpt>
      <trkpt lat="47.33117" lon="0.04078">
        <ele>75.12</ele>
        <time>2010-04-04T08:05:34Z</time>
      </trkpt>
      <trkpt lat="47.33117" lon="0.04076">
        <ele>74.16</ele>
        <time>2010-04-04T08:05:38Z</time>
      </trkpt>
      <trkpt lat="47.33115" lon="0.04075">
        <ele>75.12</ele>
        <time>2010-04-04T08:05:48Z</time>
      </trkpt>
      <trkpt lat="47.33114" lon="0.04075">
        <ele>75.12</ele>
        <time>2010-04-04T08:05:57Z</time>
      </trkpt>
      <trkpt lat="47.33113" lon="0.04073">
        <ele>75.6</ele>
        <time>2010-04-04T08:06:06Z</time>
      </trkpt>
      <trkpt lat="47.33114" lon="0.04072">
        <ele>74.64</ele>
        <time>2010-04-04T08:06:09Z</time>
      </trkpt>
      <trkpt lat="47.33113" lon="0.04065">
        <ele>75.12</ele>
        <time>2010-04-04T08:06:16Z</time>
      </trkpt>
      <trkpt lat="47.33113" lon="0.04065">
        <ele>74.64</ele>
        <time>2010-04-04T08:06:18Z</time>
      </trkpt>
      <trkpt lat="47.33109" lon="0.04066">
        <ele>76.56</ele>
        <time>2010-04-04T08:06:24Z</time>
      </trkpt>
      <trkpt lat="47.33105" lon="0.04064">
        <ele>77.04</ele>
        <time>2010-04-04T08:06:29Z</time>
      </trkpt>
      <trkpt lat="47.33104" lon="0.04062">
        <ele>76.56</ele>
        <time>2010-04-04T08:06:32Z</time>
      </trkpt>
      <trkpt lat="47.33099" lon="0.04054">
        <ele>77.04</ele>
        <time>2010-04-04T08:06:39Z</time>
      </trkpt>
      <trkpt lat="47.33096" lon="0.04048">
        <ele>77.04</ele>
        <time>2010-04-04T08:06:43Z</time>
      </trkpt>
      <trkpt lat="47.33093" lon="0.04038">
        <ele>78</ele>
        <time>2010-04-04T08:06:51Z</time>
      </trkpt>
      <trkpt lat="47.33092" lon="0.04037">
        <ele>78</ele>
        <time>2010-04-04T08:06:52Z</time>
      </trkpt>
      <trkpt lat="47.33087" lon="0.04032">
        <ele>78.97</ele>
        <time>2010-04-04T08:06:59Z</time>
      </trkpt>
      <trkpt lat="47.33084" lon="0.04025">
        <ele>78.97</ele>
        <time>2010-04-04T08:07:06Z</time>
      </trkpt>
      <trkpt lat="47.33081" lon="0.04024">
        <ele>79.93</ele>
        <time>2010-04-04T08:07:12Z</time>
      </trkpt>
      <trkpt lat="47.33077" lon="0.04023">
        <ele>80.89</ele>
        <time>2010-04-04T08:07:17Z</time>
      </trkpt>
      <trkpt lat="47.33075" lon="0.0402">
        <ele>80.41</ele>
        <time>2010-04-04T08:07:21Z</time>
      </trkpt>
      <trkpt lat="47.33075" lon="0.04014">
        <ele>80.41</ele>
        <time>2010-04-04T08:07:25Z</time>
      </trkpt>
      <trkpt lat="47.33076" lon="0.04009">
        <ele>80.41</ele>
        <time>2010-04-04T08:07:32Z</time>
      </trkpt>
      <trkpt lat="47.33076" lon="0.04005">
        <ele>79.45</ele>
        <time>2010-04-04T08:07:36Z</time>
      </trkpt>
      <trkpt lat="47.33079" lon="0.03997">
        <ele>79.45</ele>
        <time>2010-04-04T08:07:43Z</time>
      </trkpt>
      <trkpt lat="47.33079" lon="0.03994">
        <ele>79.45</ele>
        <time>2010-04-04T08:07:48Z</time>
      </trkpt>
      <trkpt lat="47.33079" lon="0.03993">
        <ele>80.41</ele>
        <time>2010-04-04T08:07:55Z</time>
      </trkpt>
      <trkpt lat="47.33072" lon="0.03987">
        <ele>81.37</ele>
        <time>2010-04-04T08:08:03Z</time>
      </trkpt>
      <trkpt lat="47.33063" lon="0.03982">
        <ele>82.81</ele>
        <time>2010-04-04T08:08:12Z</time>
      </trkpt>
      <trkpt lat="47.3306" lon="0.03978">
        <ele>82.33</ele>
        <time>2010-04-04T08:08:19Z</time>
      </trkpt>
      <trkpt lat="47.33057" lon="0.03963">
        <ele>82.33</ele>
        <time>2010-04-04T08:08:25Z</time>
      </trkpt>
      <trkpt lat="47.33052" lon="0.03952">
        <ele>82.33</ele>
        <time>2010-04-04T08:08:30Z</time>
      </trkpt>
      <trkpt lat="47.33049" lon="0.0395">
        <ele>83.77</ele>
        <time>2010-04-04T08:08:35Z</time>
      </trkpt>
      <trkpt lat="47.33044" lon="0.03951">
        <ele>83.77</ele>
        <time>2010-04-04T08:08:37Z</time>
      </trkpt>
      <trkpt lat="47.33033" lon="0.03941">
        <ele>84.73</ele>
        <time>2010-04-04T08:08:43Z</time>
      </trkpt>
      <trkpt lat="47.33028" lon="0.03928">
        <ele>84.25</ele>
        <time>2010-04-04T08:08:48Z</time>
      </trkpt>
      <trkpt lat="47.33029" lon="0.03911">
        <ele>83.29</ele>
        <time>2010-04-04T08:08:53Z</time>
      </trkpt>
      <trkpt lat="47.3303" lon="0.03901">
        <ele>83.29</ele>
        <time>2010-04-04T08:08:56Z</time>
      </trkpt>
      <trkpt lat="47.33033" lon="0.03871">
        <ele>82.81</ele>
        <time>2010-04-04T08:09:03Z</time>
      </trkpt>
      <trkpt lat="47.33032" lon="0.03866">
        <ele>81.37</ele>
        <time>2010-04-04T08:09:04Z</time>
      </trkpt>
      <trkpt lat="47.33034" lon="0.03836">
        <ele>79.93</ele>
        <time>2010-04-04T08:09:10Z</time>
      </trkpt>
      <trkpt lat="47.33036" lon="0.03814">
        <ele>79.45</ele>
        <time>2010-04-04T08:09:14Z</time>
      </trkpt>
      <trkpt lat="47.3303" lon="0.03799">
        <ele>78.97</ele>
        <time>2010-04-04T08:09:20Z</time>
      </trkpt>
      <trkpt lat="47.33028" lon="0.03796">
        <ele>78.48</ele>
        <time>2010-04-04T08:09:26Z</time>
      </trkpt>
      <trkpt lat="47.33027" lon="0.03796">
        <ele>79.45</ele>
        <time>2010-04-04T08:09:41Z</time>
      </trkpt>
      <trkpt lat="47.33025" lon="0.03797">
        <ele>78.97</ele>
        <time>2010-04-04T08:09:44Z</time>
      </trkpt>
      <trkpt lat="47.33012" lon="0.03797">
        <ele>78.97</ele>
        <time>2010-04-04T08:09:51Z</time>
      </trkpt>
      <trkpt lat="47.33001" lon="0.03792">
        <ele>78.97</ele>
        <time>2010-04-04T08:09:56Z</time>
      </trkpt>
      <trkpt lat="47.3299" lon="0.03787">
        <ele>78.48</ele>
        <time>2010-04-04T08:10:00Z</time>
      </trkpt>
      <trkpt lat="47.32982" lon="0.03784">
        <ele>78.48</ele>
        <time>2010-04-04T08:10:02Z</time>
      </trkpt>
      <trkpt lat="47.32976" lon="0.03782">
        <ele>77.52</ele>
        <time>2010-04-04T08:10:03Z</time>
      </trkpt>
      <trkpt lat="47.32969" lon="0.03782">
        <ele>77.52</ele>
        <time>2010-04-04T08:10:04Z</time>
      </trkpt>
      <trkpt lat="47.32956" lon="0.03783">
        <ele>76.08</ele>
        <time>2010-04-04T08:10:06Z</time>
      </trkpt>
      <trkpt lat="47.32949" lon="0.03782">
        <ele>75.6</ele>
        <time>2010-04-04T08:10:07Z</time>
      </trkpt>
      <trkpt lat="47.32941" lon="0.03781">
        <ele>75.6</ele>
        <time>2010-04-04T08:10:08Z</time>
      </trkpt>
      <trkpt lat="47.32934" lon="0.03778">
        <ele>74.64</ele>
        <time>2010-04-04T08:10:09Z</time>
      </trkpt>
      <trkpt lat="47.32927" lon="0.03775">
        <ele>73.68</ele>
        <time>2010-04-04T08:10:10Z</time>
      </trkpt>
      <trkpt lat="47.32912" lon="0.03769">
        <ele>73.2</ele>
        <time>2010-04-04T08:10:12Z</time>
      </trkpt>
      <trkpt lat="47.32887" lon="0.03761">
        <ele>69.83</ele>
        <time>2010-04-04T08:10:15Z</time>
      </trkpt>
      <trkpt lat="47.32867" lon="0.03753">
        <ele>66.47</ele>
        <time>2010-04-04T08:10:18Z</time>
      </trkpt>
      <trkpt lat="47.32862" lon="0.03749">
        <ele>66.47</ele>
        <time>2010-04-04T08:10:19Z</time>
      </trkpt>
      <trkpt lat="47.32859" lon="0.03746">
        <ele>65.51</ele>
        <time>2010-04-04T08:10:20Z</time>
      </trkpt>
      <trkpt lat="47.32857" lon="0.03744">
        <ele>64.55</ele>
        <time>2010-04-04T08:10:21Z</time>
      </trkpt>
      <trkpt lat="47.32853" lon="0.03745">
        <ele>64.07</ele>
        <time>2010-04-04T08:10:22Z</time>
      </trkpt>
      <trkpt lat="47.3285" lon="0.03748">
        <ele>63.58</ele>
        <time>2010-04-04T08:10:23Z</time>
      </trkpt>
      <trkpt lat="47.32848" lon="0.03752">
        <ele>64.07</ele>
        <time>2010-04-04T08:10:24Z</time>
      </trkpt>
      <trkpt lat="47.32847" lon="0.03756">
        <ele>64.07</ele>
        <time>2010-04-04T08:10:25Z</time>
      </trkpt>
      <trkpt lat="47.32846" lon="0.03773">
        <ele>64.55</ele>
        <time>2010-04-04T08:10:29Z</time>
      </trkpt>
      <trkpt lat="47.32843" lon="0.03796">
        <ele>65.03</ele>
        <time>2010-04-04T08:10:35Z</time>
      </trkpt>
      <trkpt lat="47.32839" lon="0.03817">
        <ele>68.39</ele>
        <time>2010-04-04T08:10:42Z</time>
      </trkpt>
      <trkpt lat="47.32837" lon="0.03842">
        <ele>69.35</ele>
        <time>2010-04-04T08:10:48Z</time>
      </trkpt>
      <trkpt lat="47.32837" lon="0.03846">
        <ele>69.83</ele>
        <time>2010-04-04T08:10:49Z</time>
      </trkpt>
      <trkpt lat="47.32837" lon="0.0385">
        <ele>69.83</ele>
        <time>2010-04-04T08:10:50Z</time>
      </trkpt>
      <trkpt lat="47.32836" lon="0.03854">
        <ele>70.31</ele>
        <time>2010-04-04T08:10:51Z</time>
      </trkpt>
      <trkpt lat="47.32836" lon="0.03858">
        <ele>70.79</ele>
        <time>2010-04-04T08:10:52Z</time>
      </trkpt>
      <trkpt lat="47.32835" lon="0.03863">
        <ele>71.76</ele>
        <time>2010-04-04T08:10:53Z</time>
      </trkpt>
      <trkpt lat="47.32835" lon="0.03868">
        <ele>71.27</ele>
        <time>2010-04-04T08:10:54Z</time>
      </trkpt>
      <trkpt lat="47.32835" lon="0.03901">
        <ele>73.68</ele>
        <time>2010-04-04T08:11:01Z</time>
      </trkpt>
      <trkpt lat="47.32835" lon="0.03905">
        <ele>73.68</ele>
        <time>2010-04-04T08:11:02Z</time>
      </trkpt>
      <trkpt lat="47.32836" lon="0.03938">
        <ele>74.64</ele>
        <time>2010-04-04T08:11:09Z</time>
      </trkpt>
      <trkpt lat="47.32836" lon="0.03977">
        <ele>75.6</ele>
        <time>2010-04-04T08:11:17Z</time>
      </trkpt>
      <trkpt lat="47.32831" lon="0.04022">
        <ele>77.04</ele>
        <time>2010-04-04T08:11:26Z</time>
      </trkpt>
      <trkpt lat="47.32827" lon="0.04061">
        <ele>79.45</ele>
        <time>2010-04-04T08:11:35Z</time>
      </trkpt>
      <trkpt lat="47.32827" lon="0.04065">
        <ele>79.93</ele>
        <time>2010-04-04T08:11:36Z</time>
      </trkpt>
      <trkpt lat="47.32823" lon="0.04107">
        <ele>80.89</ele>
        <time>2010-04-04T08:11:46Z</time>
      </trkpt>
      <trkpt lat="47.32823" lon="0.04126">
        <ele>83.29</ele>
        <time>2010-04-04T08:11:51Z</time>
      </trkpt>
      <trkpt lat="47.32823" lon="0.04129">
        <ele>82.81</ele>
        <time>2010-04-04T08:11:52Z</time>
      </trkpt>
      <trkpt lat="47.32823" lon="0.04132">
        <ele>83.29</ele>
        <time>2010-04-04T08:11:53Z</time>
      </trkpt>
      <trkpt lat="47.32822" lon="0.04139">
        <ele>84.25</ele>
        <time>2010-04-04T08:11:55Z</time>
      </trkpt>
      <trkpt lat="47.32821" lon="0.04159">
        <ele>86.18</ele>
        <time>2010-04-04T08:12:01Z</time>
      </trkpt>
      <trkpt lat="47.3282" lon="0.04168">
        <ele>86.66</ele>
        <time>2010-04-04T08:12:03Z</time>
      </trkpt>
      <trkpt lat="47.32818" lon="0.04197">
        <ele>87.62</ele>
        <time>2010-04-04T08:12:10Z</time>
      </trkpt>
      <trkpt lat="47.32818" lon="0.04233">
        <ele>90.5</ele>
        <time>2010-04-04T08:12:19Z</time>
      </trkpt>
      <trkpt lat="47.3282" lon="0.04267">
        <ele>92.42</ele>
        <time>2010-04-04T08:12:27Z</time>
      </trkpt>
      <trkpt lat="47.32823" lon="0.04299">
        <ele>93.39</ele>
        <time>2010-04-04T08:12:34Z</time>
      </trkpt>
      <trkpt lat="47.32827" lon="0.04343">
        <ele>93.87</ele>
        <time>2010-04-04T08:12:43Z</time>
      </trkpt>
      <trkpt lat="47.32829" lon="0.04385">
        <ele>94.35</ele>
        <time>2010-04-04T08:12:51Z</time>
      </trkpt>
      <trkpt lat="47.32832" lon="0.04431">
        <ele>93.87</ele>
        <time>2010-04-04T08:12:59Z</time>
      </trkpt>
      <trkpt lat="47.3283" lon="0.04482">
        <ele>92.9</ele>
        <time>2010-04-04T08:13:08Z</time>
      </trkpt>
      <trkpt lat="47.32828" lon="0.04506">
        <ele>92.42</ele>
        <time>2010-04-04T08:13:14Z</time>
      </trkpt>
      <trkpt lat="47.32829" lon="0.04511">
        <ele>92.9</ele>
        <time>2010-04-04T08:13:15Z</time>
      </trkpt>
      <trkpt lat="47.32831" lon="0.04514">
        <ele>93.39</ele>
        <time>2010-04-04T08:13:16Z</time>
      </trkpt>
      <trkpt lat="47.32834" lon="0.04534">
        <ele>91.94</ele>
        <time>2010-04-04T08:13:21Z</time>
      </trkpt>
      <trkpt lat="47.32837" lon="0.04572">
        <ele>90.98</ele>
        <time>2010-04-04T08:13:27Z</time>
      </trkpt>
      <trkpt lat="47.32838" lon="0.04611">
        <ele>91.46</ele>
        <time>2010-04-04T08:13:33Z</time>
      </trkpt>
      <trkpt lat="47.32841" lon="0.04639">
        <ele>90.98</ele>
        <time>2010-04-04T08:13:38Z</time>
      </trkpt>
      <trkpt lat="47.32846" lon="0.04669">
        <ele>90.5</ele>
        <time>2010-04-04T08:13:43Z</time>
      </trkpt>
      <trkpt lat="47.32852" lon="0.04694">
        <ele>90.5</ele>
        <time>2010-04-04T08:13:47Z</time>
      </trkpt>
      <trkpt lat="47.32858" lon="0.04725">
        <ele>89.54</ele>
        <time>2010-04-04T08:13:52Z</time>
      </trkpt>
      <trkpt lat="47.32862" lon="0.04745">
        <ele>89.54</ele>
        <time>2010-04-04T08:13:56Z</time>
      </trkpt>
      <trkpt lat="47.32863" lon="0.04754">
        <ele>91.46</ele>
        <time>2010-04-04T08:13:59Z</time>
      </trkpt>
      <trkpt lat="47.32869" lon="0.04778">
        <ele>91.94</ele>
        <time>2010-04-04T08:14:04Z</time>
      </trkpt>
      <trkpt lat="47.3287" lon="0.0479">
        <ele>92.9</ele>
        <time>2010-04-04T08:14:06Z</time>
      </trkpt>
      <trkpt lat="47.32871" lon="0.04798">
        <ele>92.42</ele>
        <time>2010-04-04T08:14:08Z</time>
      </trkpt>
      <trkpt lat="47.32871" lon="0.04807">
        <ele>92.9</ele>
        <time>2010-04-04T08:14:09Z</time>
      </trkpt>
      <trkpt lat="47.32872" lon="0.04827">
        <ele>93.87</ele>
        <time>2010-04-04T08:14:13Z</time>
      </trkpt>
      <trkpt lat="47.32874" lon="0.04836">
        <ele>93.87</ele>
        <time>2010-04-04T08:14:14Z</time>
      </trkpt>
      <trkpt lat="47.32876" lon="0.04843">
        <ele>93.39</ele>
        <time>2010-04-04T08:14:15Z</time>
      </trkpt>
      <trkpt lat="47.32876" lon="0.0485">
        <ele>94.35</ele>
        <time>2010-04-04T08:14:16Z</time>
      </trkpt>
      <trkpt lat="47.32877" lon="0.04856">
        <ele>94.83</ele>
        <time>2010-04-04T08:14:17Z</time>
      </trkpt>
      <trkpt lat="47.32878" lon="0.04861">
        <ele>94.83</ele>
        <time>2010-04-04T08:14:18Z</time>
      </trkpt>
      <trkpt lat="47.32879" lon="0.04865">
        <ele>93.87</ele>
        <time>2010-04-04T08:14:19Z</time>
      </trkpt>
      <trkpt lat="47.3288" lon="0.04883">
        <ele>94.83</ele>
        <time>2010-04-04T08:14:23Z</time>
      </trkpt>
      <trkpt lat="47.3288" lon="0.04886">
        <ele>94.83</ele>
        <time>2010-04-04T08:14:24Z</time>
      </trkpt>
      <trkpt lat="47.32881" lon="0.04922">
        <ele>94.83</ele>
        <time>2010-04-04T08:14:30Z</time>
      </trkpt>
      <trkpt lat="47.32884" lon="0.04951">
        <ele>95.31</ele>
        <time>2010-04-04T08:14:36Z</time>
      </trkpt>
      <trkpt lat="47.32884" lon="0.04969">
        <ele>96.75</ele>
        <time>2010-04-04T08:14:42Z</time>
      </trkpt>
      <trkpt lat="47.32882" lon="0.04992">
        <ele>96.75</ele>
        <time>2010-04-04T08:14:48Z</time>
      </trkpt>
      <trkpt lat="47.3288" lon="0.05017">
        <ele>97.71</ele>
        <time>2010-04-04T08:14:54Z</time>
      </trkpt>
      <trkpt lat="47.32881" lon="0.0504">
        <ele>98.19</ele>
        <time>2010-04-04T08:15:00Z</time>
      </trkpt>
      <trkpt lat="47.32876" lon="0.05062">
        <ele>98.67</ele>
        <time>2010-04-04T08:15:07Z</time>
      </trkpt>
      <trkpt lat="47.32873" lon="0.05085">
        <ele>98.67</ele>
        <time>2010-04-04T08:15:14Z</time>
      </trkpt>
      <trkpt lat="47.32871" lon="0.05096">
        <ele>97.71</ele>
        <time>2010-04-04T08:15:17Z</time>
      </trkpt>
      <trkpt lat="47.32868" lon="0.05138">
        <ele>99.15</ele>
        <time>2010-04-04T08:15:27Z</time>
      </trkpt>
      <trkpt lat="47.32868" lon="0.05182">
        <ele>98.67</ele>
        <time>2010-04-04T08:15:36Z</time>
      </trkpt>
      <trkpt lat="47.3287" lon="0.05218">
        <ele>98.67</ele>
        <time>2010-04-04T08:15:43Z</time>
      </trkpt>
      <trkpt lat="47.32867" lon="0.05262">
        <ele>98.67</ele>
        <time>2010-04-04T08:15:52Z</time>
      </trkpt>
      <trkpt lat="47.32866" lon="0.05292">
        <ele>99.15</ele>
        <time>2010-04-04T08:15:58Z</time>
      </trkpt>
      <trkpt lat="47.32862" lon="0.05325">
        <ele>98.19</ele>
        <time>2010-04-04T08:16:05Z</time>
      </trkpt>
      <trkpt lat="47.32865" lon="0.05341">
        <ele>98.67</ele>
        <time>2010-04-04T08:16:11Z</time>
      </trkpt>
      <trkpt lat="47.32866" lon="0.05345">
        <ele>98.67</ele>
        <time>2010-04-04T08:16:41Z</time>
      </trkpt>
      <trkpt lat="47.3287" lon="0.05368">
        <ele>99.15</ele>
        <time>2010-04-04T08:16:47Z</time>
      </trkpt>
      <trkpt lat="47.32875" lon="0.05406">
        <ele>98.67</ele>
        <time>2010-04-04T08:16:54Z</time>
      </trkpt>
      <trkpt lat="47.3288" lon="0.05438">
        <ele>98.67</ele>
        <time>2010-04-04T08:17:00Z</time>
      </trkpt>
      <trkpt lat="47.32888" lon="0.05464">
        <ele>98.19</ele>
        <time>2010-04-04T08:17:06Z</time>
      </trkpt>
      <trkpt lat="47.32889" lon="0.05467">
        <ele>98.19</ele>
        <time>2010-04-04T08:17:07Z</time>
      </trkpt>
      <trkpt lat="47.32891" lon="0.05472">
        <ele>98.67</ele>
        <time>2010-04-04T08:17:08Z</time>
      </trkpt>
      <trkpt lat="47.32891" lon="0.05478">
        <ele>98.19</ele>
        <time>2010-04-04T08:17:09Z</time>
      </trkpt>
      <trkpt lat="47.32893" lon="0.05503">
        <ele>98.67</ele>
        <time>2010-04-04T08:17:14Z</time>
      </trkpt>
      <trkpt lat="47.32899" lon="0.05532">
        <ele>98.19</ele>
        <time>2010-04-04T08:17:20Z</time>
      </trkpt>
      <trkpt lat="47.32904" lon="0.05552">
        <ele>98.67</ele>
        <time>2010-04-04T08:17:25Z</time>
      </trkpt>
      <trkpt lat="47.3291" lon="0.05579">
        <ele>98.19</ele>
        <time>2010-04-04T08:17:31Z</time>
      </trkpt>
      <trkpt lat="47.32914" lon="0.05606">
        <ele>98.67</ele>
        <time>2010-04-04T08:17:36Z</time>
      </trkpt>
      <trkpt lat="47.32918" lon="0.05642">
        <ele>97.71</ele>
        <time>2010-04-04T08:17:42Z</time>
      </trkpt>
      <trkpt lat="47.32919" lon="0.05692">
        <ele>97.23</ele>
        <time>2010-04-04T08:17:49Z</time>
      </trkpt>
      <trkpt lat="47.32925" lon="0.05726">
        <ele>97.23</ele>
        <time>2010-04-04T08:17:55Z</time>
      </trkpt>
      <trkpt lat="47.3293" lon="0.05752">
        <ele>96.75</ele>
        <time>2010-04-04T08:18:00Z</time>
      </trkpt>
      <trkpt lat="47.32936" lon="0.05779">
        <ele>97.23</ele>
        <time>2010-04-04T08:18:05Z</time>
      </trkpt>
      <trkpt lat="47.32943" lon="0.0581">
        <ele>96.27</ele>
        <time>2010-04-04T08:18:10Z</time>
      </trkpt>
      <trkpt lat="47.32945" lon="0.05839">
        <ele>96.27</ele>
        <time>2010-04-04T08:18:15Z</time>
      </trkpt>
      <trkpt lat="47.32952" lon="0.0586">
        <ele>96.75</ele>
        <time>2010-04-04T08:18:20Z</time>
      </trkpt>
      <trkpt lat="47.32957" lon="0.0588">
        <ele>95.79</ele>
        <time>2010-04-04T08:18:24Z</time>
      </trkpt>
      <trkpt lat="47.32963" lon="0.05914">
        <ele>95.31</ele>
        <time>2010-04-04T08:18:30Z</time>
      </trkpt>
      <trkpt lat="47.32969" lon="0.05944">
        <ele>94.83</ele>
        <time>2010-04-04T08:18:37Z</time>
      </trkpt>
      <trkpt lat="47.32971" lon="0.05951">
        <ele>94.83</ele>
        <time>2010-04-04T08:18:43Z</time>
      </trkpt>
      <trkpt lat="47.32975" lon="0.05956">
        <ele>95.31</ele>
        <time>2010-04-04T08:18:53Z</time>
      </trkpt>
      <trkpt lat="47.32981" lon="0.05963">
        <ele>93.87</ele>
        <time>2010-04-04T08:19:02Z</time>
      </trkpt>
      <trkpt lat="47.32982" lon="0.05969">
        <ele>94.35</ele>
        <time>2010-04-04T08:19:15Z</time>
      </trkpt>
      <trkpt lat="47.32981" lon="0.05975">
        <ele>94.35</ele>
        <time>2010-04-04T08:19:19Z</time>
      </trkpt>
      <trkpt lat="47.3298" lon="0.05979">
        <ele>94.35</ele>
        <time>2010-04-04T08:19:27Z</time>
      </trkpt>
      <trkpt lat="47.32981" lon="0.05983">
        <ele>94.83</ele>
        <time>2010-04-04T08:19:32Z</time>
      </trkpt>
      <trkpt lat="47.32981" lon="0.05987">
        <ele>94.83</ele>
        <time>2010-04-04T08:19:33Z</time>
      </trkpt>
      <trkpt lat="47.3298" lon="0.0599">
        <ele>93.87</ele>
        <time>2010-04-04T08:19:34Z</time>
      </trkpt>
      <trkpt lat="47.3298" lon="0.05992">
        <ele>94.35</ele>
        <time>2010-04-04T08:19:35Z</time>
      </trkpt>
      <trkpt lat="47.3298" lon="0.05995">
        <ele>94.35</ele>
        <time>2010-04-04T08:19:36Z</time>
      </trkpt>
      <trkpt lat="47.32981" lon="0.05999">
        <ele>94.35</ele>
        <time>2010-04-04T08:19:37Z</time>
      </trkpt>
      <trkpt lat="47.32981" lon="0.06002">
        <ele>93.87</ele>
        <time>2010-04-04T08:19:38Z</time>
      </trkpt>
      <trkpt lat="47.32985" lon="0.06024">
        <ele>94.35</ele>
        <time>2010-04-04T08:19:43Z</time>
      </trkpt>
      <trkpt lat="47.32987" lon="0.06048">
        <ele>94.83</ele>
        <time>2010-04-04T08:19:49Z</time>
      </trkpt>
      <trkpt lat="47.3299" lon="0.06051">
        <ele>95.31</ele>
        <time>2010-04-04T08:19:50Z</time>
      </trkpt>
      <trkpt lat="47.32992" lon="0.06057">
        <ele>94.83</ele>
        <time>2010-04-04T08:19:51Z</time>
      </trkpt>
      <trkpt lat="47.32993" lon="0.06062">
        <ele>94.83</ele>
        <time>2010-04-04T08:19:52Z</time>
      </trkpt>
      <trkpt lat="47.32994" lon="0.06068">
        <ele>94.35</ele>
        <time>2010-04-04T08:19:53Z</time>
      </trkpt>
      <trkpt lat="47.32995" lon="0.06073">
        <ele>93.87</ele>
        <time>2010-04-04T08:19:54Z</time>
      </trkpt>
      <trkpt lat="47.32996" lon="0.06079">
        <ele>94.83</ele>
        <time>2010-04-04T08:19:55Z</time>
      </trkpt>
      <trkpt lat="47.32996" lon="0.06084">
        <ele>95.31</ele>
        <time>2010-04-04T08:19:56Z</time>
      </trkpt>
      <trkpt lat="47.32997" lon="0.06088">
        <ele>94.83</ele>
        <time>2010-04-04T08:19:57Z</time>
      </trkpt>
      <trkpt lat="47.32997" lon="0.06094">
        <ele>94.35</ele>
        <time>2010-04-04T08:19:58Z</time>
      </trkpt>
      <trkpt lat="47.33003" lon="0.06123">
        <ele>95.31</ele>
        <time>2010-04-04T08:20:04Z</time>
      </trkpt>
      <trkpt lat="47.3301" lon="0.06164">
        <ele>96.27</ele>
        <time>2010-04-04T08:20:12Z</time>
      </trkpt>
      <trkpt lat="47.33014" lon="0.06194">
        <ele>95.79</ele>
        <time>2010-04-04T08:20:19Z</time>
      </trkpt>
      <trkpt lat="47.33017" lon="0.062">
        <ele>95.31</ele>
        <time>2010-04-04T08:20:25Z</time>
      </trkpt>
      <trkpt lat="47.33023" lon="0.06207">
        <ele>96.27</ele>
        <time>2010-04-04T08:20:33Z</time>
      </trkpt>
      <trkpt lat="47.33023" lon="0.0621">
        <ele>96.27</ele>
        <time>2010-04-04T08:20:36Z</time>
      </trkpt>
      <trkpt lat="47.33025" lon="0.06213">
        <ele>95.79</ele>
        <time>2010-04-04T08:20:41Z</time>
      </trkpt>
      <trkpt lat="47.33025" lon="0.06213">
        <ele>96.27</ele>
        <time>2010-04-04T08:21:07Z</time>
      </trkpt>
      <trkpt lat="47.33025" lon="0.06215">
        <ele>96.27</ele>
        <time>2010-04-04T08:21:08Z</time>
      </trkpt>
      <trkpt lat="47.33024" lon="0.06216">
        <ele>95.31</ele>
        <time>2010-04-04T08:21:09Z</time>
      </trkpt>
      <trkpt lat="47.33021" lon="0.06219">
        <ele>96.27</ele>
        <time>2010-04-04T08:21:12Z</time>
      </trkpt>
      <trkpt lat="47.33021" lon="0.06234">
        <ele>95.79</ele>
        <time>2010-04-04T08:21:17Z</time>
      </trkpt>
      <trkpt lat="47.33024" lon="0.06253">
        <ele>96.75</ele>
        <time>2010-04-04T08:21:23Z</time>
      </trkpt>
      <trkpt lat="47.33029" lon="0.06276">
        <ele>97.23</ele>
        <time>2010-04-04T08:21:29Z</time>
      </trkpt>
      <trkpt lat="47.33034" lon="0.06315">
        <ele>97.23</ele>
        <time>2010-04-04T08:21:37Z</time>
      </trkpt>
      <trkpt lat="47.33028" lon="0.06335">
        <ele>97.71</ele>
        <time>2010-04-04T08:21:43Z</time>
      </trkpt>
      <trkpt lat="47.33019" lon="0.06355">
        <ele>97.71</ele>
        <time>2010-04-04T08:21:48Z</time>
      </trkpt>
      <trkpt lat="47.33007" lon="0.0638">
        <ele>98.19</ele>
        <time>2010-04-04T08:21:54Z</time>
      </trkpt>
      <trkpt lat="47.32998" lon="0.06392">
        <ele>98.19</ele>
        <time>2010-04-04T08:21:59Z</time>
      </trkpt>
      <trkpt lat="47.32987" lon="0.06406">
        <ele>97.23</ele>
        <time>2010-04-04T08:22:04Z</time>
      </trkpt>
      <trkpt lat="47.32965" lon="0.06436">
        <ele>97.23</ele>
        <time>2010-04-04T08:22:11Z</time>
      </trkpt>
      <trkpt lat="47.32951" lon="0.06457">
        <ele>97.71</ele>
        <time>2010-04-04T08:22:17Z</time>
      </trkpt>
      <trkpt lat="47.32947" lon="0.06464">
        <ele>96.75</ele>
        <time>2010-04-04T08:22:19Z</time>
      </trkpt>
      <trkpt lat="47.3294" lon="0.06484">
        <ele>96.27</ele>
        <time>2010-04-04T08:22:25Z</time>
      </trkpt>
      <trkpt lat="47.32932" lon="0.06513">
        <ele>94.83</ele>
        <time>2010-04-04T08:22:31Z</time>
      </trkpt>
      <trkpt lat="47.32928" lon="0.0653">
        <ele>93.87</ele>
        <time>2010-04-04T08:22:35Z</time>
      </trkpt>
      <trkpt lat="47.32928" lon="0.06552">
        <ele>92.9</ele>
        <time>2010-04-04T08:22:41Z</time>
      </trkpt>
      <trkpt lat="47.32925" lon="0.06589">
        <ele>91.46</ele>
        <time>2010-04-04T08:22:47Z</time>
      </trkpt>
      <trkpt lat="47.3292" lon="0.06622">
        <ele>90.5</ele>
        <time>2010-04-04T08:22:53Z</time>
      </trkpt>
      <trkpt lat="47.32921" lon="0.06644">
        <ele>88.58</ele>
        <time>2010-04-04T08:22:59Z</time>
      </trkpt>
      <trkpt lat="47.32921" lon="0.06649">
        <ele>88.58</ele>
        <time>2010-04-04T08:23:02Z</time>
      </trkpt>
      <trkpt lat="47.32918" lon="0.0667">
        <ele>87.14</ele>
        <time>2010-04-04T08:23:07Z</time>
      </trkpt>
      <trkpt lat="47.32917" lon="0.0669">
        <ele>86.66</ele>
        <time>2010-04-04T08:23:12Z</time>
      </trkpt>
      <trkpt lat="47.32917" lon="0.06721">
        <ele>84.25</ele>
        <time>2010-04-04T08:23:18Z</time>
      </trkpt>
      <trkpt lat="47.32918" lon="0.06731">
        <ele>85.21</ele>
        <time>2010-04-04T08:23:19Z</time>
      </trkpt>
      <trkpt lat="47.32919" lon="0.06759">
        <ele>82.81</ele>
        <time>2010-04-04T08:23:23Z</time>
      </trkpt>
      <trkpt lat="47.32917" lon="0.06796">
        <ele>80.89</ele>
        <time>2010-04-04T08:23:29Z</time>
      </trkpt>
      <trkpt lat="47.32917" lon="0.0682">
        <ele>79.45</ele>
        <time>2010-04-04T08:23:34Z</time>
      </trkpt>
      <trkpt lat="47.32917" lon="0.06829">
        <ele>79.45</ele>
        <time>2010-04-04T08:23:35Z</time>
      </trkpt>
      <trkpt lat="47.32919" lon="0.06863">
        <ele>78.97</ele>
        <time>2010-04-04T08:23:40Z</time>
      </trkpt>
      <trkpt lat="47.32918" lon="0.06871">
        <ele>78.48</ele>
        <time>2010-04-04T08:23:42Z</time>
      </trkpt>
      <trkpt lat="47.32917" lon="0.06876">
        <ele>78</ele>
        <time>2010-04-04T08:23:43Z</time>
      </trkpt>
      <trkpt lat="47.32917" lon="0.06881">
        <ele>78</ele>
        <time>2010-04-04T08:23:44Z</time>
      </trkpt>
      <trkpt lat="47.32916" lon="0.06908">
        <ele>76.56</ele>
        <time>2010-04-04T08:23:51Z</time>
      </trkpt>
      <trkpt lat="47.32915" lon="0.06924">
        <ele>76.56</ele>
        <time>2010-04-04T08:23:57Z</time>
      </trkpt>
      <trkpt lat="47.32915" lon="0.06927">
        <ele>76.56</ele>
        <time>2010-04-04T08:23:58Z</time>
      </trkpt>
      <trkpt lat="47.32915" lon="0.0693">
        <ele>77.04</ele>
        <time>2010-04-04T08:23:59Z</time>
      </trkpt>
      <trkpt lat="47.32914" lon="0.06942">
        <ele>76.56</ele>
        <time>2010-04-04T08:24:05Z</time>
      </trkpt>
      <trkpt lat="47.32914" lon="0.06945">
        <ele>75.12</ele>
        <time>2010-04-04T08:24:06Z</time>
      </trkpt>
      <trkpt lat="47.32914" lon="0.06947">
        <ele>76.08</ele>
        <time>2010-04-04T08:24:07Z</time>
      </trkpt>
      <trkpt lat="47.32914" lon="0.0695">
        <ele>75.6</ele>
        <time>2010-04-04T08:24:08Z</time>
      </trkpt>
      <trkpt lat="47.32913" lon="0.06954">
        <ele>75.12</ele>
        <time>2010-04-04T08:24:10Z</time>
      </trkpt>
      <trkpt lat="47.32912" lon="0.06957">
        <ele>75.12</ele>
        <time>2010-04-04T08:24:11Z</time>
      </trkpt>
      <trkpt lat="47.32912" lon="0.0696">
        <ele>75.6</ele>
        <time>2010-04-04T08:24:12Z</time>
      </trkpt>
      <trkpt lat="47.3291" lon="0.06985">
        <ele>74.16</ele>
        <time>2010-04-04T08:24:19Z</time>
      </trkpt>
      <trkpt lat="47.3291" lon="0.07006">
        <ele>73.2</ele>
        <time>2010-04-04T08:24:25Z</time>
      </trkpt>
      <trkpt lat="47.32909" lon="0.07029">
        <ele>72.72</ele>
        <time>2010-04-04T08:24:31Z</time>
      </trkpt>
      <trkpt lat="47.32905" lon="0.07062">
        <ele>71.27</ele>
        <time>2010-04-04T08:24:38Z</time>
      </trkpt>
      <trkpt lat="47.32903" lon="0.07085">
        <ele>70.79</ele>
        <time>2010-04-04T08:24:45Z</time>
      </trkpt>
      <trkpt lat="47.32901" lon="0.07107">
        <ele>70.31</ele>
        <time>2010-04-04T08:24:51Z</time>
      </trkpt>
      <trkpt lat="47.32896" lon="0.0714">
        <ele>68.39</ele>
        <time>2010-04-04T08:24:58Z</time>
      </trkpt>
      <trkpt lat="47.3289" lon="0.07158">
        <ele>68.39</ele>
        <time>2010-04-04T08:25:02Z</time>
      </trkpt>
      <trkpt lat="47.32884" lon="0.07161">
        <ele>68.39</ele>
        <time>2010-04-04T08:25:05Z</time>
      </trkpt>
      <trkpt lat="47.32882" lon="0.07161">
        <ele>67.91</ele>
        <time>2010-04-04T08:25:06Z</time>
      </trkpt>
      <trkpt lat="47.3288" lon="0.0716">
        <ele>68.39</ele>
        <time>2010-04-04T08:25:07Z</time>
      </trkpt>
      <trkpt lat="47.32862" lon="0.07163">
        <ele>68.39</ele>
        <time>2010-04-04T08:25:14Z</time>
      </trkpt>
      <trkpt lat="47.32846" lon="0.07165">
        <ele>67.43</ele>
        <time>2010-04-04T08:25:19Z</time>
      </trkpt>
      <trkpt lat="47.32839" lon="0.07168">
        <ele>66.95</ele>
        <time>2010-04-04T08:25:24Z</time>
      </trkpt>
      <trkpt lat="47.32837" lon="0.0717">
        <ele>66.95</ele>
        <time>2010-04-04T08:25:26Z</time>
      </trkpt>
      <trkpt lat="47.32835" lon="0.07172">
        <ele>66.95</ele>
        <time>2010-04-04T08:25:28Z</time>
      </trkpt>
      <trkpt lat="47.32834" lon="0.07174">
        <ele>66.47</ele>
        <time>2010-04-04T08:25:29Z</time>
      </trkpt>
      <trkpt lat="47.32832" lon="0.07191">
        <ele>67.91</ele>
        <time>2010-04-04T08:25:34Z</time>
      </trkpt>
      <trkpt lat="47.32835" lon="0.07212">
        <ele>68.39</ele>
        <time>2010-04-04T08:25:40Z</time>
      </trkpt>
      <trkpt lat="47.32837" lon="0.07235">
        <ele>69.35</ele>
        <time>2010-04-04T08:25:47Z</time>
      </trkpt>
      <trkpt lat="47.32836" lon="0.07251">
        <ele>70.31</ele>
        <time>2010-04-04T08:25:53Z</time>
      </trkpt>
      <trkpt lat="47.32835" lon="0.07254">
        <ele>71.76</ele>
        <time>2010-04-04T08:25:55Z</time>
      </trkpt>
      <trkpt lat="47.32834" lon="0.07262">
        <ele>72.24</ele>
        <time>2010-04-04T08:25:58Z</time>
      </trkpt>
      <trkpt lat="47.32829" lon="0.07273">
        <ele>73.2</ele>
        <time>2010-04-04T08:26:05Z</time>
      </trkpt>
      <trkpt lat="47.32824" lon="0.0728">
        <ele>75.12</ele>
        <time>2010-04-04T08:26:10Z</time>
      </trkpt>
      <trkpt lat="47.32822" lon="0.07281">
        <ele>75.12</ele>
        <time>2010-04-04T08:26:11Z</time>
      </trkpt>
      <trkpt lat="47.32819" lon="0.07284">
        <ele>75.6</ele>
        <time>2010-04-04T08:26:14Z</time>
      </trkpt>
      <trkpt lat="47.32813" lon="0.07288">
        <ele>76.56</ele>
        <time>2010-04-04T08:26:18Z</time>
      </trkpt>
      <trkpt lat="47.32812" lon="0.0729">
        <ele>75.6</ele>
        <time>2010-04-04T08:26:19Z</time>
      </trkpt>
      <trkpt lat="47.32804" lon="0.07295">
        <ele>78</ele>
        <time>2010-04-04T08:26:26Z</time>
      </trkpt>
      <trkpt lat="47.32799" lon="0.073">
        <ele>78.48</ele>
        <time>2010-04-04T08:26:32Z</time>
      </trkpt>
      <trkpt lat="47.32799" lon="0.07302">
        <ele>77.52</ele>
        <time>2010-04-04T08:26:40Z</time>
      </trkpt>
      <trkpt lat="47.32799" lon="0.07309">
        <ele>78</ele>
        <time>2010-04-04T08:26:54Z</time>
      </trkpt>
      <trkpt lat="47.32803" lon="0.0732">
        <ele>79.45</ele>
        <time>2010-04-04T08:27:02Z</time>
      </trkpt>
      <trkpt lat="47.32808" lon="0.07328">
        <ele>79.93</ele>
        <time>2010-04-04T08:27:09Z</time>
      </trkpt>
      <trkpt lat="47.32812" lon="0.07336">
        <ele>81.37</ele>
        <time>2010-04-04T08:27:16Z</time>
      </trkpt>
      <trkpt lat="47.32814" lon="0.07341">
        <ele>81.85</ele>
        <time>2010-04-04T08:27:21Z</time>
      </trkpt>
      <trkpt lat="47.32815" lon="0.07346">
        <ele>81.37</ele>
        <time>2010-04-04T08:27:27Z</time>
      </trkpt>
      <trkpt lat="47.32815" lon="0.07348">
        <ele>81.85</ele>
        <time>2010-04-04T08:27:34Z</time>
      </trkpt>
      <trkpt lat="47.32817" lon="0.07356">
        <ele>84.25</ele>
        <time>2010-04-04T08:27:43Z</time>
      </trkpt>
      <trkpt lat="47.32817" lon="0.07362">
        <ele>83.29</ele>
        <time>2010-04-04T08:28:00Z</time>
      </trkpt>
      <trkpt lat="47.32818" lon="0.07373">
        <ele>83.77</ele>
        <time>2010-04-04T08:28:06Z</time>
      </trkpt>
      <trkpt lat="47.32824" lon="0.07383">
        <ele>84.73</ele>
        <time>2010-04-04T08:28:14Z</time>
      </trkpt>
      <trkpt lat="47.32827" lon="0.07386">
        <ele>84.25</ele>
        <time>2010-04-04T08:28:20Z</time>
      </trkpt>
      <trkpt lat="47.32828" lon="0.07388">
        <ele>84.73</ele>
        <time>2010-04-04T08:28:21Z</time>
      </trkpt>
      <trkpt lat="47.32835" lon="0.07395">
        <ele>85.69</ele>
        <time>2010-04-04T08:28:28Z</time>
      </trkpt>
      <trkpt lat="47.32842" lon="0.074">
        <ele>84.73</ele>
        <time>2010-04-04T08:28:35Z</time>
      </trkpt>
      <trkpt lat="47.32846" lon="0.07403">
        <ele>84.25</ele>
        <time>2010-04-04T08:28:39Z</time>
      </trkpt>
      <trkpt lat="47.32853" lon="0.07404">
        <ele>82.81</ele>
        <time>2010-04-04T08:28:45Z</time>
      </trkpt>
      <trkpt lat="47.32858" lon="0.07405">
        <ele>82.81</ele>
        <time>2010-04-04T08:28:51Z</time>
      </trkpt>
      <trkpt lat="47.32865" lon="0.07406">
        <ele>81.85</ele>
        <time>2010-04-04T08:28:59Z</time>
      </trkpt>
      <trkpt lat="47.32865" lon="0.07408">
        <ele>81.85</ele>
        <time>2010-04-04T08:29:04Z</time>
      </trkpt>
      <trkpt lat="47.32864" lon="0.07408">
        <ele>81.85</ele>
        <time>2010-04-04T08:29:11Z</time>
      </trkpt>
      <trkpt lat="47.32864" lon="0.07417">
        <ele>81.85</ele>
        <time>2010-04-04T08:29:16Z</time>
      </trkpt>
      <trkpt lat="47.32865" lon="0.07432">
        <ele>83.77</ele>
        <time>2010-04-04T08:29:22Z</time>
      </trkpt>
      <trkpt lat="47.32865" lon="0.07446">
        <ele>84.25</ele>
        <time>2010-04-04T08:29:27Z</time>
      </trkpt>
      <trkpt lat="47.32868" lon="0.07467">
        <ele>86.66</ele>
        <time>2010-04-04T08:29:35Z</time>
      </trkpt>
      <trkpt lat="47.32869" lon="0.07481">
        <ele>86.66</ele>
        <time>2010-04-04T08:29:41Z</time>
      </trkpt>
      <trkpt lat="47.32868" lon="0.07501">
        <ele>87.62</ele>
        <time>2010-04-04T08:29:49Z</time>
      </trkpt>
      <trkpt lat="47.32869" lon="0.07504">
        <ele>89.06</ele>
        <time>2010-04-04T08:29:50Z</time>
      </trkpt>
      <trkpt lat="47.32871" lon="0.07517">
        <ele>89.54</ele>
        <time>2010-04-04T08:29:55Z</time>
      </trkpt>
      <trkpt lat="47.3287" lon="0.07527">
        <ele>90.5</ele>
        <time>2010-04-04T08:29:59Z</time>
      </trkpt>
      <trkpt lat="47.32869" lon="0.07552">
        <ele>91.46</ele>
        <time>2010-04-04T08:30:08Z</time>
      </trkpt>
      <trkpt lat="47.32869" lon="0.07577">
        <ele>93.39</ele>
        <time>2010-04-04T08:30:17Z</time>
      </trkpt>
      <trkpt lat="47.3287" lon="0.07604">
        <ele>94.83</ele>
        <time>2010-04-04T08:30:26Z</time>
      </trkpt>
      <trkpt lat="47.32871" lon="0.07627">
        <ele>95.79</ele>
        <time>2010-04-04T08:30:33Z</time>
      </trkpt>
      <trkpt lat="47.32873" lon="0.07653">
        <ele>96.27</ele>
        <time>2010-04-04T08:30:40Z</time>
      </trkpt>
      <trkpt lat="47.32872" lon="0.0766">
        <ele>97.71</ele>
        <time>2010-04-04T08:30:42Z</time>
      </trkpt>
      <trkpt lat="47.32872" lon="0.07693">
        <ele>97.71</ele>
        <time>2010-04-04T08:30:51Z</time>
      </trkpt>
      <trkpt lat="47.32873" lon="0.0772">
        <ele>98.67</ele>
        <time>2010-04-04T08:30:57Z</time>
      </trkpt>
      <trkpt lat="47.32876" lon="0.07748">
        <ele>99.15</ele>
        <time>2010-04-04T08:31:05Z</time>
      </trkpt>
      <trkpt lat="47.32876" lon="0.07755">
        <ele>99.63</ele>
        <time>2010-04-04T08:31:14Z</time>
      </trkpt>
      <trkpt lat="47.32875" lon="0.07759">
        <ele>99.15</ele>
        <time>2010-04-04T08:33:11Z</time>
      </trkpt>
      <trkpt lat="47.32875" lon="0.07778">
        <ele>99.15</ele>
        <time>2010-04-04T08:33:16Z</time>
      </trkpt>
      <trkpt lat="47.32876" lon="0.07816">
        <ele>99.63</ele>
        <time>2010-04-04T08:33:24Z</time>
      </trkpt>
      <trkpt lat="47.32878" lon="0.0785">
        <ele>99.63</ele>
        <time>2010-04-04T08:33:30Z</time>
      </trkpt>
      <trkpt lat="47.32878" lon="0.07881">
        <ele>99.63</ele>
        <time>2010-04-04T08:33:36Z</time>
      </trkpt>
      <trkpt lat="47.32881" lon="0.07921">
        <ele>98.19</ele>
        <time>2010-04-04T08:33:43Z</time>
      </trkpt>
      <trkpt lat="47.32889" lon="0.07957">
        <ele>99.63</ele>
        <time>2010-04-04T08:33:49Z</time>
      </trkpt>
      <trkpt lat="47.32891" lon="0.07963">
        <ele>99.63</ele>
        <time>2010-04-04T08:33:50Z</time>
      </trkpt>
      <trkpt lat="47.32892" lon="0.07971">
        <ele>98.67</ele>
        <time>2010-04-04T08:33:51Z</time>
      </trkpt>
      <trkpt lat="47.32895" lon="0.07977">
        <ele>99.15</ele>
        <time>2010-04-04T08:33:52Z</time>
      </trkpt>
      <trkpt lat="47.32897" lon="0.07983">
        <ele>100.11</ele>
        <time>2010-04-04T08:33:53Z</time>
      </trkpt>
      <trkpt lat="47.32899" lon="0.07989">
        <ele>100.11</ele>
        <time>2010-04-04T08:33:54Z</time>
      </trkpt>
      <trkpt lat="47.32901" lon="0.07996">
        <ele>100.11</ele>
        <time>2010-04-04T08:33:55Z</time>
      </trkpt>
      <trkpt lat="47.32904" lon="0.08003">
        <ele>101.08</ele>
        <time>2010-04-04T08:33:56Z</time>
      </trkpt>
      <trkpt lat="47.32906" lon="0.08009">
        <ele>99.15</ele>
        <time>2010-04-04T08:33:57Z</time>
      </trkpt>
      <trkpt lat="47.32908" lon="0.08015">
        <ele>100.11</ele>
        <time>2010-04-04T08:33:58Z</time>
      </trkpt>
      <trkpt lat="47.3291" lon="0.08022">
        <ele>99.63</ele>
        <time>2010-04-04T08:33:59Z</time>
      </trkpt>
      <trkpt lat="47.32917" lon="0.08042">
        <ele>100.6</ele>
        <time>2010-04-04T08:34:02Z</time>
      </trkpt>
      <trkpt lat="47.32927" lon="0.08067">
        <ele>99.63</ele>
        <time>2010-04-04T08:34:06Z</time>
      </trkpt>
      <trkpt lat="47.32937" lon="0.08094">
        <ele>99.63</ele>
        <time>2010-04-04T08:34:10Z</time>
      </trkpt>
      <trkpt lat="47.32955" lon="0.08142">
        <ele>99.15</ele>
        <time>2010-04-04T08:34:16Z</time>
      </trkpt>
      <trkpt lat="47.32958" lon="0.08151">
        <ele>98.67</ele>
        <time>2010-04-04T08:34:17Z</time>
      </trkpt>
      <trkpt lat="47.32963" lon="0.08169">
        <ele>97.71</ele>
        <time>2010-04-04T08:34:19Z</time>
      </trkpt>
      <trkpt lat="47.32966" lon="0.08178">
        <ele>97.71</ele>
        <time>2010-04-04T08:34:20Z</time>
      </trkpt>
      <trkpt lat="47.32969" lon="0.08187">
        <ele>96.27</ele>
        <time>2010-04-04T08:34:21Z</time>
      </trkpt>
      <trkpt lat="47.32974" lon="0.08205">
        <ele>95.79</ele>
        <time>2010-04-04T08:34:23Z</time>
      </trkpt>
      <trkpt lat="47.3298" lon="0.08225">
        <ele>94.35</ele>
        <time>2010-04-04T08:34:25Z</time>
      </trkpt>
      <trkpt lat="47.32987" lon="0.08243">
        <ele>94.35</ele>
        <time>2010-04-04T08:34:27Z</time>
      </trkpt>
      <trkpt lat="47.3299" lon="0.08252">
        <ele>94.35</ele>
        <time>2010-04-04T08:34:28Z</time>
      </trkpt>
      <trkpt lat="47.32993" lon="0.0826">
        <ele>94.35</ele>
        <time>2010-04-04T08:34:29Z</time>
      </trkpt>
      <trkpt lat="47.33017" lon="0.08322">
        <ele>92.42</ele>
        <time>2010-04-04T08:34:35Z</time>
      </trkpt>
      <trkpt lat="47.33028" lon="0.0835">
        <ele>91.46</ele>
        <time>2010-04-04T08:34:38Z</time>
      </trkpt>
      <trkpt lat="47.3303" lon="0.08359">
        <ele>91.94</ele>
        <time>2010-04-04T08:34:39Z</time>
      </trkpt>
      <trkpt lat="47.3305" lon="0.08426">
        <ele>90.5</ele>
        <time>2010-04-04T08:34:45Z</time>
      </trkpt>
      <trkpt lat="47.3306" lon="0.08463">
        <ele>90.02</ele>
        <time>2010-04-04T08:34:48Z</time>
      </trkpt>
      <trkpt lat="47.33063" lon="0.08474">
        <ele>90.02</ele>
        <time>2010-04-04T08:34:49Z</time>
      </trkpt>
      <trkpt lat="47.33066" lon="0.08485">
        <ele>89.54</ele>
        <time>2010-04-04T08:34:50Z</time>
      </trkpt>
      <trkpt lat="47.3307" lon="0.08496">
        <ele>88.1</ele>
        <time>2010-04-04T08:34:51Z</time>
      </trkpt>
      <trkpt lat="47.33074" lon="0.08505">
        <ele>87.14</ele>
        <time>2010-04-04T08:34:52Z</time>
      </trkpt>
      <trkpt lat="47.33083" lon="0.08523">
        <ele>86.18</ele>
        <time>2010-04-04T08:34:54Z</time>
      </trkpt>
      <trkpt lat="47.33088" lon="0.08532">
        <ele>86.66</ele>
        <time>2010-04-04T08:34:55Z</time>
      </trkpt>
      <trkpt lat="47.33092" lon="0.08545">
        <ele>87.62</ele>
        <time>2010-04-04T08:34:56Z</time>
      </trkpt>
      <trkpt lat="47.33095" lon="0.08556">
        <ele>86.18</ele>
        <time>2010-04-04T08:34:57Z</time>
      </trkpt>
      <trkpt lat="47.33097" lon="0.08565">
        <ele>86.18</ele>
        <time>2010-04-04T08:34:58Z</time>
      </trkpt>
      <trkpt lat="47.33101" lon="0.08573">
        <ele>86.18</ele>
        <time>2010-04-04T08:34:59Z</time>
      </trkpt>
      <trkpt lat="47.33105" lon="0.08581">
        <ele>87.14</ele>
        <time>2010-04-04T08:35:00Z</time>
      </trkpt>
      <trkpt lat="47.33109" lon="0.08592">
        <ele>87.14</ele>
        <time>2010-04-04T08:35:01Z</time>
      </trkpt>
      <trkpt lat="47.33112" lon="0.08602">
        <ele>86.66</ele>
        <time>2010-04-04T08:35:02Z</time>
      </trkpt>
      <trkpt lat="47.33115" lon="0.08619">
        <ele>87.62</ele>
        <time>2010-04-04T08:35:04Z</time>
      </trkpt>
      <trkpt lat="47.33116" lon="0.08631">
        <ele>86.66</ele>
        <time>2010-04-04T08:35:05Z</time>
      </trkpt>
      <trkpt lat="47.33118" lon="0.0864">
        <ele>87.62</ele>
        <time>2010-04-04T08:35:06Z</time>
      </trkpt>
      <trkpt lat="47.33121" lon="0.08648">
        <ele>88.1</ele>
        <time>2010-04-04T08:35:07Z</time>
      </trkpt>
      <trkpt lat="47.33123" lon="0.08656">
        <ele>89.06</ele>
        <time>2010-04-04T08:35:08Z</time>
      </trkpt>
      <trkpt lat="47.33127" lon="0.08665">
        <ele>88.58</ele>
        <time>2010-04-04T08:35:09Z</time>
      </trkpt>
      <trkpt lat="47.33128" lon="0.08677">
        <ele>89.54</ele>
        <time>2010-04-04T08:35:10Z</time>
      </trkpt>
      <trkpt lat="47.33131" lon="0.08699">
        <ele>90.02</ele>
        <time>2010-04-04T08:35:12Z</time>
      </trkpt>
      <trkpt lat="47.33142" lon="0.08761">
        <ele>90.98</ele>
        <time>2010-04-04T08:35:19Z</time>
      </trkpt>
      <trkpt lat="47.33149" lon="0.08779">
        <ele>92.42</ele>
        <time>2010-04-04T08:35:22Z</time>
      </trkpt>
      <trkpt lat="47.33156" lon="0.08806">
        <ele>91.94</ele>
        <time>2010-04-04T08:35:27Z</time>
      </trkpt>
      <trkpt lat="47.33164" lon="0.08823">
        <ele>94.35</ele>
        <time>2010-04-04T08:35:30Z</time>
      </trkpt>
      <trkpt lat="47.33166" lon="0.08829">
        <ele>93.39</ele>
        <time>2010-04-04T08:35:31Z</time>
      </trkpt>
      <trkpt lat="47.33167" lon="0.08834">
        <ele>94.35</ele>
        <time>2010-04-04T08:35:32Z</time>
      </trkpt>
      <trkpt lat="47.33169" lon="0.08839">
        <ele>93.87</ele>
        <time>2010-04-04T08:35:33Z</time>
      </trkpt>
      <trkpt lat="47.3317" lon="0.08844">
        <ele>94.35</ele>
        <time>2010-04-04T08:35:34Z</time>
      </trkpt>
      <trkpt lat="47.33171" lon="0.08849">
        <ele>94.83</ele>
        <time>2010-04-04T08:35:35Z</time>
      </trkpt>
      <trkpt lat="47.33173" lon="0.08855">
        <ele>94.83</ele>
        <time>2010-04-04T08:35:36Z</time>
      </trkpt>
      <trkpt lat="47.33179" lon="0.08881">
        <ele>93.39</ele>
        <time>2010-04-04T08:35:40Z</time>
      </trkpt>
      <trkpt lat="47.33183" lon="0.08899">
        <ele>93.39</ele>
        <time>2010-04-04T08:35:43Z</time>
      </trkpt>
      <trkpt lat="47.33185" lon="0.08905">
        <ele>94.35</ele>
        <time>2010-04-04T08:35:44Z</time>
      </trkpt>
      <trkpt lat="47.33189" lon="0.08918">
        <ele>95.31</ele>
        <time>2010-04-04T08:35:46Z</time>
      </trkpt>
      <trkpt lat="47.33202" lon="0.08965">
        <ele>96.27</ele>
        <time>2010-04-04T08:35:53Z</time>
      </trkpt>
      <trkpt lat="47.3321" lon="0.0899">
        <ele>95.79</ele>
        <time>2010-04-04T08:35:57Z</time>
      </trkpt>
      <trkpt lat="47.33212" lon="0.08996">
        <ele>96.27</ele>
        <time>2010-04-04T08:35:58Z</time>
      </trkpt>
      <trkpt lat="47.33213" lon="0.09002">
        <ele>96.27</ele>
        <time>2010-04-04T08:35:59Z</time>
      </trkpt>
      <trkpt lat="47.33218" lon="0.09019">
        <ele>96.27</ele>
        <time>2010-04-04T08:36:02Z</time>
      </trkpt>
      <trkpt lat="47.3322" lon="0.09025">
        <ele>96.27</ele>
        <time>2010-04-04T08:36:03Z</time>
      </trkpt>
      <trkpt lat="47.33222" lon="0.09031">
        <ele>96.27</ele>
        <time>2010-04-04T08:36:04Z</time>
      </trkpt>
      <trkpt lat="47.3323" lon="0.09047">
        <ele>97.23</ele>
        <time>2010-04-04T08:36:07Z</time>
      </trkpt>
      <trkpt lat="47.33251" lon="0.09088">
        <ele>97.23</ele>
        <time>2010-04-04T08:36:14Z</time>
      </trkpt>
      <trkpt lat="47.33261" lon="0.09105">
        <ele>97.23</ele>
        <time>2010-04-04T08:36:17Z</time>
      </trkpt>
      <trkpt lat="47.33288" lon="0.09151">
        <ele>96.27</ele>
        <time>2010-04-04T08:36:25Z</time>
      </trkpt>
      <trkpt lat="47.33314" lon="0.09196">
        <ele>96.27</ele>
        <time>2010-04-04T08:36:33Z</time>
      </trkpt>
      <trkpt lat="47.33349" lon="0.09254">
        <ele>97.23</ele>
        <time>2010-04-04T08:36:43Z</time>
      </trkpt>
      <trkpt lat="47.33371" lon="0.09296">
        <ele>96.75</ele>
        <time>2010-04-04T08:36:50Z</time>
      </trkpt>
      <trkpt lat="47.33376" lon="0.09307">
        <ele>95.79</ele>
        <time>2010-04-04T08:36:52Z</time>
      </trkpt>
      <trkpt lat="47.33379" lon="0.0931">
        <ele>95.31</ele>
        <time>2010-04-04T08:36:53Z</time>
      </trkpt>
      <trkpt lat="47.3338" lon="0.09313">
        <ele>95.31</ele>
        <time>2010-04-04T08:36:54Z</time>
      </trkpt>
      <trkpt lat="47.33382" lon="0.09318">
        <ele>95.31</ele>
        <time>2010-04-04T08:36:59Z</time>
      </trkpt>
      <trkpt lat="47.33385" lon="0.09321">
        <ele>95.31</ele>
        <time>2010-04-04T08:37:03Z</time>
      </trkpt>
      <trkpt lat="47.33386" lon="0.09321">
        <ele>95.79</ele>
        <time>2010-04-04T08:37:04Z</time>
      </trkpt>
      <trkpt lat="47.3339" lon="0.09323">
        <ele>95.79</ele>
        <time>2010-04-04T08:37:10Z</time>
      </trkpt>
      <trkpt lat="47.33395" lon="0.09329">
        <ele>94.83</ele>
        <time>2010-04-04T08:37:16Z</time>
      </trkpt>
      <trkpt lat="47.33397" lon="0.09331">
        <ele>94.83</ele>
        <time>2010-04-04T08:37:17Z</time>
      </trkpt>
      <trkpt lat="47.33401" lon="0.09333">
        <ele>95.79</ele>
        <time>2010-04-04T08:37:18Z</time>
      </trkpt>
      <trkpt lat="47.33404" lon="0.09333">
        <ele>95.31</ele>
        <time>2010-04-04T08:37:19Z</time>
      </trkpt>
      <trkpt lat="47.33407" lon="0.0933">
        <ele>94.83</ele>
        <time>2010-04-04T08:37:20Z</time>
      </trkpt>
      <trkpt lat="47.33409" lon="0.09325">
        <ele>95.79</ele>
        <time>2010-04-04T08:37:21Z</time>
      </trkpt>
      <trkpt lat="47.33411" lon="0.0932">
        <ele>96.75</ele>
        <time>2010-04-04T08:37:22Z</time>
      </trkpt>
      <trkpt lat="47.33412" lon="0.09316">
        <ele>95.79</ele>
        <time>2010-04-04T08:37:23Z</time>
      </trkpt>
      <trkpt lat="47.33422" lon="0.09277">
        <ele>96.27</ele>
        <time>2010-04-04T08:37:31Z</time>
      </trkpt>
      <trkpt lat="47.33427" lon="0.09262">
        <ele>95.31</ele>
        <time>2010-04-04T08:37:35Z</time>
      </trkpt>
      <trkpt lat="47.33428" lon="0.09261">
        <ele>95.79</ele>
        <time>2010-04-04T08:37:36Z</time>
      </trkpt>
      <trkpt lat="47.3343" lon="0.09261">
        <ele>95.31</ele>
        <time>2010-04-04T08:37:37Z</time>
      </trkpt>
      <trkpt lat="47.33431" lon="0.09262">
        <ele>95.79</ele>
        <time>2010-04-04T08:37:38Z</time>
      </trkpt>
      <trkpt lat="47.33432" lon="0.09264">
        <ele>95.31</ele>
        <time>2010-04-04T08:37:39Z</time>
      </trkpt>
      <trkpt lat="47.33434" lon="0.09265">
        <ele>95.79</ele>
        <time>2010-04-04T08:37:40Z</time>
      </trkpt>
      <trkpt lat="47.33435" lon="0.09267">
        <ele>96.27</ele>
        <time>2010-04-04T08:37:41Z</time>
      </trkpt>
      <trkpt lat="47.33437" lon="0.09269">
        <ele>96.27</ele>
        <time>2010-04-04T08:37:42Z</time>
      </trkpt>
      <trkpt lat="47.33438" lon="0.09272">
        <ele>95.31</ele>
        <time>2010-04-04T08:37:43Z</time>
      </trkpt>
      <trkpt lat="47.3344" lon="0.09274">
        <ele>95.31</ele>
        <time>2010-04-04T08:37:44Z</time>
      </trkpt>
      <trkpt lat="47.33442" lon="0.09276">
        <ele>96.27</ele>
        <time>2010-04-04T08:37:45Z</time>
      </trkpt>
      <trkpt lat="47.33444" lon="0.09279">
        <ele>95.31</ele>
        <time>2010-04-04T08:37:46Z</time>
      </trkpt>
      <trkpt lat="47.33446" lon="0.09282">
        <ele>95.31</ele>
        <time>2010-04-04T08:37:47Z</time>
      </trkpt>
      <trkpt lat="47.33448" lon="0.09284">
        <ele>95.79</ele>
        <time>2010-04-04T08:37:48Z</time>
      </trkpt>
      <trkpt lat="47.3346" lon="0.09308">
        <ele>94.35</ele>
        <time>2010-04-04T08:37:55Z</time>
      </trkpt>
      <trkpt lat="47.33462" lon="0.09311">
        <ele>93.87</ele>
        <time>2010-04-04T08:37:56Z</time>
      </trkpt>
      <trkpt lat="47.33474" lon="0.09326">
        <ele>94.35</ele>
        <time>2010-04-04T08:38:01Z</time>
      </trkpt>
      <trkpt lat="47.33486" lon="0.09346">
        <ele>93.39</ele>
        <time>2010-04-04T08:38:07Z</time>
      </trkpt>
      <trkpt lat="47.3349" lon="0.09351">
        <ele>93.39</ele>
        <time>2010-04-04T08:38:08Z</time>
      </trkpt>
      <trkpt lat="47.33514" lon="0.09379">
        <ele>92.9</ele>
        <time>2010-04-04T08:38:14Z</time>
      </trkpt>
      <trkpt lat="47.33528" lon="0.09401">
        <ele>91.46</ele>
        <time>2010-04-04T08:38:18Z</time>
      </trkpt>
      <trkpt lat="47.33548" lon="0.09432">
        <ele>90.02</ele>
        <time>2010-04-04T08:38:24Z</time>
      </trkpt>
      <trkpt lat="47.33551" lon="0.09438">
        <ele>90.02</ele>
        <time>2010-04-04T08:38:25Z</time>
      </trkpt>
      <trkpt lat="47.33555" lon="0.09444">
        <ele>89.54</ele>
        <time>2010-04-04T08:38:26Z</time>
      </trkpt>
      <trkpt lat="47.33559" lon="0.0945">
        <ele>88.58</ele>
        <time>2010-04-04T08:38:27Z</time>
      </trkpt>
      <trkpt lat="47.33562" lon="0.09457">
        <ele>88.58</ele>
        <time>2010-04-04T08:38:28Z</time>
      </trkpt>
      <trkpt lat="47.33565" lon="0.09462">
        <ele>88.58</ele>
        <time>2010-04-04T08:38:29Z</time>
      </trkpt>
      <trkpt lat="47.3357" lon="0.09468">
        <ele>88.1</ele>
        <time>2010-04-04T08:38:30Z</time>
      </trkpt>
      <trkpt lat="47.33576" lon="0.09474">
        <ele>88.1</ele>
        <time>2010-04-04T08:38:31Z</time>
      </trkpt>
      <trkpt lat="47.3358" lon="0.09479">
        <ele>88.58</ele>
        <time>2010-04-04T08:38:32Z</time>
      </trkpt>
      <trkpt lat="47.33583" lon="0.09484">
        <ele>88.58</ele>
        <time>2010-04-04T08:38:33Z</time>
      </trkpt>
      <trkpt lat="47.33589" lon="0.09493">
        <ele>88.1</ele>
        <time>2010-04-04T08:38:35Z</time>
      </trkpt>
      <trkpt lat="47.33592" lon="0.09497">
        <ele>87.62</ele>
        <time>2010-04-04T08:38:36Z</time>
      </trkpt>
      <trkpt lat="47.33602" lon="0.09511">
        <ele>86.66</ele>
        <time>2010-04-04T08:38:38Z</time>
      </trkpt>
      <trkpt lat="47.33606" lon="0.09517">
        <ele>87.14</ele>
        <time>2010-04-04T08:38:39Z</time>
      </trkpt>
      <trkpt lat="47.3362" lon="0.09532">
        <ele>87.62</ele>
        <time>2010-04-04T08:38:42Z</time>
      </trkpt>
      <trkpt lat="47.33632" lon="0.09549">
        <ele>87.14</ele>
        <time>2010-04-04T08:38:45Z</time>
      </trkpt>
      <trkpt lat="47.33636" lon="0.09554">
        <ele>87.62</ele>
        <time>2010-04-04T08:38:46Z</time>
      </trkpt>
      <trkpt lat="47.33651" lon="0.09577">
        <ele>87.62</ele>
        <time>2010-04-04T08:38:50Z</time>
      </trkpt>
      <trkpt lat="47.33654" lon="0.09582">
        <ele>87.62</ele>
        <time>2010-04-04T08:38:51Z</time>
      </trkpt>
      <trkpt lat="47.33661" lon="0.09592">
        <ele>86.66</ele>
        <time>2010-04-04T08:38:53Z</time>
      </trkpt>
      <trkpt lat="47.33665" lon="0.09597">
        <ele>87.14</ele>
        <time>2010-04-04T08:38:54Z</time>
      </trkpt>
      <trkpt lat="47.33669" lon="0.09602">
        <ele>87.62</ele>
        <time>2010-04-04T08:38:55Z</time>
      </trkpt>
      <trkpt lat="47.33677" lon="0.09613">
        <ele>87.62</ele>
        <time>2010-04-04T08:38:57Z</time>
      </trkpt>
      <trkpt lat="47.33681" lon="0.09617">
        <ele>88.1</ele>
        <time>2010-04-04T08:38:58Z</time>
      </trkpt>
      <trkpt lat="47.33701" lon="0.09643">
        <ele>87.62</ele>
        <time>2010-04-04T08:39:03Z</time>
      </trkpt>
      <trkpt lat="47.33705" lon="0.09648">
        <ele>88.1</ele>
        <time>2010-04-04T08:39:04Z</time>
      </trkpt>
      <trkpt lat="47.33713" lon="0.09657">
        <ele>87.14</ele>
        <time>2010-04-04T08:39:06Z</time>
      </trkpt>
      <trkpt lat="47.33717" lon="0.09669">
        <ele>87.62</ele>
        <time>2010-04-04T08:39:08Z</time>
      </trkpt>
      <trkpt lat="47.33718" lon="0.09675">
        <ele>87.14</ele>
        <time>2010-04-04T08:39:09Z</time>
      </trkpt>
      <trkpt lat="47.3372" lon="0.0968">
        <ele>87.14</ele>
        <time>2010-04-04T08:39:10Z</time>
      </trkpt>
      <trkpt lat="47.33723" lon="0.09685">
        <ele>87.14</ele>
        <time>2010-04-04T08:39:11Z</time>
      </trkpt>
      <trkpt lat="47.33725" lon="0.0969">
        <ele>87.14</ele>
        <time>2010-04-04T08:39:12Z</time>
      </trkpt>
      <trkpt lat="47.33729" lon="0.09695">
        <ele>86.66</ele>
        <time>2010-04-04T08:39:13Z</time>
      </trkpt>
      <trkpt lat="47.33732" lon="0.097">
        <ele>87.14</ele>
        <time>2010-04-04T08:39:14Z</time>
      </trkpt>
      <trkpt lat="47.33735" lon="0.09706">
        <ele>86.66</ele>
        <time>2010-04-04T08:39:15Z</time>
      </trkpt>
      <trkpt lat="47.33738" lon="0.09713">
        <ele>85.69</ele>
        <time>2010-04-04T08:39:16Z</time>
      </trkpt>
      <trkpt lat="47.33742" lon="0.0972">
        <ele>86.66</ele>
        <time>2010-04-04T08:39:17Z</time>
      </trkpt>
      <trkpt lat="47.3377" lon="0.09759">
        <ele>85.69</ele>
        <time>2010-04-04T08:39:23Z</time>
      </trkpt>
      <trkpt lat="47.33774" lon="0.09765">
        <ele>86.18</ele>
        <time>2010-04-04T08:39:24Z</time>
      </trkpt>
      <trkpt lat="47.33783" lon="0.09778">
        <ele>85.21</ele>
        <time>2010-04-04T08:39:26Z</time>
      </trkpt>
      <trkpt lat="47.33787" lon="0.09785">
        <ele>85.69</ele>
        <time>2010-04-04T08:39:27Z</time>
      </trkpt>
      <trkpt lat="47.33795" lon="0.09798">
        <ele>86.18</ele>
        <time>2010-04-04T08:39:29Z</time>
      </trkpt>
      <trkpt lat="47.33799" lon="0.09805">
        <ele>85.21</ele>
        <time>2010-04-04T08:39:30Z</time>
      </trkpt>
      <trkpt lat="47.33803" lon="0.09812">
        <ele>85.21</ele>
        <time>2010-04-04T08:39:31Z</time>
      </trkpt>
      <trkpt lat="47.33819" lon="0.09841">
        <ele>84.73</ele>
        <time>2010-04-04T08:39:35Z</time>
      </trkpt>
      <trkpt lat="47.33822" lon="0.09849">
        <ele>83.77</ele>
        <time>2010-04-04T08:39:36Z</time>
      </trkpt>
      <trkpt lat="47.33824" lon="0.09859">
        <ele>83.77</ele>
        <time>2010-04-04T08:39:37Z</time>
      </trkpt>
      <trkpt lat="47.33827" lon="0.09867">
        <ele>82.81</ele>
        <time>2010-04-04T08:39:38Z</time>
      </trkpt>
      <trkpt lat="47.33829" lon="0.09875">
        <ele>82.81</ele>
        <time>2010-04-04T08:39:39Z</time>
      </trkpt>
      <trkpt lat="47.33832" lon="0.09885">
        <ele>82.33</ele>
        <time>2010-04-04T08:39:40Z</time>
      </trkpt>
      <trkpt lat="47.33835" lon="0.09895">
        <ele>80.89</ele>
        <time>2010-04-04T08:39:41Z</time>
      </trkpt>
      <trkpt lat="47.33838" lon="0.09905">
        <ele>81.37</ele>
        <time>2010-04-04T08:39:42Z</time>
      </trkpt>
      <trkpt lat="47.3384" lon="0.09915">
        <ele>79.93</ele>
        <time>2010-04-04T08:39:43Z</time>
      </trkpt>
      <trkpt lat="47.33842" lon="0.09926">
        <ele>78.48</ele>
        <time>2010-04-04T08:39:44Z</time>
      </trkpt>
      <trkpt lat="47.33845" lon="0.09938">
        <ele>78.97</ele>
        <time>2010-04-04T08:39:45Z</time>
      </trkpt>
      <trkpt lat="47.33847" lon="0.09949">
        <ele>78</ele>
        <time>2010-04-04T08:39:46Z</time>
      </trkpt>
      <trkpt lat="47.33857" lon="0.09983">
        <ele>76.56</ele>
        <time>2010-04-04T08:39:49Z</time>
      </trkpt>
      <trkpt lat="47.33864" lon="0.10018">
        <ele>75.12</ele>
        <time>2010-04-04T08:39:52Z</time>
      </trkpt>
      <trkpt lat="47.33867" lon="0.10029">
        <ele>74.16</ele>
        <time>2010-04-04T08:39:53Z</time>
      </trkpt>
      <trkpt lat="47.33871" lon="0.10039">
        <ele>74.64</ele>
        <time>2010-04-04T08:39:54Z</time>
      </trkpt>
      <trkpt lat="47.33888" lon="0.101">
        <ele>72.24</ele>
        <time>2010-04-04T08:40:00Z</time>
      </trkpt>
      <trkpt lat="47.33892" lon="0.10118">
        <ele>71.27</ele>
        <time>2010-04-04T08:40:02Z</time>
      </trkpt>
      <trkpt lat="47.33892" lon="0.10128">
        <ele>70.79</ele>
        <time>2010-04-04T08:40:03Z</time>
      </trkpt>
      <trkpt lat="47.33893" lon="0.10137">
        <ele>70.79</ele>
        <time>2010-04-04T08:40:04Z</time>
      </trkpt>
      <trkpt lat="47.33892" lon="0.10146">
        <ele>69.83</ele>
        <time>2010-04-04T08:40:05Z</time>
      </trkpt>
      <trkpt lat="47.33891" lon="0.10155">
        <ele>69.83</ele>
        <time>2010-04-04T08:40:06Z</time>
      </trkpt>
      <trkpt lat="47.33889" lon="0.10163">
        <ele>69.35</ele>
        <time>2010-04-04T08:40:07Z</time>
      </trkpt>
      <trkpt lat="47.33887" lon="0.10181">
        <ele>69.83</ele>
        <time>2010-04-04T08:40:11Z</time>
      </trkpt>
      <trkpt lat="47.33888" lon="0.10185">
        <ele>68.87</ele>
        <time>2010-04-04T08:40:13Z</time>
      </trkpt>
      <trkpt lat="47.3389" lon="0.10187">
        <ele>69.83</ele>
        <time>2010-04-04T08:40:14Z</time>
      </trkpt>
      <trkpt lat="47.33892" lon="0.10189">
        <ele>69.35</ele>
        <time>2010-04-04T08:40:15Z</time>
      </trkpt>
      <trkpt lat="47.33903" lon="0.10198">
        <ele>71.76</ele>
        <time>2010-04-04T08:40:21Z</time>
      </trkpt>
      <trkpt lat="47.33909" lon="0.10202">
        <ele>73.2</ele>
        <time>2010-04-04T08:40:25Z</time>
      </trkpt>
      <trkpt lat="47.33911" lon="0.10203">
        <ele>73.68</ele>
        <time>2010-04-04T08:40:26Z</time>
      </trkpt>
      <trkpt lat="47.33921" lon="0.10208">
        <ele>74.16</ele>
        <time>2010-04-04T08:40:31Z</time>
      </trkpt>
      <trkpt lat="47.33929" lon="0.10214">
        <ele>76.08</ele>
        <time>2010-04-04T08:40:35Z</time>
      </trkpt>
      <trkpt lat="47.33931" lon="0.10216">
        <ele>75.6</ele>
        <time>2010-04-04T08:40:36Z</time>
      </trkpt>
      <trkpt lat="47.33933" lon="0.10217">
        <ele>76.08</ele>
        <time>2010-04-04T08:40:37Z</time>
      </trkpt>
      <trkpt lat="47.33934" lon="0.10219">
        <ele>76.56</ele>
        <time>2010-04-04T08:40:38Z</time>
      </trkpt>
      <trkpt lat="47.33936" lon="0.10221">
        <ele>76.08</ele>
        <time>2010-04-04T08:40:39Z</time>
      </trkpt>
      <trkpt lat="47.33937" lon="0.10223">
        <ele>77.04</ele>
        <time>2010-04-04T08:40:40Z</time>
      </trkpt>
      <trkpt lat="47.33939" lon="0.10225">
        <ele>77.04</ele>
        <time>2010-04-04T08:40:41Z</time>
      </trkpt>
      <trkpt lat="47.33941" lon="0.10226">
        <ele>78.48</ele>
        <time>2010-04-04T08:40:42Z</time>
      </trkpt>
      <trkpt lat="47.33943" lon="0.10227">
        <ele>78</ele>
        <time>2010-04-04T08:40:43Z</time>
      </trkpt>
      <trkpt lat="47.33945" lon="0.10229">
        <ele>78</ele>
        <time>2010-04-04T08:40:44Z</time>
      </trkpt>
      <trkpt lat="47.33946" lon="0.1023">
        <ele>78.97</ele>
        <time>2010-04-04T08:40:45Z</time>
      </trkpt>
      <trkpt lat="47.33954" lon="0.10236">
        <ele>79.45</ele>
        <time>2010-04-04T08:40:50Z</time>
      </trkpt>
      <trkpt lat="47.33963" lon="0.10239">
        <ele>80.89</ele>
        <time>2010-04-04T08:40:55Z</time>
      </trkpt>
      <trkpt lat="47.33965" lon="0.1024">
        <ele>80.89</ele>
        <time>2010-04-04T08:40:56Z</time>
      </trkpt>
      <trkpt lat="47.33967" lon="0.10242">
        <ele>81.37</ele>
        <time>2010-04-04T08:40:57Z</time>
      </trkpt>
      <trkpt lat="47.33968" lon="0.10244">
        <ele>81.85</ele>
        <time>2010-04-04T08:40:58Z</time>
      </trkpt>
      <trkpt lat="47.3397" lon="0.10246">
        <ele>81.37</ele>
        <time>2010-04-04T08:40:59Z</time>
      </trkpt>
      <trkpt lat="47.33972" lon="0.10248">
        <ele>81.37</ele>
        <time>2010-04-04T08:41:00Z</time>
      </trkpt>
      <trkpt lat="47.33974" lon="0.1025">
        <ele>81.37</ele>
        <time>2010-04-04T08:41:01Z</time>
      </trkpt>
      <trkpt lat="47.33979" lon="0.10253">
        <ele>82.81</ele>
        <time>2010-04-04T08:41:04Z</time>
      </trkpt>
      <trkpt lat="47.33981" lon="0.10255">
        <ele>83.29</ele>
        <time>2010-04-04T08:41:05Z</time>
      </trkpt>
      <trkpt lat="47.33982" lon="0.10256">
        <ele>83.29</ele>
        <time>2010-04-04T08:41:06Z</time>
      </trkpt>
      <trkpt lat="47.33984" lon="0.10257">
        <ele>83.77</ele>
        <time>2010-04-04T08:41:07Z</time>
      </trkpt>
      <trkpt lat="47.33986" lon="0.10259">
        <ele>83.29</ele>
        <time>2010-04-04T08:41:08Z</time>
      </trkpt>
      <trkpt lat="47.33988" lon="0.1026">
        <ele>84.25</ele>
        <time>2010-04-04T08:41:09Z</time>
      </trkpt>
      <trkpt lat="47.33988" lon="0.10261">
        <ele>84.25</ele>
        <time>2010-04-04T08:41:10Z</time>
      </trkpt>
      <trkpt lat="47.33995" lon="0.10266">
        <ele>85.69</ele>
        <time>2010-04-04T08:41:15Z</time>
      </trkpt>
      <trkpt lat="47.33996" lon="0.10267">
        <ele>85.69</ele>
        <time>2010-04-04T08:41:16Z</time>
      </trkpt>
      <trkpt lat="47.33998" lon="0.10268">
        <ele>85.69</ele>
        <time>2010-04-04T08:41:17Z</time>
      </trkpt>
      <trkpt lat="47.34" lon="0.10269">
        <ele>86.18</ele>
        <time>2010-04-04T08:41:18Z</time>
      </trkpt>
      <trkpt lat="47.34001" lon="0.10271">
        <ele>86.66</ele>
        <time>2010-04-04T08:41:19Z</time>
      </trkpt>
      <trkpt lat="47.34003" lon="0.10273">
        <ele>87.14</ele>
        <time>2010-04-04T08:41:20Z</time>
      </trkpt>
      <trkpt lat="47.34004" lon="0.10275">
        <ele>87.62</ele>
        <time>2010-04-04T08:41:21Z</time>
      </trkpt>
      <trkpt lat="47.34022" lon="0.10287">
        <ele>88.1</ele>
        <time>2010-04-04T08:41:30Z</time>
      </trkpt>
      <trkpt lat="47.34029" lon="0.10291">
        <ele>89.54</ele>
        <time>2010-04-04T08:41:33Z</time>
      </trkpt>
      <trkpt lat="47.34032" lon="0.10294">
        <ele>89.06</ele>
        <time>2010-04-04T08:41:35Z</time>
      </trkpt>
      <trkpt lat="47.34034" lon="0.10295">
        <ele>89.06</ele>
        <time>2010-04-04T08:41:36Z</time>
      </trkpt>
      <trkpt lat="47.34035" lon="0.10296">
        <ele>90.02</ele>
        <time>2010-04-04T08:41:37Z</time>
      </trkpt>
      <trkpt lat="47.34037" lon="0.10298">
        <ele>90.02</ele>
        <time>2010-04-04T08:41:38Z</time>
      </trkpt>
      <trkpt lat="47.34039" lon="0.10299">
        <ele>90.98</ele>
        <time>2010-04-04T08:41:39Z</time>
      </trkpt>
      <trkpt lat="47.34041" lon="0.103">
        <ele>90.5</ele>
        <time>2010-04-04T08:41:40Z</time>
      </trkpt>
      <trkpt lat="47.34043" lon="0.10302">
        <ele>90.98</ele>
        <time>2010-04-04T08:41:41Z</time>
      </trkpt>
      <trkpt lat="47.34046" lon="0.10303">
        <ele>91.46</ele>
        <time>2010-04-04T08:41:42Z</time>
      </trkpt>
      <trkpt lat="47.34059" lon="0.10313">
        <ele>91.94</ele>
        <time>2010-04-04T08:41:48Z</time>
      </trkpt>
      <trkpt lat="47.34073" lon="0.10323">
        <ele>93.87</ele>
        <time>2010-04-04T08:41:55Z</time>
      </trkpt>
      <trkpt lat="47.34086" lon="0.10335">
        <ele>94.35</ele>
        <time>2010-04-04T08:42:01Z</time>
      </trkpt>
      <trkpt lat="47.34101" lon="0.10346">
        <ele>94.83</ele>
        <time>2010-04-04T08:42:08Z</time>
      </trkpt>
      <trkpt lat="47.34109" lon="0.10355">
        <ele>94.83</ele>
        <time>2010-04-04T08:42:13Z</time>
      </trkpt>
      <trkpt lat="47.34113" lon="0.10359">
        <ele>95.79</ele>
        <time>2010-04-04T08:42:19Z</time>
      </trkpt>
      <trkpt lat="47.34113" lon="0.1036">
        <ele>95.79</ele>
        <time>2010-04-04T08:43:25Z</time>
      </trkpt>
      <trkpt lat="47.34114" lon="0.10362">
        <ele>95.79</ele>
        <time>2010-04-04T08:43:26Z</time>
      </trkpt>
      <trkpt lat="47.34114" lon="0.10364">
        <ele>96.27</ele>
        <time>2010-04-04T08:43:27Z</time>
      </trkpt>
      <trkpt lat="47.34114" lon="0.10366">
        <ele>95.79</ele>
        <time>2010-04-04T08:43:28Z</time>
      </trkpt>
      <trkpt lat="47.34114" lon="0.10368">
        <ele>95.79</ele>
        <time>2010-04-04T08:43:29Z</time>
      </trkpt>
      <trkpt lat="47.34113" lon="0.10371">
        <ele>95.79</ele>
        <time>2010-04-04T08:43:30Z</time>
      </trkpt>
      <trkpt lat="47.34113" lon="0.10375">
        <ele>95.79</ele>
        <time>2010-04-04T08:43:31Z</time>
      </trkpt>
      <trkpt lat="47.34112" lon="0.10378">
        <ele>96.27</ele>
        <time>2010-04-04T08:43:32Z</time>
      </trkpt>
      <trkpt lat="47.34108" lon="0.10401">
        <ele>96.27</ele>
        <time>2010-04-04T08:43:39Z</time>
      </trkpt>
      <trkpt lat="47.34106" lon="0.1043">
        <ele>97.23</ele>
        <time>2010-04-04T08:43:47Z</time>
      </trkpt>
      <trkpt lat="47.34106" lon="0.10473">
        <ele>97.23</ele>
        <time>2010-04-04T08:43:55Z</time>
      </trkpt>
      <trkpt lat="47.34107" lon="0.10508">
        <ele>97.71</ele>
        <time>2010-04-04T08:44:02Z</time>
      </trkpt>
      <trkpt lat="47.34109" lon="0.10536">
        <ele>97.71</ele>
        <time>2010-04-04T08:44:09Z</time>
      </trkpt>
      <trkpt lat="47.34111" lon="0.10538">
        <ele>97.71</ele>
        <time>2010-04-04T08:44:10Z</time>
      </trkpt>
      <trkpt lat="47.34113" lon="0.10539">
        <ele>97.23</ele>
        <time>2010-04-04T08:44:11Z</time>
      </trkpt>
      <trkpt lat="47.34115" lon="0.10538">
        <ele>97.71</ele>
        <time>2010-04-04T08:44:12Z</time>
      </trkpt>
      <trkpt lat="47.34117" lon="0.10536">
        <ele>97.71</ele>
        <time>2010-04-04T08:44:13Z</time>
      </trkpt>
      <trkpt lat="47.34119" lon="0.10533">
        <ele>97.71</ele>
        <time>2010-04-04T08:44:14Z</time>
      </trkpt>
      <trkpt lat="47.34122" lon="0.1053">
        <ele>97.23</ele>
        <time>2010-04-04T08:44:15Z</time>
      </trkpt>
      <trkpt lat="47.34125" lon="0.10527">
        <ele>97.71</ele>
        <time>2010-04-04T08:44:16Z</time>
      </trkpt>
      <trkpt lat="47.34127" lon="0.10523">
        <ele>97.71</ele>
        <time>2010-04-04T08:44:17Z</time>
      </trkpt>
      <trkpt lat="47.34145" lon="0.10499">
        <ele>98.19</ele>
        <time>2010-04-04T08:44:24Z</time>
      </trkpt>
      <trkpt lat="47.34161" lon="0.10476">
        <ele>97.71</ele>
        <time>2010-04-04T08:44:30Z</time>
      </trkpt>
      <trkpt lat="47.34175" lon="0.10446">
        <ele>98.19</ele>
        <time>2010-04-04T08:44:36Z</time>
      </trkpt>
      <trkpt lat="47.34192" lon="0.10411">
        <ele>98.19</ele>
        <time>2010-04-04T08:44:43Z</time>
      </trkpt>
      <trkpt lat="47.34196" lon="0.10401">
        <ele>99.15</ele>
        <time>2010-04-04T08:44:45Z</time>
      </trkpt>
      <trkpt lat="47.34211" lon="0.10383">
        <ele>98.19</ele>
        <time>2010-04-04T08:44:50Z</time>
      </trkpt>
      <trkpt lat="47.34215" lon="0.10382">
        <ele>98.19</ele>
        <time>2010-04-04T08:44:51Z</time>
      </trkpt>
      <trkpt lat="47.34234" lon="0.10373">
        <ele>98.19</ele>
        <time>2010-04-04T08:44:56Z</time>
      </trkpt>
      <trkpt lat="47.34254" lon="0.10359">
        <ele>96.75</ele>
        <time>2010-04-04T08:45:01Z</time>
      </trkpt>
      <trkpt lat="47.34258" lon="0.10357">
        <ele>97.23</ele>
        <time>2010-04-04T08:45:02Z</time>
      </trkpt>
      <trkpt lat="47.34265" lon="0.10352">
        <ele>97.71</ele>
        <time>2010-04-04T08:45:04Z</time>
      </trkpt>
      <trkpt lat="47.3427" lon="0.1035">
        <ele>97.71</ele>
        <time>2010-04-04T08:45:05Z</time>
      </trkpt>
      <trkpt lat="47.34282" lon="0.10343">
        <ele>97.23</ele>
        <time>2010-04-04T08:45:08Z</time>
      </trkpt>
      <trkpt lat="47.34286" lon="0.10341">
        <ele>97.71</ele>
        <time>2010-04-04T08:45:09Z</time>
      </trkpt>
      <trkpt lat="47.34304" lon="0.10331">
        <ele>96.75</ele>
        <time>2010-04-04T08:45:14Z</time>
      </trkpt>
      <trkpt lat="47.34322" lon="0.10314">
        <ele>96.27</ele>
        <time>2010-04-04T08:45:20Z</time>
      </trkpt>
      <trkpt lat="47.34338" lon="0.10308">
        <ele>96.27</ele>
        <time>2010-04-04T08:45:25Z</time>
      </trkpt>
      <trkpt lat="47.34358" lon="0.10297">
        <ele>95.31</ele>
        <time>2010-04-04T08:45:32Z</time>
      </trkpt>
      <trkpt lat="47.34371" lon="0.1028">
        <ele>95.31</ele>
        <time>2010-04-04T08:45:38Z</time>
      </trkpt>
      <trkpt lat="47.34385" lon="0.10259">
        <ele>95.31</ele>
        <time>2010-04-04T08:45:45Z</time>
      </trkpt>
      <trkpt lat="47.34405" lon="0.1024">
        <ele>94.83</ele>
        <time>2010-04-04T08:45:52Z</time>
      </trkpt>
      <trkpt lat="47.34421" lon="0.10225">
        <ele>94.35</ele>
        <time>2010-04-04T08:45:58Z</time>
      </trkpt>
      <trkpt lat="47.3444" lon="0.10222">
        <ele>95.31</ele>
        <time>2010-04-04T08:46:04Z</time>
      </trkpt>
      <trkpt lat="47.34444" lon="0.10221">
        <ele>94.83</ele>
        <time>2010-04-04T08:46:05Z</time>
      </trkpt>
      <trkpt lat="47.34448" lon="0.10219">
        <ele>94.35</ele>
        <time>2010-04-04T08:46:06Z</time>
      </trkpt>
      <trkpt lat="47.34451" lon="0.10216">
        <ele>94.35</ele>
        <time>2010-04-04T08:46:07Z</time>
      </trkpt>
      <trkpt lat="47.34454" lon="0.10212">
        <ele>93.87</ele>
        <time>2010-04-04T08:46:08Z</time>
      </trkpt>
      <trkpt lat="47.34458" lon="0.10207">
        <ele>93.87</ele>
        <time>2010-04-04T08:46:09Z</time>
      </trkpt>
      <trkpt lat="47.34462" lon="0.10202">
        <ele>94.35</ele>
        <time>2010-04-04T08:46:10Z</time>
      </trkpt>
      <trkpt lat="47.34465" lon="0.10197">
        <ele>93.87</ele>
        <time>2010-04-04T08:46:11Z</time>
      </trkpt>
      <trkpt lat="47.34466" lon="0.10192">
        <ele>92.9</ele>
        <time>2010-04-04T08:46:12Z</time>
      </trkpt>
      <trkpt lat="47.34467" lon="0.10186">
        <ele>93.39</ele>
        <time>2010-04-04T08:46:13Z</time>
      </trkpt>
      <trkpt lat="47.34478" lon="0.10158">
        <ele>93.87</ele>
        <time>2010-04-04T08:46:19Z</time>
      </trkpt>
      <trkpt lat="47.3449" lon="0.10141">
        <ele>94.35</ele>
        <time>2010-04-04T08:46:24Z</time>
      </trkpt>
      <trkpt lat="47.34502" lon="0.10105">
        <ele>93.39</ele>
        <time>2010-04-04T08:46:32Z</time>
      </trkpt>
      <trkpt lat="47.3451" lon="0.10085">
        <ele>92.9</ele>
        <time>2010-04-04T08:46:37Z</time>
      </trkpt>
      <trkpt lat="47.34519" lon="0.1006">
        <ele>93.39</ele>
        <time>2010-04-04T08:46:42Z</time>
      </trkpt>
      <trkpt lat="47.34532" lon="0.10013">
        <ele>93.87</ele>
        <time>2010-04-04T08:46:51Z</time>
      </trkpt>
      <trkpt lat="47.3454" lon="0.09976">
        <ele>93.39</ele>
        <time>2010-04-04T08:46:58Z</time>
      </trkpt>
      <trkpt lat="47.34548" lon="0.09949">
        <ele>94.35</ele>
        <time>2010-04-04T08:47:04Z</time>
      </trkpt>
      <trkpt lat="47.34556" lon="0.09922">
        <ele>92.9</ele>
        <time>2010-04-04T08:47:10Z</time>
      </trkpt>
      <trkpt lat="47.34564" lon="0.09889">
        <ele>93.39</ele>
        <time>2010-04-04T08:47:16Z</time>
      </trkpt>
      <trkpt lat="47.34576" lon="0.09845">
        <ele>92.9</ele>
        <time>2010-04-04T08:47:24Z</time>
      </trkpt>
      <trkpt lat="47.34578" lon="0.09839">
        <ele>92.9</ele>
        <time>2010-04-04T08:47:25Z</time>
      </trkpt>
      <trkpt lat="47.34581" lon="0.09827">
        <ele>93.39</ele>
        <time>2010-04-04T08:47:27Z</time>
      </trkpt>
      <trkpt lat="47.34594" lon="0.09782">
        <ele>93.39</ele>
        <time>2010-04-04T08:47:35Z</time>
      </trkpt>
      <trkpt lat="47.34605" lon="0.09745">
        <ele>93.87</ele>
        <time>2010-04-04T08:47:42Z</time>
      </trkpt>
      <trkpt lat="47.34615" lon="0.09719">
        <ele>93.39</ele>
        <time>2010-04-04T08:47:47Z</time>
      </trkpt>
      <trkpt lat="47.34616" lon="0.09713">
        <ele>92.42</ele>
        <time>2010-04-04T08:47:48Z</time>
      </trkpt>
      <trkpt lat="47.34618" lon="0.09707">
        <ele>92.9</ele>
        <time>2010-04-04T08:47:49Z</time>
      </trkpt>
      <trkpt lat="47.34632" lon="0.09669">
        <ele>91.46</ele>
        <time>2010-04-04T08:47:57Z</time>
      </trkpt>
      <trkpt lat="47.34634" lon="0.09663">
        <ele>91.46</ele>
        <time>2010-04-04T08:47:59Z</time>
      </trkpt>
      <trkpt lat="47.34637" lon="0.09661">
        <ele>93.39</ele>
        <time>2010-04-04T08:48:01Z</time>
      </trkpt>
      <trkpt lat="47.34642" lon="0.09642">
        <ele>92.42</ele>
        <time>2010-04-04T08:48:06Z</time>
      </trkpt>
      <trkpt lat="47.34648" lon="0.09612">
        <ele>92.42</ele>
        <time>2010-04-04T08:48:13Z</time>
      </trkpt>
      <trkpt lat="47.34657" lon="0.09585">
        <ele>93.39</ele>
        <time>2010-04-04T08:48:20Z</time>
      </trkpt>
      <trkpt lat="47.34661" lon="0.09569">
        <ele>92.9</ele>
        <time>2010-04-04T08:48:24Z</time>
      </trkpt>
      <trkpt lat="47.34667" lon="0.09541">
        <ele>92.9</ele>
        <time>2010-04-04T08:48:31Z</time>
      </trkpt>
      <trkpt lat="47.34676" lon="0.09516">
        <ele>93.87</ele>
        <time>2010-04-04T08:48:37Z</time>
      </trkpt>
      <trkpt lat="47.34688" lon="0.09493">
        <ele>93.39</ele>
        <time>2010-04-04T08:48:44Z</time>
      </trkpt>
      <trkpt lat="47.3469" lon="0.09484">
        <ele>94.35</ele>
        <time>2010-04-04T08:48:47Z</time>
      </trkpt>
      <trkpt lat="47.34696" lon="0.09467">
        <ele>94.35</ele>
        <time>2010-04-04T08:48:52Z</time>
      </trkpt>
      <trkpt lat="47.34706" lon="0.09437">
        <ele>93.87</ele>
        <time>2010-04-04T08:49:00Z</time>
      </trkpt>
      <trkpt lat="47.34711" lon="0.09414">
        <ele>94.83</ele>
        <time>2010-04-04T08:49:08Z</time>
      </trkpt>
      <trkpt lat="47.34717" lon="0.09398">
        <ele>94.35</ele>
        <time>2010-04-04T08:49:14Z</time>
      </trkpt>
      <trkpt lat="47.3472" lon="0.09379">
        <ele>95.31</ele>
        <time>2010-04-04T08:49:19Z</time>
      </trkpt>
      <trkpt lat="47.34721" lon="0.09367">
        <ele>94.35</ele>
        <time>2010-04-04T08:49:22Z</time>
      </trkpt>
      <trkpt lat="47.34726" lon="0.09349">
        <ele>95.31</ele>
        <time>2010-04-04T08:49:27Z</time>
      </trkpt>
      <trkpt lat="47.34738" lon="0.09316">
        <ele>96.27</ele>
        <time>2010-04-04T08:49:35Z</time>
      </trkpt>
      <trkpt lat="47.34745" lon="0.09285">
        <ele>96.75</ele>
        <time>2010-04-04T08:49:42Z</time>
      </trkpt>
      <trkpt lat="47.34754" lon="0.09258">
        <ele>97.71</ele>
        <time>2010-04-04T08:49:49Z</time>
      </trkpt>
      <trkpt lat="47.34763" lon="0.09241">
        <ele>97.71</ele>
        <time>2010-04-04T08:49:54Z</time>
      </trkpt>
      <trkpt lat="47.34774" lon="0.09213">
        <ele>98.67</ele>
        <time>2010-04-04T08:50:01Z</time>
      </trkpt>
      <trkpt lat="47.3478" lon="0.09193">
        <ele>98.67</ele>
        <time>2010-04-04T08:50:06Z</time>
      </trkpt>
      <trkpt lat="47.34787" lon="0.09168">
        <ele>99.63</ele>
        <time>2010-04-04T08:50:12Z</time>
      </trkpt>
      <trkpt lat="47.34793" lon="0.09143">
        <ele>99.15</ele>
        <time>2010-04-04T08:50:17Z</time>
      </trkpt>
      <trkpt lat="47.34804" lon="0.09109">
        <ele>99.63</ele>
        <time>2010-04-04T08:50:24Z</time>
      </trkpt>
      <trkpt lat="47.34812" lon="0.09077">
        <ele>99.63</ele>
        <time>2010-04-04T08:50:30Z</time>
      </trkpt>
      <trkpt lat="47.34813" lon="0.09072">
        <ele>100.11</ele>
        <time>2010-04-04T08:50:31Z</time>
      </trkpt>
      <trkpt lat="47.34822" lon="0.09046">
        <ele>100.11</ele>
        <time>2010-04-04T08:50:36Z</time>
      </trkpt>
      <trkpt lat="47.34823" lon="0.0904">
        <ele>100.6</ele>
        <time>2010-04-04T08:50:37Z</time>
      </trkpt>
      <trkpt lat="47.34835" lon="0.09001">
        <ele>100.6</ele>
        <time>2010-04-04T08:50:44Z</time>
      </trkpt>
      <trkpt lat="47.34843" lon="0.08981">
        <ele>100.6</ele>
        <time>2010-04-04T08:50:48Z</time>
      </trkpt>
      <trkpt lat="47.34846" lon="0.08971">
        <ele>100.6</ele>
        <time>2010-04-04T08:50:50Z</time>
      </trkpt>
      <trkpt lat="47.34848" lon="0.08966">
        <ele>101.08</ele>
        <time>2010-04-04T08:50:51Z</time>
      </trkpt>
      <trkpt lat="47.3485" lon="0.0896">
        <ele>101.08</ele>
        <time>2010-04-04T08:50:52Z</time>
      </trkpt>
      <trkpt lat="47.34858" lon="0.08924">
        <ele>100.6</ele>
        <time>2010-04-04T08:50:59Z</time>
      </trkpt>
      <trkpt lat="47.34867" lon="0.08903">
        <ele>100.11</ele>
        <time>2010-04-04T08:51:04Z</time>
      </trkpt>
      <trkpt lat="47.34874" lon="0.08879">
        <ele>100.6</ele>
        <time>2010-04-04T08:51:09Z</time>
      </trkpt>
      <trkpt lat="47.34876" lon="0.08869">
        <ele>100.11</ele>
        <time>2010-04-04T08:51:11Z</time>
      </trkpt>
      <trkpt lat="47.34878" lon="0.08865">
        <ele>100.11</ele>
        <time>2010-04-04T08:51:12Z</time>
      </trkpt>
      <trkpt lat="47.3488" lon="0.0886">
        <ele>100.11</ele>
        <time>2010-04-04T08:51:13Z</time>
      </trkpt>
      <trkpt lat="47.34882" lon="0.08855">
        <ele>101.08</ele>
        <time>2010-04-04T08:51:14Z</time>
      </trkpt>
      <trkpt lat="47.34884" lon="0.0885">
        <ele>100.6</ele>
        <time>2010-04-04T08:51:15Z</time>
      </trkpt>
      <trkpt lat="47.34885" lon="0.08845">
        <ele>100.11</ele>
        <time>2010-04-04T08:51:16Z</time>
      </trkpt>
      <trkpt lat="47.34892" lon="0.08816">
        <ele>100.6</ele>
        <time>2010-04-04T08:51:21Z</time>
      </trkpt>
      <trkpt lat="47.34894" lon="0.08811">
        <ele>100.11</ele>
        <time>2010-04-04T08:51:22Z</time>
      </trkpt>
      <trkpt lat="47.34896" lon="0.08806">
        <ele>100.6</ele>
        <time>2010-04-04T08:51:23Z</time>
      </trkpt>
      <trkpt lat="47.34897" lon="0.08801">
        <ele>100.6</ele>
        <time>2010-04-04T08:51:24Z</time>
      </trkpt>
      <trkpt lat="47.34899" lon="0.08796">
        <ele>101.08</ele>
        <time>2010-04-04T08:51:25Z</time>
      </trkpt>
      <trkpt lat="47.34905" lon="0.0877">
        <ele>100.11</ele>
        <time>2010-04-04T08:51:30Z</time>
      </trkpt>
      <trkpt lat="47.34907" lon="0.08758">
        <ele>100.11</ele>
        <time>2010-04-04T08:51:32Z</time>
      </trkpt>
      <trkpt lat="47.34908" lon="0.08752">
        <ele>100.6</ele>
        <time>2010-04-04T08:51:33Z</time>
      </trkpt>
      <trkpt lat="47.34911" lon="0.08747">
        <ele>100.6</ele>
        <time>2010-04-04T08:51:34Z</time>
      </trkpt>
      <trkpt lat="47.34913" lon="0.08742">
        <ele>99.63</ele>
        <time>2010-04-04T08:51:35Z</time>
      </trkpt>
      <trkpt lat="47.34914" lon="0.08738">
        <ele>100.11</ele>
        <time>2010-04-04T08:51:36Z</time>
      </trkpt>
      <trkpt lat="47.34915" lon="0.08733">
        <ele>99.63</ele>
        <time>2010-04-04T08:51:37Z</time>
      </trkpt>
      <trkpt lat="47.34918" lon="0.0873">
        <ele>100.11</ele>
        <time>2010-04-04T08:51:38Z</time>
      </trkpt>
      <trkpt lat="47.34919" lon="0.08727">
        <ele>99.63</ele>
        <time>2010-04-04T08:51:39Z</time>
      </trkpt>
      <trkpt lat="47.34921" lon="0.08725">
        <ele>99.63</ele>
        <time>2010-04-04T08:51:40Z</time>
      </trkpt>
      <trkpt lat="47.34922" lon="0.0872">
        <ele>99.63</ele>
        <time>2010-04-04T08:51:45Z</time>
      </trkpt>
      <trkpt lat="47.34922" lon="0.08719">
        <ele>99.15</ele>
        <time>2010-04-04T08:52:04Z</time>
      </trkpt>
      <trkpt lat="47.34922" lon="0.08719">
        <ele>100.11</ele>
        <time>2010-04-04T08:52:52Z</time>
      </trkpt>
      <trkpt lat="47.34923" lon="0.08713">
        <ele>100.11</ele>
        <time>2010-04-04T08:54:24Z</time>
      </trkpt>
      <trkpt lat="47.34928" lon="0.0869">
        <ele>99.63</ele>
        <time>2010-04-04T08:54:30Z</time>
      </trkpt>
      <trkpt lat="47.34934" lon="0.08665">
        <ele>99.63</ele>
        <time>2010-04-04T08:54:35Z</time>
      </trkpt>
      <trkpt lat="47.34946" lon="0.08636">
        <ele>100.11</ele>
        <time>2010-04-04T08:54:41Z</time>
      </trkpt>
      <trkpt lat="47.34952" lon="0.08612">
        <ele>99.63</ele>
        <time>2010-04-04T08:54:46Z</time>
      </trkpt>
      <trkpt lat="47.34959" lon="0.08591">
        <ele>99.15</ele>
        <time>2010-04-04T08:54:51Z</time>
      </trkpt>
      <trkpt lat="47.34972" lon="0.08557">
        <ele>99.63</ele>
        <time>2010-04-04T08:54:58Z</time>
      </trkpt>
      <trkpt lat="47.34977" lon="0.08542">
        <ele>100.11</ele>
        <time>2010-04-04T08:55:01Z</time>
      </trkpt>
      <trkpt lat="47.34989" lon="0.085">
        <ele>100.11</ele>
        <time>2010-04-04T08:55:08Z</time>
      </trkpt>
      <trkpt lat="47.3499" lon="0.08494">
        <ele>99.63</ele>
        <time>2010-04-04T08:55:09Z</time>
      </trkpt>
      <trkpt lat="47.34991" lon="0.08488">
        <ele>100.11</ele>
        <time>2010-04-04T08:55:10Z</time>
      </trkpt>
      <trkpt lat="47.35004" lon="0.08439">
        <ele>99.15</ele>
        <time>2010-04-04T08:55:18Z</time>
      </trkpt>
      <trkpt lat="47.35005" lon="0.08432">
        <ele>98.19</ele>
        <time>2010-04-04T08:55:19Z</time>
      </trkpt>
      <trkpt lat="47.35007" lon="0.08426">
        <ele>99.15</ele>
        <time>2010-04-04T08:55:20Z</time>
      </trkpt>
      <trkpt lat="47.35009" lon="0.0842">
        <ele>98.67</ele>
        <time>2010-04-04T08:55:21Z</time>
      </trkpt>
      <trkpt lat="47.3501" lon="0.08414">
        <ele>99.15</ele>
        <time>2010-04-04T08:55:22Z</time>
      </trkpt>
      <trkpt lat="47.35012" lon="0.08408">
        <ele>98.67</ele>
        <time>2010-04-04T08:55:23Z</time>
      </trkpt>
      <trkpt lat="47.35015" lon="0.08402">
        <ele>98.67</ele>
        <time>2010-04-04T08:55:24Z</time>
      </trkpt>
      <trkpt lat="47.35016" lon="0.08396">
        <ele>99.15</ele>
        <time>2010-04-04T08:55:25Z</time>
      </trkpt>
      <trkpt lat="47.35018" lon="0.0839">
        <ele>99.63</ele>
        <time>2010-04-04T08:55:26Z</time>
      </trkpt>
      <trkpt lat="47.3502" lon="0.08383">
        <ele>98.67</ele>
        <time>2010-04-04T08:55:27Z</time>
      </trkpt>
      <trkpt lat="47.3503" lon="0.0835">
        <ele>97.71</ele>
        <time>2010-04-04T08:55:32Z</time>
      </trkpt>
      <trkpt lat="47.35037" lon="0.08327">
        <ele>98.67</ele>
        <time>2010-04-04T08:55:36Z</time>
      </trkpt>
      <trkpt lat="47.35048" lon="0.08302">
        <ele>97.23</ele>
        <time>2010-04-04T08:55:40Z</time>
      </trkpt>
      <trkpt lat="47.35051" lon="0.08295">
        <ele>97.71</ele>
        <time>2010-04-04T08:55:41Z</time>
      </trkpt>
      <trkpt lat="47.35058" lon="0.08267">
        <ele>97.23</ele>
        <time>2010-04-04T08:55:46Z</time>
      </trkpt>
      <trkpt lat="47.35065" lon="0.0824">
        <ele>95.79</ele>
        <time>2010-04-04T08:55:51Z</time>
      </trkpt>
      <trkpt lat="47.35067" lon="0.08233">
        <ele>96.27</ele>
        <time>2010-04-04T08:55:52Z</time>
      </trkpt>
      <trkpt lat="47.35068" lon="0.08226">
        <ele>95.31</ele>
        <time>2010-04-04T08:55:53Z</time>
      </trkpt>
      <trkpt lat="47.35069" lon="0.08218">
        <ele>95.31</ele>
        <time>2010-04-04T08:55:54Z</time>
      </trkpt>
      <trkpt lat="47.35071" lon="0.08212">
        <ele>94.83</ele>
        <time>2010-04-04T08:55:55Z</time>
      </trkpt>
      <trkpt lat="47.35072" lon="0.08205">
        <ele>95.31</ele>
        <time>2010-04-04T08:55:56Z</time>
      </trkpt>
      <trkpt lat="47.35075" lon="0.08198">
        <ele>95.79</ele>
        <time>2010-04-04T08:55:57Z</time>
      </trkpt>
      <trkpt lat="47.35077" lon="0.08191">
        <ele>95.31</ele>
        <time>2010-04-04T08:55:58Z</time>
      </trkpt>
      <trkpt lat="47.3508" lon="0.08186">
        <ele>95.31</ele>
        <time>2010-04-04T08:55:59Z</time>
      </trkpt>
      <trkpt lat="47.35082" lon="0.0818">
        <ele>93.87</ele>
        <time>2010-04-04T08:56:00Z</time>
      </trkpt>
      <trkpt lat="47.35084" lon="0.08175">
        <ele>94.35</ele>
        <time>2010-04-04T08:56:01Z</time>
      </trkpt>
      <trkpt lat="47.35094" lon="0.08147">
        <ele>94.83</ele>
        <time>2010-04-04T08:56:07Z</time>
      </trkpt>
      <trkpt lat="47.35101" lon="0.08124">
        <ele>94.83</ele>
        <time>2010-04-04T08:56:11Z</time>
      </trkpt>
      <trkpt lat="47.35103" lon="0.08119">
        <ele>94.35</ele>
        <time>2010-04-04T08:56:12Z</time>
      </trkpt>
      <trkpt lat="47.35107" lon="0.08106">
        <ele>93.87</ele>
        <time>2010-04-04T08:56:14Z</time>
      </trkpt>
      <trkpt lat="47.35107" lon="0.081">
        <ele>93.87</ele>
        <time>2010-04-04T08:56:15Z</time>
      </trkpt>
      <trkpt lat="47.35108" lon="0.08095">
        <ele>93.39</ele>
        <time>2010-04-04T08:56:16Z</time>
      </trkpt>
      <trkpt lat="47.3511" lon="0.08089">
        <ele>93.39</ele>
        <time>2010-04-04T08:56:17Z</time>
      </trkpt>
      <trkpt lat="47.35112" lon="0.08084">
        <ele>93.87</ele>
        <time>2010-04-04T08:56:18Z</time>
      </trkpt>
      <trkpt lat="47.35113" lon="0.08079">
        <ele>94.35</ele>
        <time>2010-04-04T08:56:19Z</time>
      </trkpt>
      <trkpt lat="47.35115" lon="0.08074">
        <ele>93.39</ele>
        <time>2010-04-04T08:56:20Z</time>
      </trkpt>
      <trkpt lat="47.35117" lon="0.08068">
        <ele>93.39</ele>
        <time>2010-04-04T08:56:21Z</time>
      </trkpt>
      <trkpt lat="47.35119" lon="0.08063">
        <ele>93.87</ele>
        <time>2010-04-04T08:56:22Z</time>
      </trkpt>
      <trkpt lat="47.35121" lon="0.08058">
        <ele>93.39</ele>
        <time>2010-04-04T08:56:23Z</time>
      </trkpt>
      <trkpt lat="47.35124" lon="0.08052">
        <ele>92.9</ele>
        <time>2010-04-04T08:56:24Z</time>
      </trkpt>
      <trkpt lat="47.35136" lon="0.08016">
        <ele>92.9</ele>
        <time>2010-04-04T08:56:30Z</time>
      </trkpt>
      <trkpt lat="47.35147" lon="0.0798">
        <ele>91.94</ele>
        <time>2010-04-04T08:56:36Z</time>
      </trkpt>
      <trkpt lat="47.35158" lon="0.07954">
        <ele>91.46</ele>
        <time>2010-04-04T08:56:41Z</time>
      </trkpt>
      <trkpt lat="47.3516" lon="0.07951">
        <ele>91.94</ele>
        <time>2010-04-04T08:56:42Z</time>
      </trkpt>
      <trkpt lat="47.35161" lon="0.07948">
        <ele>90.98</ele>
        <time>2010-04-04T08:56:43Z</time>
      </trkpt>
      <trkpt lat="47.35163" lon="0.07945">
        <ele>90.98</ele>
        <time>2010-04-04T08:56:44Z</time>
      </trkpt>
      <trkpt lat="47.35165" lon="0.07943">
        <ele>90.98</ele>
        <time>2010-04-04T08:56:45Z</time>
      </trkpt>
      <trkpt lat="47.35166" lon="0.07941">
        <ele>90.98</ele>
        <time>2010-04-04T08:56:46Z</time>
      </trkpt>
      <trkpt lat="47.35167" lon="0.07935">
        <ele>91.46</ele>
        <time>2010-04-04T08:56:48Z</time>
      </trkpt>
      <trkpt lat="47.35166" lon="0.07932">
        <ele>91.46</ele>
        <time>2010-04-04T08:56:49Z</time>
      </trkpt>
      <trkpt lat="47.35157" lon="0.07908">
        <ele>91.46</ele>
        <time>2010-04-04T08:56:55Z</time>
      </trkpt>
      <trkpt lat="47.35155" lon="0.07902">
        <ele>91.46</ele>
        <time>2010-04-04T08:56:57Z</time>
      </trkpt>
      <trkpt lat="47.35155" lon="0.07899">
        <ele>90.98</ele>
        <time>2010-04-04T08:56:58Z</time>
      </trkpt>
      <trkpt lat="47.35144" lon="0.07873">
        <ele>91.46</ele>
        <time>2010-04-04T08:57:05Z</time>
      </trkpt>
      <trkpt lat="47.35134" lon="0.07838">
        <ele>91.94</ele>
        <time>2010-04-04T08:57:12Z</time>
      </trkpt>
      <trkpt lat="47.35121" lon="0.07792">
        <ele>92.9</ele>
        <time>2010-04-04T08:57:20Z</time>
      </trkpt>
      <trkpt lat="47.3511" lon="0.07757">
        <ele>92.9</ele>
        <time>2010-04-04T08:57:25Z</time>
      </trkpt>
      <trkpt lat="47.35108" lon="0.07749">
        <ele>93.39</ele>
        <time>2010-04-04T08:57:26Z</time>
      </trkpt>
      <trkpt lat="47.35105" lon="0.07742">
        <ele>93.87</ele>
        <time>2010-04-04T08:57:27Z</time>
      </trkpt>
      <trkpt lat="47.35088" lon="0.07683">
        <ele>94.83</ele>
        <time>2010-04-04T08:57:34Z</time>
      </trkpt>
      <trkpt lat="47.3507" lon="0.0762">
        <ele>94.35</ele>
        <time>2010-04-04T08:57:42Z</time>
      </trkpt>
      <trkpt lat="47.35064" lon="0.07604">
        <ele>93.87</ele>
        <time>2010-04-04T08:57:44Z</time>
      </trkpt>
      <trkpt lat="47.35033" lon="0.07531">
        <ele>93.87</ele>
        <time>2010-04-04T08:57:54Z</time>
      </trkpt>
      <trkpt lat="47.35015" lon="0.07496">
        <ele>93.39</ele>
        <time>2010-04-04T08:58:00Z</time>
      </trkpt>
      <trkpt lat="47.35001" lon="0.07465">
        <ele>93.39</ele>
        <time>2010-04-04T08:58:06Z</time>
      </trkpt>
      <trkpt lat="47.34982" lon="0.0742">
        <ele>91.94</ele>
        <time>2010-04-04T08:58:15Z</time>
      </trkpt>
      <trkpt lat="47.34978" lon="0.07406">
        <ele>91.46</ele>
        <time>2010-04-04T08:58:20Z</time>
      </trkpt>
      <trkpt lat="47.34978" lon="0.07406">
        <ele>91.46</ele>
        <time>2010-04-04T08:58:44Z</time>
      </trkpt>
      <trkpt lat="47.34978" lon="0.07405">
        <ele>92.9</ele>
        <time>2010-04-04T08:59:07Z</time>
      </trkpt>
      <trkpt lat="47.34974" lon="0.07398">
        <ele>91.46</ele>
        <time>2010-04-04T08:59:43Z</time>
      </trkpt>
      <trkpt lat="47.34956" lon="0.07377">
        <ele>91.94</ele>
        <time>2010-04-04T08:59:49Z</time>
      </trkpt>
      <trkpt lat="47.34943" lon="0.07363">
        <ele>91.46</ele>
        <time>2010-04-04T08:59:52Z</time>
      </trkpt>
      <trkpt lat="47.34939" lon="0.07359">
        <ele>91.46</ele>
        <time>2010-04-04T08:59:53Z</time>
      </trkpt>
      <trkpt lat="47.34909" lon="0.07331">
        <ele>91.94</ele>
        <time>2010-04-04T09:00:00Z</time>
      </trkpt>
      <trkpt lat="47.34905" lon="0.07327">
        <ele>92.9</ele>
        <time>2010-04-04T09:00:01Z</time>
      </trkpt>
      <trkpt lat="47.34902" lon="0.07323">
        <ele>92.42</ele>
        <time>2010-04-04T09:00:02Z</time>
      </trkpt>
      <trkpt lat="47.34898" lon="0.0732">
        <ele>92.42</ele>
        <time>2010-04-04T09:00:03Z</time>
      </trkpt>
      <trkpt lat="47.34894" lon="0.07316">
        <ele>92.9</ele>
        <time>2010-04-04T09:00:04Z</time>
      </trkpt>
      <trkpt lat="47.34869" lon="0.07293">
        <ele>93.39</ele>
        <time>2010-04-04T09:00:10Z</time>
      </trkpt>
      <trkpt lat="47.34861" lon="0.07285">
        <ele>93.39</ele>
        <time>2010-04-04T09:00:12Z</time>
      </trkpt>
      <trkpt lat="47.34857" lon="0.07281">
        <ele>93.39</ele>
        <time>2010-04-04T09:00:13Z</time>
      </trkpt>
      <trkpt lat="47.34837" lon="0.07261">
        <ele>93.39</ele>
        <time>2010-04-04T09:00:18Z</time>
      </trkpt>
      <trkpt lat="47.34833" lon="0.07256">
        <ele>93.87</ele>
        <time>2010-04-04T09:00:19Z</time>
      </trkpt>
      <trkpt lat="47.34807" lon="0.07226">
        <ele>94.35</ele>
        <time>2010-04-04T09:00:26Z</time>
      </trkpt>
      <trkpt lat="47.34797" lon="0.07208">
        <ele>93.87</ele>
        <time>2010-04-04T09:00:30Z</time>
      </trkpt>
      <trkpt lat="47.34797" lon="0.07201">
        <ele>94.35</ele>
        <time>2010-04-04T09:00:31Z</time>
      </trkpt>
      <trkpt lat="47.34799" lon="0.07195">
        <ele>94.35</ele>
        <time>2010-04-04T09:00:32Z</time>
      </trkpt>
      <trkpt lat="47.34802" lon="0.07189">
        <ele>93.87</ele>
        <time>2010-04-04T09:00:33Z</time>
      </trkpt>
      <trkpt lat="47.34804" lon="0.07183">
        <ele>93.87</ele>
        <time>2010-04-04T09:00:34Z</time>
      </trkpt>
      <trkpt lat="47.34809" lon="0.07169">
        <ele>93.87</ele>
        <time>2010-04-04T09:00:36Z</time>
      </trkpt>
      <trkpt lat="47.34811" lon="0.07161">
        <ele>93.87</ele>
        <time>2010-04-04T09:00:37Z</time>
      </trkpt>
      <trkpt lat="47.34815" lon="0.07146">
        <ele>94.35</ele>
        <time>2010-04-04T09:00:39Z</time>
      </trkpt>
      <trkpt lat="47.3482" lon="0.07079">
        <ele>93.39</ele>
        <time>2010-04-04T09:00:47Z</time>
      </trkpt>
      <trkpt lat="47.34822" lon="0.07062">
        <ele>92.9</ele>
        <time>2010-04-04T09:00:49Z</time>
      </trkpt>
      <trkpt lat="47.34823" lon="0.07054">
        <ele>92.42</ele>
        <time>2010-04-04T09:00:50Z</time>
      </trkpt>
      <trkpt lat="47.34827" lon="0.07036">
        <ele>92.9</ele>
        <time>2010-04-04T09:00:52Z</time>
      </trkpt>
      <trkpt lat="47.34835" lon="0.0701">
        <ele>90.98</ele>
        <time>2010-04-04T09:00:55Z</time>
      </trkpt>
      <trkpt lat="47.34843" lon="0.06985">
        <ele>91.46</ele>
        <time>2010-04-04T09:00:58Z</time>
      </trkpt>
      <trkpt lat="47.34858" lon="0.06947">
        <ele>89.54</ele>
        <time>2010-04-04T09:01:03Z</time>
      </trkpt>
      <trkpt lat="47.34862" lon="0.0694">
        <ele>89.54</ele>
        <time>2010-04-04T09:01:04Z</time>
      </trkpt>
      <trkpt lat="47.34876" lon="0.06919">
        <ele>88.58</ele>
        <time>2010-04-04T09:01:07Z</time>
      </trkpt>
      <trkpt lat="47.34894" lon="0.06891">
        <ele>86.66</ele>
        <time>2010-04-04T09:01:11Z</time>
      </trkpt>
      <trkpt lat="47.34899" lon="0.06884">
        <ele>87.14</ele>
        <time>2010-04-04T09:01:12Z</time>
      </trkpt>
      <trkpt lat="47.34903" lon="0.06879">
        <ele>86.18</ele>
        <time>2010-04-04T09:01:13Z</time>
      </trkpt>
      <trkpt lat="47.34908" lon="0.06874">
        <ele>86.18</ele>
        <time>2010-04-04T09:01:14Z</time>
      </trkpt>
      <trkpt lat="47.34913" lon="0.06869">
        <ele>85.21</ele>
        <time>2010-04-04T09:01:15Z</time>
      </trkpt>
      <trkpt lat="47.34918" lon="0.06865">
        <ele>85.69</ele>
        <time>2010-04-04T09:01:16Z</time>
      </trkpt>
      <trkpt lat="47.34923" lon="0.06859">
        <ele>84.25</ele>
        <time>2010-04-04T09:01:17Z</time>
      </trkpt>
      <trkpt lat="47.34928" lon="0.06853">
        <ele>83.77</ele>
        <time>2010-04-04T09:01:18Z</time>
      </trkpt>
      <trkpt lat="47.34932" lon="0.06847">
        <ele>83.77</ele>
        <time>2010-04-04T09:01:19Z</time>
      </trkpt>
      <trkpt lat="47.34941" lon="0.06827">
        <ele>81.85</ele>
        <time>2010-04-04T09:01:22Z</time>
      </trkpt>
      <trkpt lat="47.34945" lon="0.06821">
        <ele>82.81</ele>
        <time>2010-04-04T09:01:23Z</time>
      </trkpt>
      <trkpt lat="47.34978" lon="0.06781">
        <ele>78.97</ele>
        <time>2010-04-04T09:01:29Z</time>
      </trkpt>
      <trkpt lat="47.34984" lon="0.06772">
        <ele>78.97</ele>
        <time>2010-04-04T09:01:30Z</time>
      </trkpt>
      <trkpt lat="47.34989" lon="0.06763">
        <ele>78</ele>
        <time>2010-04-04T09:01:31Z</time>
      </trkpt>
      <trkpt lat="47.34997" lon="0.06743">
        <ele>77.04</ele>
        <time>2010-04-04T09:01:33Z</time>
      </trkpt>
      <trkpt lat="47.35002" lon="0.06735">
        <ele>77.52</ele>
        <time>2010-04-04T09:01:34Z</time>
      </trkpt>
      <trkpt lat="47.35026" lon="0.06689">
        <ele>74.64</ele>
        <time>2010-04-04T09:01:39Z</time>
      </trkpt>
      <trkpt lat="47.35037" lon="0.06658">
        <ele>71.76</ele>
        <time>2010-04-04T09:01:42Z</time>
      </trkpt>
      <trkpt lat="47.3504" lon="0.06647">
        <ele>70.79</ele>
        <time>2010-04-04T09:01:43Z</time>
      </trkpt>
      <trkpt lat="47.35046" lon="0.06626">
        <ele>68.87</ele>
        <time>2010-04-04T09:01:45Z</time>
      </trkpt>
      <trkpt lat="47.35049" lon="0.06616">
        <ele>67.43</ele>
        <time>2010-04-04T09:01:46Z</time>
      </trkpt>
      <trkpt lat="47.35051" lon="0.06605">
        <ele>66.47</ele>
        <time>2010-04-04T09:01:47Z</time>
      </trkpt>
      <trkpt lat="47.35051" lon="0.06593">
        <ele>65.51</ele>
        <time>2010-04-04T09:01:48Z</time>
      </trkpt>
      <trkpt lat="47.3505" lon="0.06582">
        <ele>64.55</ele>
        <time>2010-04-04T09:01:49Z</time>
      </trkpt>
      <trkpt lat="47.3505" lon="0.06558">
        <ele>63.1</ele>
        <time>2010-04-04T09:01:51Z</time>
      </trkpt>
      <trkpt lat="47.35052" lon="0.06547">
        <ele>62.62</ele>
        <time>2010-04-04T09:01:52Z</time>
      </trkpt>
      <trkpt lat="47.35064" lon="0.06486">
        <ele>63.1</ele>
        <time>2010-04-04T09:01:58Z</time>
      </trkpt>
      <trkpt lat="47.35068" lon="0.06468">
        <ele>61.66</ele>
        <time>2010-04-04T09:02:00Z</time>
      </trkpt>
      <trkpt lat="47.3507" lon="0.06458">
        <ele>61.18</ele>
        <time>2010-04-04T09:02:01Z</time>
      </trkpt>
      <trkpt lat="47.35072" lon="0.06438">
        <ele>60.22</ele>
        <time>2010-04-04T09:02:03Z</time>
      </trkpt>
      <trkpt lat="47.35076" lon="0.0642">
        <ele>60.22</ele>
        <time>2010-04-04T09:02:05Z</time>
      </trkpt>
      <trkpt lat="47.35078" lon="0.06411">
        <ele>59.74</ele>
        <time>2010-04-04T09:02:06Z</time>
      </trkpt>
      <trkpt lat="47.3508" lon="0.06403">
        <ele>59.26</ele>
        <time>2010-04-04T09:02:07Z</time>
      </trkpt>
      <trkpt lat="47.35098" lon="0.06333">
        <ele>57.34</ele>
        <time>2010-04-04T09:02:15Z</time>
      </trkpt>
      <trkpt lat="47.35102" lon="0.06314">
        <ele>58.3</ele>
        <time>2010-04-04T09:02:17Z</time>
      </trkpt>
      <trkpt lat="47.35107" lon="0.06297">
        <ele>58.3</ele>
        <time>2010-04-04T09:02:19Z</time>
      </trkpt>
      <trkpt lat="47.3511" lon="0.06288">
        <ele>57.82</ele>
        <time>2010-04-04T09:02:20Z</time>
      </trkpt>
      <trkpt lat="47.35113" lon="0.0628">
        <ele>57.82</ele>
        <time>2010-04-04T09:02:21Z</time>
      </trkpt>
      <trkpt lat="47.35116" lon="0.06272">
        <ele>57.82</ele>
        <time>2010-04-04T09:02:22Z</time>
      </trkpt>
      <trkpt lat="47.35119" lon="0.06264">
        <ele>57.82</ele>
        <time>2010-04-04T09:02:23Z</time>
      </trkpt>
      <trkpt lat="47.35131" lon="0.06222">
        <ele>56.37</ele>
        <time>2010-04-04T09:02:28Z</time>
      </trkpt>
      <trkpt lat="47.35133" lon="0.06213">
        <ele>56.86</ele>
        <time>2010-04-04T09:02:29Z</time>
      </trkpt>
      <trkpt lat="47.35137" lon="0.06195">
        <ele>55.89</ele>
        <time>2010-04-04T09:02:31Z</time>
      </trkpt>
      <trkpt lat="47.35139" lon="0.06187">
        <ele>55.41</ele>
        <time>2010-04-04T09:02:32Z</time>
      </trkpt>
      <trkpt lat="47.35141" lon="0.06178">
        <ele>54.45</ele>
        <time>2010-04-04T09:02:33Z</time>
      </trkpt>
      <trkpt lat="47.35151" lon="0.06144">
        <ele>53.49</ele>
        <time>2010-04-04T09:02:37Z</time>
      </trkpt>
      <trkpt lat="47.35154" lon="0.06127">
        <ele>53.97</ele>
        <time>2010-04-04T09:02:39Z</time>
      </trkpt>
      <trkpt lat="47.35171" lon="0.06076">
        <ele>54.93</ele>
        <time>2010-04-04T09:02:46Z</time>
      </trkpt>
      <trkpt lat="47.35179" lon="0.06045">
        <ele>54.93</ele>
        <time>2010-04-04T09:02:50Z</time>
      </trkpt>
      <trkpt lat="47.35185" lon="0.06022">
        <ele>54.93</ele>
        <time>2010-04-04T09:02:53Z</time>
      </trkpt>
      <trkpt lat="47.35195" lon="0.05993">
        <ele>55.89</ele>
        <time>2010-04-04T09:02:57Z</time>
      </trkpt>
      <trkpt lat="47.35202" lon="0.05981">
        <ele>56.37</ele>
        <time>2010-04-04T09:02:59Z</time>
      </trkpt>
      <trkpt lat="47.35204" lon="0.05973">
        <ele>56.86</ele>
        <time>2010-04-04T09:03:00Z</time>
      </trkpt>
      <trkpt lat="47.35206" lon="0.05966">
        <ele>56.37</ele>
        <time>2010-04-04T09:03:01Z</time>
      </trkpt>
      <trkpt lat="47.35212" lon="0.05952">
        <ele>55.89</ele>
        <time>2010-04-04T09:03:03Z</time>
      </trkpt>
      <trkpt lat="47.35214" lon="0.05946">
        <ele>56.37</ele>
        <time>2010-04-04T09:03:04Z</time>
      </trkpt>
      <trkpt lat="47.35219" lon="0.05931">
        <ele>56.37</ele>
        <time>2010-04-04T09:03:06Z</time>
      </trkpt>
      <trkpt lat="47.35224" lon="0.05917">
        <ele>55.41</ele>
        <time>2010-04-04T09:03:08Z</time>
      </trkpt>
      <trkpt lat="47.35226" lon="0.05909">
        <ele>55.41</ele>
        <time>2010-04-04T09:03:09Z</time>
      </trkpt>
      <trkpt lat="47.35229" lon="0.05902">
        <ele>55.89</ele>
        <time>2010-04-04T09:03:10Z</time>
      </trkpt>
      <trkpt lat="47.35232" lon="0.05897">
        <ele>55.41</ele>
        <time>2010-04-04T09:03:11Z</time>
      </trkpt>
      <trkpt lat="47.35235" lon="0.05892">
        <ele>55.41</ele>
        <time>2010-04-04T09:03:12Z</time>
      </trkpt>
      <trkpt lat="47.35238" lon="0.05886">
        <ele>55.41</ele>
        <time>2010-04-04T09:03:13Z</time>
      </trkpt>
      <trkpt lat="47.35241" lon="0.05879">
        <ele>55.41</ele>
        <time>2010-04-04T09:03:14Z</time>
      </trkpt>
      <trkpt lat="47.35244" lon="0.05872">
        <ele>55.89</ele>
        <time>2010-04-04T09:03:15Z</time>
      </trkpt>
      <trkpt lat="47.35246" lon="0.05865">
        <ele>55.41</ele>
        <time>2010-04-04T09:03:16Z</time>
      </trkpt>
      <trkpt lat="47.35249" lon="0.05857">
        <ele>55.41</ele>
        <time>2010-04-04T09:03:17Z</time>
      </trkpt>
      <trkpt lat="47.35251" lon="0.0585">
        <ele>55.89</ele>
        <time>2010-04-04T09:03:18Z</time>
      </trkpt>
      <trkpt lat="47.35253" lon="0.05843">
        <ele>55.41</ele>
        <time>2010-04-04T09:03:19Z</time>
      </trkpt>
      <trkpt lat="47.35255" lon="0.05834">
        <ele>55.89</ele>
        <time>2010-04-04T09:03:20Z</time>
      </trkpt>
      <trkpt lat="47.35256" lon="0.05826">
        <ele>55.41</ele>
        <time>2010-04-04T09:03:21Z</time>
      </trkpt>
      <trkpt lat="47.35259" lon="0.05818">
        <ele>55.41</ele>
        <time>2010-04-04T09:03:22Z</time>
      </trkpt>
      <trkpt lat="47.35263" lon="0.05813">
        <ele>55.89</ele>
        <time>2010-04-04T09:03:23Z</time>
      </trkpt>
      <trkpt lat="47.35268" lon="0.05803">
        <ele>55.41</ele>
        <time>2010-04-04T09:03:25Z</time>
      </trkpt>
      <trkpt lat="47.35273" lon="0.05789">
        <ele>54.93</ele>
        <time>2010-04-04T09:03:27Z</time>
      </trkpt>
      <trkpt lat="47.35275" lon="0.05782">
        <ele>55.41</ele>
        <time>2010-04-04T09:03:28Z</time>
      </trkpt>
      <trkpt lat="47.35286" lon="0.05757">
        <ele>55.41</ele>
        <time>2010-04-04T09:03:32Z</time>
      </trkpt>
      <trkpt lat="47.35291" lon="0.05744">
        <ele>55.41</ele>
        <time>2010-04-04T09:03:34Z</time>
      </trkpt>
      <trkpt lat="47.35293" lon="0.05737">
        <ele>55.41</ele>
        <time>2010-04-04T09:03:35Z</time>
      </trkpt>
      <trkpt lat="47.35296" lon="0.05731">
        <ele>54.93</ele>
        <time>2010-04-04T09:03:36Z</time>
      </trkpt>
      <trkpt lat="47.35298" lon="0.05724">
        <ele>55.41</ele>
        <time>2010-04-04T09:03:37Z</time>
      </trkpt>
      <trkpt lat="47.353" lon="0.05717">
        <ele>55.89</ele>
        <time>2010-04-04T09:03:38Z</time>
      </trkpt>
      <trkpt lat="47.35303" lon="0.05711">
        <ele>55.89</ele>
        <time>2010-04-04T09:03:39Z</time>
      </trkpt>
      <trkpt lat="47.35305" lon="0.05705">
        <ele>55.41</ele>
        <time>2010-04-04T09:03:40Z</time>
      </trkpt>
      <trkpt lat="47.35308" lon="0.05699">
        <ele>55.89</ele>
        <time>2010-04-04T09:03:41Z</time>
      </trkpt>
      <trkpt lat="47.35311" lon="0.05691">
        <ele>55.41</ele>
        <time>2010-04-04T09:03:42Z</time>
      </trkpt>
      <trkpt lat="47.35314" lon="0.05685">
        <ele>54.93</ele>
        <time>2010-04-04T09:03:43Z</time>
      </trkpt>
      <trkpt lat="47.35316" lon="0.05678">
        <ele>54.93</ele>
        <time>2010-04-04T09:03:44Z</time>
      </trkpt>
      <trkpt lat="47.35318" lon="0.05671">
        <ele>55.41</ele>
        <time>2010-04-04T09:03:45Z</time>
      </trkpt>
      <trkpt lat="47.3532" lon="0.05665">
        <ele>55.41</ele>
        <time>2010-04-04T09:03:46Z</time>
      </trkpt>
      <trkpt lat="47.35322" lon="0.05658">
        <ele>54.93</ele>
        <time>2010-04-04T09:03:47Z</time>
      </trkpt>
      <trkpt lat="47.35327" lon="0.05637">
        <ele>53.97</ele>
        <time>2010-04-04T09:03:50Z</time>
      </trkpt>
      <trkpt lat="47.35328" lon="0.05631">
        <ele>53.97</ele>
        <time>2010-04-04T09:03:51Z</time>
      </trkpt>
      <trkpt lat="47.3533" lon="0.05625">
        <ele>53.97</ele>
        <time>2010-04-04T09:03:52Z</time>
      </trkpt>
      <trkpt lat="47.3534" lon="0.05584">
        <ele>53.01</ele>
        <time>2010-04-04T09:03:58Z</time>
      </trkpt>
      <trkpt lat="47.35347" lon="0.05566">
        <ele>54.45</ele>
        <time>2010-04-04T09:04:01Z</time>
      </trkpt>
      <trkpt lat="47.35349" lon="0.0556">
        <ele>53.97</ele>
        <time>2010-04-04T09:04:02Z</time>
      </trkpt>
      <trkpt lat="47.35359" lon="0.05521">
        <ele>53.97</ele>
        <time>2010-04-04T09:04:09Z</time>
      </trkpt>
      <trkpt lat="47.35372" lon="0.0549">
        <ele>54.93</ele>
        <time>2010-04-04T09:04:15Z</time>
      </trkpt>
      <trkpt lat="47.35374" lon="0.05485">
        <ele>55.89</ele>
        <time>2010-04-04T09:04:16Z</time>
      </trkpt>
      <trkpt lat="47.35376" lon="0.05479">
        <ele>55.41</ele>
        <time>2010-04-04T09:04:17Z</time>
      </trkpt>
      <trkpt lat="47.35392" lon="0.05431">
        <ele>56.37</ele>
        <time>2010-04-04T09:04:26Z</time>
      </trkpt>
      <trkpt lat="47.35394" lon="0.05427">
        <ele>56.86</ele>
        <time>2010-04-04T09:04:27Z</time>
      </trkpt>
      <trkpt lat="47.35396" lon="0.0542">
        <ele>56.86</ele>
        <time>2010-04-04T09:04:28Z</time>
      </trkpt>
      <trkpt lat="47.35402" lon="0.05395">
        <ele>57.34</ele>
        <time>2010-04-04T09:04:32Z</time>
      </trkpt>
      <trkpt lat="47.35403" lon="0.05389">
        <ele>56.86</ele>
        <time>2010-04-04T09:04:33Z</time>
      </trkpt>
      <trkpt lat="47.35405" lon="0.05383">
        <ele>57.34</ele>
        <time>2010-04-04T09:04:34Z</time>
      </trkpt>
      <trkpt lat="47.3541" lon="0.05363">
        <ele>57.82</ele>
        <time>2010-04-04T09:04:37Z</time>
      </trkpt>
      <trkpt lat="47.35411" lon="0.05356">
        <ele>58.3</ele>
        <time>2010-04-04T09:04:38Z</time>
      </trkpt>
      <trkpt lat="47.35412" lon="0.05349">
        <ele>58.3</ele>
        <time>2010-04-04T09:04:39Z</time>
      </trkpt>
      <trkpt lat="47.35418" lon="0.05328">
        <ele>58.3</ele>
        <time>2010-04-04T09:04:42Z</time>
      </trkpt>
      <trkpt lat="47.35424" lon="0.05309">
        <ele>57.82</ele>
        <time>2010-04-04T09:04:45Z</time>
      </trkpt>
      <trkpt lat="47.35427" lon="0.05296">
        <ele>58.3</ele>
        <time>2010-04-04T09:04:47Z</time>
      </trkpt>
      <trkpt lat="47.35428" lon="0.05289">
        <ele>58.3</ele>
        <time>2010-04-04T09:04:48Z</time>
      </trkpt>
      <trkpt lat="47.35434" lon="0.05272">
        <ele>58.3</ele>
        <time>2010-04-04T09:04:51Z</time>
      </trkpt>
      <trkpt lat="47.35437" lon="0.05267">
        <ele>58.3</ele>
        <time>2010-04-04T09:04:52Z</time>
      </trkpt>
      <trkpt lat="47.35439" lon="0.05262">
        <ele>57.82</ele>
        <time>2010-04-04T09:04:53Z</time>
      </trkpt>
      <trkpt lat="47.3544" lon="0.05256">
        <ele>57.82</ele>
        <time>2010-04-04T09:04:54Z</time>
      </trkpt>
      <trkpt lat="47.35442" lon="0.05251">
        <ele>57.34</ele>
        <time>2010-04-04T09:04:55Z</time>
      </trkpt>
      <trkpt lat="47.35443" lon="0.05246">
        <ele>57.34</ele>
        <time>2010-04-04T09:04:56Z</time>
      </trkpt>
      <trkpt lat="47.35445" lon="0.05242">
        <ele>57.34</ele>
        <time>2010-04-04T09:04:57Z</time>
      </trkpt>
      <trkpt lat="47.35452" lon="0.05225">
        <ele>56.86</ele>
        <time>2010-04-04T09:05:01Z</time>
      </trkpt>
      <trkpt lat="47.35454" lon="0.05222">
        <ele>57.34</ele>
        <time>2010-04-04T09:05:02Z</time>
      </trkpt>
      <trkpt lat="47.35456" lon="0.05218">
        <ele>56.37</ele>
        <time>2010-04-04T09:05:03Z</time>
      </trkpt>
      <trkpt lat="47.35457" lon="0.05214">
        <ele>56.86</ele>
        <time>2010-04-04T09:05:04Z</time>
      </trkpt>
      <trkpt lat="47.35458" lon="0.0521">
        <ele>56.86</ele>
        <time>2010-04-04T09:05:05Z</time>
      </trkpt>
      <trkpt lat="47.35459" lon="0.05206">
        <ele>56.37</ele>
        <time>2010-04-04T09:05:06Z</time>
      </trkpt>
      <trkpt lat="47.35462" lon="0.05189">
        <ele>56.37</ele>
        <time>2010-04-04T09:05:11Z</time>
      </trkpt>
      <trkpt lat="47.35463" lon="0.05187">
        <ele>56.37</ele>
        <time>2010-04-04T09:05:12Z</time>
      </trkpt>
      <trkpt lat="47.35465" lon="0.05185">
        <ele>56.37</ele>
        <time>2010-04-04T09:05:13Z</time>
      </trkpt>
      <trkpt lat="47.35467" lon="0.05182">
        <ele>56.37</ele>
        <time>2010-04-04T09:05:14Z</time>
      </trkpt>
      <trkpt lat="47.35469" lon="0.05181">
        <ele>56.37</ele>
        <time>2010-04-04T09:05:15Z</time>
      </trkpt>
      <trkpt lat="47.3548" lon="0.05173">
        <ele>56.37</ele>
        <time>2010-04-04T09:05:21Z</time>
      </trkpt>
      <trkpt lat="47.35485" lon="0.05171">
        <ele>56.37</ele>
        <time>2010-04-04T09:05:23Z</time>
      </trkpt>
      <trkpt lat="47.35487" lon="0.05172">
        <ele>56.37</ele>
        <time>2010-04-04T09:05:24Z</time>
      </trkpt>
      <trkpt lat="47.35488" lon="0.05173">
        <ele>56.37</ele>
        <time>2010-04-04T09:05:25Z</time>
      </trkpt>
      <trkpt lat="47.35489" lon="0.05174">
        <ele>56.37</ele>
        <time>2010-04-04T09:05:26Z</time>
      </trkpt>
      <trkpt lat="47.35492" lon="0.05175">
        <ele>55.41</ele>
        <time>2010-04-04T09:05:32Z</time>
      </trkpt>
      <trkpt lat="47.35495" lon="0.0518">
        <ele>56.37</ele>
        <time>2010-04-04T09:05:48Z</time>
      </trkpt>
      <trkpt lat="47.35507" lon="0.05197">
        <ele>56.37</ele>
        <time>2010-04-04T09:05:55Z</time>
      </trkpt>
      <trkpt lat="47.35525" lon="0.05221">
        <ele>56.86</ele>
        <time>2010-04-04T09:06:04Z</time>
      </trkpt>
      <trkpt lat="47.35539" lon="0.05242">
        <ele>56.86</ele>
        <time>2010-04-04T09:06:10Z</time>
      </trkpt>
      <trkpt lat="47.35562" lon="0.05274">
        <ele>57.82</ele>
        <time>2010-04-04T09:06:19Z</time>
      </trkpt>
      <trkpt lat="47.35577" lon="0.05294">
        <ele>57.82</ele>
        <time>2010-04-04T09:06:25Z</time>
      </trkpt>
      <trkpt lat="47.35591" lon="0.05312">
        <ele>58.78</ele>
        <time>2010-04-04T09:06:30Z</time>
      </trkpt>
      <trkpt lat="47.35614" lon="0.05321">
        <ele>58.78</ele>
        <time>2010-04-04T09:06:36Z</time>
      </trkpt>
      <trkpt lat="47.35641" lon="0.05311">
        <ele>58.3</ele>
        <time>2010-04-04T09:06:43Z</time>
      </trkpt>
      <trkpt lat="47.35664" lon="0.0529">
        <ele>59.74</ele>
        <time>2010-04-04T09:06:50Z</time>
      </trkpt>
      <trkpt lat="47.35679" lon="0.05279">
        <ele>58.78</ele>
        <time>2010-04-04T09:06:54Z</time>
      </trkpt>
      <trkpt lat="47.35683" lon="0.05276">
        <ele>59.26</ele>
        <time>2010-04-04T09:06:55Z</time>
      </trkpt>
      <trkpt lat="47.35688" lon="0.05273">
        <ele>59.26</ele>
        <time>2010-04-04T09:06:56Z</time>
      </trkpt>
      <trkpt lat="47.35716" lon="0.05252">
        <ele>58.78</ele>
        <time>2010-04-04T09:07:03Z</time>
      </trkpt>
      <trkpt lat="47.35724" lon="0.05244">
        <ele>57.82</ele>
        <time>2010-04-04T09:07:05Z</time>
      </trkpt>
      <trkpt lat="47.35728" lon="0.05241">
        <ele>58.3</ele>
        <time>2010-04-04T09:07:06Z</time>
      </trkpt>
      <trkpt lat="47.35761" lon="0.05212">
        <ele>58.78</ele>
        <time>2010-04-04T09:07:14Z</time>
      </trkpt>
      <trkpt lat="47.35765" lon="0.05208">
        <ele>58.78</ele>
        <time>2010-04-04T09:07:15Z</time>
      </trkpt>
      <trkpt lat="47.358" lon="0.05184">
        <ele>59.26</ele>
        <time>2010-04-04T09:07:22Z</time>
      </trkpt>
      <trkpt lat="47.35833" lon="0.05165">
        <ele>58.3</ele>
        <time>2010-04-04T09:07:29Z</time>
      </trkpt>
      <trkpt lat="47.3587" lon="0.05146">
        <ele>58.78</ele>
        <time>2010-04-04T09:07:36Z</time>
      </trkpt>
      <trkpt lat="47.35881" lon="0.0514">
        <ele>57.82</ele>
        <time>2010-04-04T09:07:38Z</time>
      </trkpt>
      <trkpt lat="47.35895" lon="0.05131">
        <ele>58.3</ele>
        <time>2010-04-04T09:07:41Z</time>
      </trkpt>
      <trkpt lat="47.35899" lon="0.05128">
        <ele>58.3</ele>
        <time>2010-04-04T09:07:42Z</time>
      </trkpt>
      <trkpt lat="47.35915" lon="0.05118">
        <ele>57.82</ele>
        <time>2010-04-04T09:07:45Z</time>
      </trkpt>
      <trkpt lat="47.3594" lon="0.05101">
        <ele>57.34</ele>
        <time>2010-04-04T09:07:50Z</time>
      </trkpt>
      <trkpt lat="47.35967" lon="0.0508">
        <ele>56.86</ele>
        <time>2010-04-04T09:07:55Z</time>
      </trkpt>
      <trkpt lat="47.35972" lon="0.05075">
        <ele>56.86</ele>
        <time>2010-04-04T09:07:56Z</time>
      </trkpt>
      <trkpt lat="47.35977" lon="0.05069">
        <ele>56.37</ele>
        <time>2010-04-04T09:07:57Z</time>
      </trkpt>
      <trkpt lat="47.35981" lon="0.05064">
        <ele>56.86</ele>
        <time>2010-04-04T09:07:58Z</time>
      </trkpt>
      <trkpt lat="47.35986" lon="0.05058">
        <ele>56.37</ele>
        <time>2010-04-04T09:07:59Z</time>
      </trkpt>
      <trkpt lat="47.36019" lon="0.05018">
        <ele>57.34</ele>
        <time>2010-04-04T09:08:07Z</time>
      </trkpt>
      <trkpt lat="47.36048" lon="0.04998">
        <ele>57.82</ele>
        <time>2010-04-04T09:08:14Z</time>
      </trkpt>
      <trkpt lat="47.36052" lon="0.04996">
        <ele>58.3</ele>
        <time>2010-04-04T09:08:15Z</time>
      </trkpt>
      <trkpt lat="47.36089" lon="0.04976">
        <ele>59.26</ele>
        <time>2010-04-04T09:08:23Z</time>
      </trkpt>
      <trkpt lat="47.36128" lon="0.04955">
        <ele>60.7</ele>
        <time>2010-04-04T09:08:32Z</time>
      </trkpt>
      <trkpt lat="47.3615" lon="0.04943">
        <ele>62.14</ele>
        <time>2010-04-04T09:08:38Z</time>
      </trkpt>
      <trkpt lat="47.36166" lon="0.04939">
        <ele>63.1</ele>
        <time>2010-04-04T09:08:42Z</time>
      </trkpt>
      <trkpt lat="47.3617" lon="0.04939">
        <ele>62.14</ele>
        <time>2010-04-04T09:08:43Z</time>
      </trkpt>
      <trkpt lat="47.36174" lon="0.04938">
        <ele>62.62</ele>
        <time>2010-04-04T09:08:44Z</time>
      </trkpt>
      <trkpt lat="47.36204" lon="0.04936">
        <ele>63.1</ele>
        <time>2010-04-04T09:08:51Z</time>
      </trkpt>
      <trkpt lat="47.36209" lon="0.04936">
        <ele>63.1</ele>
        <time>2010-04-04T09:08:52Z</time>
      </trkpt>
      <trkpt lat="47.36214" lon="0.04937">
        <ele>63.1</ele>
        <time>2010-04-04T09:08:53Z</time>
      </trkpt>
      <trkpt lat="47.36218" lon="0.04937">
        <ele>63.1</ele>
        <time>2010-04-04T09:08:54Z</time>
      </trkpt>
      <trkpt lat="47.36222" lon="0.04938">
        <ele>62.62</ele>
        <time>2010-04-04T09:08:55Z</time>
      </trkpt>
      <trkpt lat="47.36226" lon="0.04939">
        <ele>63.1</ele>
        <time>2010-04-04T09:08:56Z</time>
      </trkpt>
      <trkpt lat="47.36252" lon="0.0495">
        <ele>65.03</ele>
        <time>2010-04-04T09:09:03Z</time>
      </trkpt>
      <trkpt lat="47.3627" lon="0.04959">
        <ele>65.99</ele>
        <time>2010-04-04T09:09:08Z</time>
      </trkpt>
      <trkpt lat="47.36296" lon="0.04967">
        <ele>66.95</ele>
        <time>2010-04-04T09:09:16Z</time>
      </trkpt>
      <trkpt lat="47.36314" lon="0.04969">
        <ele>68.39</ele>
        <time>2010-04-04T09:09:22Z</time>
      </trkpt>
      <trkpt lat="47.36332" lon="0.04965">
        <ele>70.79</ele>
        <time>2010-04-04T09:09:29Z</time>
      </trkpt>
      <trkpt lat="47.36349" lon="0.04959">
        <ele>72.24</ele>
        <time>2010-04-04T09:09:36Z</time>
      </trkpt>
      <trkpt lat="47.36364" lon="0.04951">
        <ele>74.16</ele>
        <time>2010-04-04T09:09:43Z</time>
      </trkpt>
      <trkpt lat="47.36366" lon="0.04951">
        <ele>74.64</ele>
        <time>2010-04-04T09:09:44Z</time>
      </trkpt>
      <trkpt lat="47.36368" lon="0.0495">
        <ele>75.6</ele>
        <time>2010-04-04T09:09:45Z</time>
      </trkpt>
      <trkpt lat="47.36369" lon="0.04949">
        <ele>76.08</ele>
        <time>2010-04-04T09:09:46Z</time>
      </trkpt>
      <trkpt lat="47.36371" lon="0.04948">
        <ele>76.08</ele>
        <time>2010-04-04T09:09:47Z</time>
      </trkpt>
      <trkpt lat="47.36385" lon="0.0494">
        <ele>77.04</ele>
        <time>2010-04-04T09:09:54Z</time>
      </trkpt>
      <trkpt lat="47.36401" lon="0.04931">
        <ele>78</ele>
        <time>2010-04-04T09:10:02Z</time>
      </trkpt>
      <trkpt lat="47.36416" lon="0.04922">
        <ele>79.93</ele>
        <time>2010-04-04T09:10:09Z</time>
      </trkpt>
      <trkpt lat="47.36434" lon="0.04911">
        <ele>81.37</ele>
        <time>2010-04-04T09:10:17Z</time>
      </trkpt>
      <trkpt lat="47.36451" lon="0.04902">
        <ele>83.29</ele>
        <time>2010-04-04T09:10:24Z</time>
      </trkpt>
      <trkpt lat="47.36464" lon="0.04895">
        <ele>83.77</ele>
        <time>2010-04-04T09:10:30Z</time>
      </trkpt>
      <trkpt lat="47.36483" lon="0.04887">
        <ele>85.21</ele>
        <time>2010-04-04T09:10:37Z</time>
      </trkpt>
      <trkpt lat="47.36498" lon="0.04879">
        <ele>86.18</ele>
        <time>2010-04-04T09:10:43Z</time>
      </trkpt>
      <trkpt lat="47.36516" lon="0.0487">
        <ele>87.62</ele>
        <time>2010-04-04T09:10:50Z</time>
      </trkpt>
      <trkpt lat="47.36533" lon="0.04866">
        <ele>88.58</ele>
        <time>2010-04-04T09:10:56Z</time>
      </trkpt>
      <trkpt lat="47.36546" lon="0.04859">
        <ele>89.06</ele>
        <time>2010-04-04T09:11:02Z</time>
      </trkpt>
      <trkpt lat="47.36561" lon="0.04853">
        <ele>89.54</ele>
        <time>2010-04-04T09:11:08Z</time>
      </trkpt>
      <trkpt lat="47.36575" lon="0.04849">
        <ele>90.02</ele>
        <time>2010-04-04T09:11:13Z</time>
      </trkpt>
      <trkpt lat="47.36594" lon="0.04843">
        <ele>90.5</ele>
        <time>2010-04-04T09:11:20Z</time>
      </trkpt>
      <trkpt lat="47.36609" lon="0.04838">
        <ele>90.02</ele>
        <time>2010-04-04T09:11:26Z</time>
      </trkpt>
      <trkpt lat="47.36621" lon="0.04834">
        <ele>90.02</ele>
        <time>2010-04-04T09:11:32Z</time>
      </trkpt>
      <trkpt lat="47.36633" lon="0.04829">
        <ele>89.06</ele>
        <time>2010-04-04T09:11:36Z</time>
      </trkpt>
      <trkpt lat="47.3665" lon="0.04825">
        <ele>88.58</ele>
        <time>2010-04-04T09:11:41Z</time>
      </trkpt>
      <trkpt lat="47.36653" lon="0.04824">
        <ele>89.06</ele>
        <time>2010-04-04T09:11:42Z</time>
      </trkpt>
      <trkpt lat="47.36657" lon="0.04823">
        <ele>89.54</ele>
        <time>2010-04-04T09:11:43Z</time>
      </trkpt>
      <trkpt lat="47.36689" lon="0.0482">
        <ele>88.58</ele>
        <time>2010-04-04T09:11:50Z</time>
      </trkpt>
      <trkpt lat="47.36734" lon="0.04813">
        <ele>87.62</ele>
        <time>2010-04-04T09:12:01Z</time>
      </trkpt>
      <trkpt lat="47.36761" lon="0.04809">
        <ele>87.14</ele>
        <time>2010-04-04T09:12:08Z</time>
      </trkpt>
      <trkpt lat="47.3679" lon="0.04805">
        <ele>87.14</ele>
        <time>2010-04-04T09:12:15Z</time>
      </trkpt>
      <trkpt lat="47.36836" lon="0.04801">
        <ele>87.62</ele>
        <time>2010-04-04T09:12:24Z</time>
      </trkpt>
      <trkpt lat="47.36878" lon="0.04802">
        <ele>87.14</ele>
        <time>2010-04-04T09:12:32Z</time>
      </trkpt>
      <trkpt lat="47.36894" lon="0.04804">
        <ele>87.14</ele>
        <time>2010-04-04T09:12:35Z</time>
      </trkpt>
      <trkpt lat="47.369" lon="0.04804">
        <ele>86.18</ele>
        <time>2010-04-04T09:12:36Z</time>
      </trkpt>
      <trkpt lat="47.36939" lon="0.04812">
        <ele>86.66</ele>
        <time>2010-04-04T09:12:43Z</time>
      </trkpt>
      <trkpt lat="47.36971" lon="0.04824">
        <ele>86.18</ele>
        <time>2010-04-04T09:12:49Z</time>
      </trkpt>
      <trkpt lat="47.37001" lon="0.04836">
        <ele>86.66</ele>
        <time>2010-04-04T09:12:55Z</time>
      </trkpt>
      <trkpt lat="47.37019" lon="0.04843">
        <ele>86.66</ele>
        <time>2010-04-04T09:12:59Z</time>
      </trkpt>
      <trkpt lat="47.37053" lon="0.0485">
        <ele>87.14</ele>
        <time>2010-04-04T09:13:05Z</time>
      </trkpt>
      <trkpt lat="47.37058" lon="0.04852">
        <ele>86.66</ele>
        <time>2010-04-04T09:13:06Z</time>
      </trkpt>
      <trkpt lat="47.37062" lon="0.04854">
        <ele>86.18</ele>
        <time>2010-04-04T09:13:07Z</time>
      </trkpt>
      <trkpt lat="47.37071" lon="0.04857">
        <ele>86.18</ele>
        <time>2010-04-04T09:13:09Z</time>
      </trkpt>
      <trkpt lat="47.37085" lon="0.04862">
        <ele>87.62</ele>
        <time>2010-04-04T09:13:12Z</time>
      </trkpt>
      <trkpt lat="47.37105" lon="0.0487">
        <ele>87.62</ele>
        <time>2010-04-04T09:13:16Z</time>
      </trkpt>
      <trkpt lat="47.3711" lon="0.04871">
        <ele>87.62</ele>
        <time>2010-04-04T09:13:17Z</time>
      </trkpt>
      <trkpt lat="47.37115" lon="0.04872">
        <ele>87.14</ele>
        <time>2010-04-04T09:13:18Z</time>
      </trkpt>
      <trkpt lat="47.3712" lon="0.04873">
        <ele>87.14</ele>
        <time>2010-04-04T09:13:19Z</time>
      </trkpt>
      <trkpt lat="47.37124" lon="0.04874">
        <ele>88.1</ele>
        <time>2010-04-04T09:13:20Z</time>
      </trkpt>
      <trkpt lat="47.37128" lon="0.04876">
        <ele>87.62</ele>
        <time>2010-04-04T09:13:21Z</time>
      </trkpt>
      <trkpt lat="47.37148" lon="0.04881">
        <ele>89.54</ele>
        <time>2010-04-04T09:13:26Z</time>
      </trkpt>
      <trkpt lat="47.37161" lon="0.04886">
        <ele>89.06</ele>
        <time>2010-04-04T09:13:29Z</time>
      </trkpt>
      <trkpt lat="47.3717" lon="0.04888">
        <ele>89.06</ele>
        <time>2010-04-04T09:13:31Z</time>
      </trkpt>
      <trkpt lat="47.37175" lon="0.04889">
        <ele>89.06</ele>
        <time>2010-04-04T09:13:32Z</time>
      </trkpt>
      <trkpt lat="47.37203" lon="0.04899">
        <ele>89.54</ele>
        <time>2010-04-04T09:13:37Z</time>
      </trkpt>
      <trkpt lat="47.37209" lon="0.04901">
        <ele>89.06</ele>
        <time>2010-04-04T09:13:38Z</time>
      </trkpt>
      <trkpt lat="47.37249" lon="0.04911">
        <ele>90.02</ele>
        <time>2010-04-04T09:13:45Z</time>
      </trkpt>
      <trkpt lat="47.37262" lon="0.04917">
        <ele>90.02</ele>
        <time>2010-04-04T09:13:48Z</time>
      </trkpt>
      <trkpt lat="47.37267" lon="0.04918">
        <ele>90.02</ele>
        <time>2010-04-04T09:13:49Z</time>
      </trkpt>
      <trkpt lat="47.37278" lon="0.0492">
        <ele>90.5</ele>
        <time>2010-04-04T09:13:51Z</time>
      </trkpt>
      <trkpt lat="47.37287" lon="0.04923">
        <ele>90.5</ele>
        <time>2010-04-04T09:13:53Z</time>
      </trkpt>
      <trkpt lat="47.37293" lon="0.04924">
        <ele>90.5</ele>
        <time>2010-04-04T09:13:54Z</time>
      </trkpt>
      <trkpt lat="47.37299" lon="0.04926">
        <ele>90.98</ele>
        <time>2010-04-04T09:13:55Z</time>
      </trkpt>
      <trkpt lat="47.37305" lon="0.04928">
        <ele>90.02</ele>
        <time>2010-04-04T09:13:56Z</time>
      </trkpt>
      <trkpt lat="47.37312" lon="0.0493">
        <ele>90.5</ele>
        <time>2010-04-04T09:13:57Z</time>
      </trkpt>
      <trkpt lat="47.37355" lon="0.04942">
        <ele>89.06</ele>
        <time>2010-04-04T09:14:03Z</time>
      </trkpt>
      <trkpt lat="47.37368" lon="0.04945">
        <ele>89.54</ele>
        <time>2010-04-04T09:14:05Z</time>
      </trkpt>
      <trkpt lat="47.37383" lon="0.04948">
        <ele>89.06</ele>
        <time>2010-04-04T09:14:07Z</time>
      </trkpt>
      <trkpt lat="47.37389" lon="0.04951">
        <ele>88.58</ele>
        <time>2010-04-04T09:14:08Z</time>
      </trkpt>
      <trkpt lat="47.37433" lon="0.04965">
        <ele>86.18</ele>
        <time>2010-04-04T09:14:14Z</time>
      </trkpt>
      <trkpt lat="47.37457" lon="0.04971">
        <ele>83.77</ele>
        <time>2010-04-04T09:14:17Z</time>
      </trkpt>
      <trkpt lat="47.37466" lon="0.04975">
        <ele>83.29</ele>
        <time>2010-04-04T09:14:18Z</time>
      </trkpt>
      <trkpt lat="47.37475" lon="0.04979">
        <ele>82.33</ele>
        <time>2010-04-04T09:14:19Z</time>
      </trkpt>
      <trkpt lat="47.37485" lon="0.04982">
        <ele>82.33</ele>
        <time>2010-04-04T09:14:20Z</time>
      </trkpt>
      <trkpt lat="47.37535" lon="0.04997">
        <ele>79.45</ele>
        <time>2010-04-04T09:14:25Z</time>
      </trkpt>
      <trkpt lat="47.37572" lon="0.05008">
        <ele>76.56</ele>
        <time>2010-04-04T09:14:29Z</time>
      </trkpt>
      <trkpt lat="47.37591" lon="0.05013">
        <ele>75.6</ele>
        <time>2010-04-04T09:14:31Z</time>
      </trkpt>
      <trkpt lat="47.37633" lon="0.05025">
        <ele>71.76</ele>
        <time>2010-04-04T09:14:35Z</time>
      </trkpt>
      <trkpt lat="47.37643" lon="0.05026">
        <ele>71.27</ele>
        <time>2010-04-04T09:14:36Z</time>
      </trkpt>
      <trkpt lat="47.37684" lon="0.05038">
        <ele>68.39</ele>
        <time>2010-04-04T09:14:40Z</time>
      </trkpt>
      <trkpt lat="47.37712" lon="0.05048">
        <ele>66.95</ele>
        <time>2010-04-04T09:14:43Z</time>
      </trkpt>
      <trkpt lat="47.37737" lon="0.05056">
        <ele>65.51</ele>
        <time>2010-04-04T09:14:46Z</time>
      </trkpt>
      <trkpt lat="47.37802" lon="0.0508">
        <ele>64.07</ele>
        <time>2010-04-04T09:14:53Z</time>
      </trkpt>
      <trkpt lat="47.37867" lon="0.05103">
        <ele>64.55</ele>
        <time>2010-04-04T09:15:00Z</time>
      </trkpt>
      <trkpt lat="47.37876" lon="0.05107">
        <ele>64.55</ele>
        <time>2010-04-04T09:15:01Z</time>
      </trkpt>
      <trkpt lat="47.37938" lon="0.05127">
        <ele>64.07</ele>
        <time>2010-04-04T09:15:08Z</time>
      </trkpt>
      <trkpt lat="47.37955" lon="0.05133">
        <ele>64.07</ele>
        <time>2010-04-04T09:15:10Z</time>
      </trkpt>
      <trkpt lat="47.38008" lon="0.05155">
        <ele>63.58</ele>
        <time>2010-04-04T09:15:17Z</time>
      </trkpt>
      <trkpt lat="47.38015" lon="0.05159">
        <ele>63.58</ele>
        <time>2010-04-04T09:15:18Z</time>
      </trkpt>
      <trkpt lat="47.38064" lon="0.05178">
        <ele>61.66</ele>
        <time>2010-04-04T09:15:25Z</time>
      </trkpt>
      <trkpt lat="47.3812" lon="0.05195">
        <ele>60.22</ele>
        <time>2010-04-04T09:15:33Z</time>
      </trkpt>
      <trkpt lat="47.38158" lon="0.05211">
        <ele>59.74</ele>
        <time>2010-04-04T09:15:39Z</time>
      </trkpt>
      <trkpt lat="47.38164" lon="0.05214">
        <ele>58.3</ele>
        <time>2010-04-04T09:15:40Z</time>
      </trkpt>
      <trkpt lat="47.3817" lon="0.05216">
        <ele>58.3</ele>
        <time>2010-04-04T09:15:41Z</time>
      </trkpt>
      <trkpt lat="47.38217" lon="0.05233">
        <ele>55.89</ele>
        <time>2010-04-04T09:15:48Z</time>
      </trkpt>
      <trkpt lat="47.38238" lon="0.0524">
        <ele>53.97</ele>
        <time>2010-04-04T09:15:51Z</time>
      </trkpt>
      <trkpt lat="47.38291" lon="0.05257">
        <ele>53.49</ele>
        <time>2010-04-04T09:15:59Z</time>
      </trkpt>
      <trkpt lat="47.38342" lon="0.05274">
        <ele>52.53</ele>
        <time>2010-04-04T09:16:07Z</time>
      </trkpt>
      <trkpt lat="47.38348" lon="0.05277">
        <ele>52.53</ele>
        <time>2010-04-04T09:16:08Z</time>
      </trkpt>
      <trkpt lat="47.38396" lon="0.05294">
        <ele>52.53</ele>
        <time>2010-04-04T09:16:16Z</time>
      </trkpt>
      <trkpt lat="47.38449" lon="0.05312">
        <ele>51.09</ele>
        <time>2010-04-04T09:16:25Z</time>
      </trkpt>
      <trkpt lat="47.38488" lon="0.05325">
        <ele>52.05</ele>
        <time>2010-04-04T09:16:32Z</time>
      </trkpt>
      <trkpt lat="47.38537" lon="0.05342">
        <ele>51.09</ele>
        <time>2010-04-04T09:16:41Z</time>
      </trkpt>
      <trkpt lat="47.38558" lon="0.0535">
        <ele>51.09</ele>
        <time>2010-04-04T09:16:45Z</time>
      </trkpt>
      <trkpt lat="47.38563" lon="0.05351">
        <ele>51.09</ele>
        <time>2010-04-04T09:16:46Z</time>
      </trkpt>
      <trkpt lat="47.38568" lon="0.05353">
        <ele>51.09</ele>
        <time>2010-04-04T09:16:47Z</time>
      </trkpt>
      <trkpt lat="47.38573" lon="0.05354">
        <ele>50.13</ele>
        <time>2010-04-04T09:16:48Z</time>
      </trkpt>
      <trkpt lat="47.38577" lon="0.05356">
        <ele>50.61</ele>
        <time>2010-04-04T09:16:49Z</time>
      </trkpt>
      <trkpt lat="47.38606" lon="0.05366">
        <ele>50.13</ele>
        <time>2010-04-04T09:16:57Z</time>
      </trkpt>
      <trkpt lat="47.38632" lon="0.05373">
        <ele>50.13</ele>
        <time>2010-04-04T09:17:05Z</time>
      </trkpt>
      <trkpt lat="47.38652" lon="0.05376">
        <ele>50.61</ele>
        <time>2010-04-04T09:17:13Z</time>
      </trkpt>
      <trkpt lat="47.38676" lon="0.0538">
        <ele>51.09</ele>
        <time>2010-04-04T09:17:22Z</time>
      </trkpt>
      <trkpt lat="47.38697" lon="0.05382">
        <ele>50.61</ele>
        <time>2010-04-04T09:17:29Z</time>
      </trkpt>
      <trkpt lat="47.38722" lon="0.05385">
        <ele>50.13</ele>
        <time>2010-04-04T09:17:36Z</time>
      </trkpt>
      <trkpt lat="47.38752" lon="0.05391">
        <ele>50.13</ele>
        <time>2010-04-04T09:17:44Z</time>
      </trkpt>
      <trkpt lat="47.38785" lon="0.05397">
        <ele>50.61</ele>
        <time>2010-04-04T09:17:52Z</time>
      </trkpt>
      <trkpt lat="47.38801" lon="0.05401">
        <ele>51.57</ele>
        <time>2010-04-04T09:17:56Z</time>
      </trkpt>
      <trkpt lat="47.38843" lon="0.05413">
        <ele>51.09</ele>
        <time>2010-04-04T09:18:06Z</time>
      </trkpt>
      <trkpt lat="47.38847" lon="0.05414">
        <ele>51.09</ele>
        <time>2010-04-04T09:18:07Z</time>
      </trkpt>
      <trkpt lat="47.38887" lon="0.05424">
        <ele>50.61</ele>
        <time>2010-04-04T09:18:17Z</time>
      </trkpt>
      <trkpt lat="47.38907" lon="0.05429">
        <ele>50.61</ele>
        <time>2010-04-04T09:18:23Z</time>
      </trkpt>
      <trkpt lat="47.38924" lon="0.05438">
        <ele>49.65</ele>
        <time>2010-04-04T09:18:30Z</time>
      </trkpt>
      <trkpt lat="47.38942" lon="0.05446">
        <ele>50.13</ele>
        <time>2010-04-04T09:18:38Z</time>
      </trkpt>
      <trkpt lat="47.38958" lon="0.05456">
        <ele>49.65</ele>
        <time>2010-04-04T09:18:46Z</time>
      </trkpt>
      <trkpt lat="47.38977" lon="0.05463">
        <ele>49.65</ele>
        <time>2010-04-04T09:18:53Z</time>
      </trkpt>
      <trkpt lat="47.38997" lon="0.05471">
        <ele>49.16</ele>
        <time>2010-04-04T09:19:00Z</time>
      </trkpt>
      <trkpt lat="47.39009" lon="0.05474">
        <ele>49.65</ele>
        <time>2010-04-04T09:19:06Z</time>
      </trkpt>
      <trkpt lat="47.39033" lon="0.05481">
        <ele>49.65</ele>
        <time>2010-04-04T09:19:13Z</time>
      </trkpt>
      <trkpt lat="47.39058" lon="0.05487">
        <ele>48.68</ele>
        <time>2010-04-04T09:19:20Z</time>
      </trkpt>
      <trkpt lat="47.39086" lon="0.05489">
        <ele>48.2</ele>
        <time>2010-04-04T09:19:28Z</time>
      </trkpt>
      <trkpt lat="47.39104" lon="0.0548">
        <ele>48.2</ele>
        <time>2010-04-04T09:19:34Z</time>
      </trkpt>
      <trkpt lat="47.39123" lon="0.05459">
        <ele>46.76</ele>
        <time>2010-04-04T09:19:41Z</time>
      </trkpt>
      <trkpt lat="47.39151" lon="0.05443">
        <ele>45.8</ele>
        <time>2010-04-04T09:19:49Z</time>
      </trkpt>
      <trkpt lat="47.39181" lon="0.05443">
        <ele>45.8</ele>
        <time>2010-04-04T09:19:57Z</time>
      </trkpt>
      <trkpt lat="47.39195" lon="0.05446">
        <ele>44.84</ele>
        <time>2010-04-04T09:20:03Z</time>
      </trkpt>
      <trkpt lat="47.39195" lon="0.05446">
        <ele>44.36</ele>
        <time>2010-04-04T09:20:12Z</time>
      </trkpt>
      <trkpt lat="47.39196" lon="0.05445">
        <ele>44.84</ele>
        <time>2010-04-04T09:20:15Z</time>
      </trkpt>
      <trkpt lat="47.39197" lon="0.05443">
        <ele>44.84</ele>
        <time>2010-04-04T09:20:16Z</time>
      </trkpt>
      <trkpt lat="47.39197" lon="0.05441">
        <ele>44.36</ele>
        <time>2010-04-04T09:20:17Z</time>
      </trkpt>
      <trkpt lat="47.39198" lon="0.05439">
        <ele>44.36</ele>
        <time>2010-04-04T09:20:18Z</time>
      </trkpt>
      <trkpt lat="47.392" lon="0.05436">
        <ele>44.36</ele>
        <time>2010-04-04T09:20:19Z</time>
      </trkpt>
      <trkpt lat="47.39201" lon="0.05433">
        <ele>44.36</ele>
        <time>2010-04-04T09:20:20Z</time>
      </trkpt>
      <trkpt lat="47.39207" lon="0.05405">
        <ele>43.88</ele>
        <time>2010-04-04T09:20:27Z</time>
      </trkpt>
      <trkpt lat="47.39212" lon="0.05384">
        <ele>45.32</ele>
        <time>2010-04-04T09:20:34Z</time>
      </trkpt>
      <trkpt lat="47.39217" lon="0.0538">
        <ele>44.36</ele>
        <time>2010-04-04T09:20:37Z</time>
      </trkpt>
      <trkpt lat="47.39235" lon="0.05381">
        <ele>44.36</ele>
        <time>2010-04-04T09:20:43Z</time>
      </trkpt>
      <trkpt lat="47.39263" lon="0.05382">
        <ele>43.88</ele>
        <time>2010-04-04T09:20:53Z</time>
      </trkpt>
      <trkpt lat="47.39282" lon="0.05383">
        <ele>43.88</ele>
        <time>2010-04-04T09:21:00Z</time>
      </trkpt>
      <trkpt lat="47.39302" lon="0.05384">
        <ele>44.36</ele>
        <time>2010-04-04T09:21:06Z</time>
      </trkpt>
      <trkpt lat="47.39324" lon="0.05377">
        <ele>44.84</ele>
        <time>2010-04-04T09:21:12Z</time>
      </trkpt>
      <trkpt lat="47.39342" lon="0.0537">
        <ele>45.32</ele>
        <time>2010-04-04T09:21:17Z</time>
      </trkpt>
      <trkpt lat="47.39346" lon="0.0537">
        <ele>45.32</ele>
        <time>2010-04-04T09:21:19Z</time>
      </trkpt>
      <trkpt lat="47.39348" lon="0.05371">
        <ele>45.32</ele>
        <time>2010-04-04T09:21:25Z</time>
      </trkpt>
      <trkpt lat="47.39348" lon="0.05374">
        <ele>45.8</ele>
        <time>2010-04-04T09:21:32Z</time>
      </trkpt>
      <trkpt lat="47.39347" lon="0.05376">
        <ele>45.32</ele>
        <time>2010-04-04T09:21:33Z</time>
      </trkpt>
      <trkpt lat="47.39341" lon="0.05401">
        <ele>45.8</ele>
        <time>2010-04-04T09:21:39Z</time>
      </trkpt>
      <trkpt lat="47.39332" lon="0.05445">
        <ele>45.32</ele>
        <time>2010-04-04T09:21:47Z</time>
      </trkpt>
      <trkpt lat="47.39334" lon="0.05449">
        <ele>45.8</ele>
        <time>2010-04-04T09:21:48Z</time>
      </trkpt>
      <trkpt lat="47.39336" lon="0.05452">
        <ele>46.28</ele>
        <time>2010-04-04T09:21:49Z</time>
      </trkpt>
      <trkpt lat="47.39339" lon="0.05455">
        <ele>45.8</ele>
        <time>2010-04-04T09:21:50Z</time>
      </trkpt>
      <trkpt lat="47.39364" lon="0.05467">
        <ele>45.32</ele>
        <time>2010-04-04T09:21:58Z</time>
      </trkpt>
      <trkpt lat="47.39384" lon="0.05484">
        <ele>44.84</ele>
        <time>2010-04-04T09:22:06Z</time>
      </trkpt>
      <trkpt lat="47.39401" lon="0.05501">
        <ele>44.36</ele>
        <time>2010-04-04T09:22:13Z</time>
      </trkpt>
      <trkpt lat="47.39423" lon="0.05528">
        <ele>45.32</ele>
        <time>2010-04-04T09:22:22Z</time>
      </trkpt>
      <trkpt lat="47.39432" lon="0.05561">
        <ele>43.88</ele>
        <time>2010-04-04T09:22:30Z</time>
      </trkpt>
      <trkpt lat="47.39432" lon="0.05564">
        <ele>44.36</ele>
        <time>2010-04-04T09:22:31Z</time>
      </trkpt>
      <trkpt lat="47.39433" lon="0.05566">
        <ele>44.84</ele>
        <time>2010-04-04T09:22:32Z</time>
      </trkpt>
      <trkpt lat="47.39443" lon="0.05582">
        <ele>44.36</ele>
        <time>2010-04-04T09:22:40Z</time>
      </trkpt>
      <trkpt lat="47.3945" lon="0.05586">
        <ele>44.84</ele>
        <time>2010-04-04T09:22:45Z</time>
      </trkpt>
      <trkpt lat="47.39451" lon="0.05586">
        <ele>44.36</ele>
        <time>2010-04-04T09:22:46Z</time>
      </trkpt>
      <trkpt lat="47.39457" lon="0.05585">
        <ele>43.88</ele>
        <time>2010-04-04T09:22:51Z</time>
      </trkpt>
      <trkpt lat="47.39457" lon="0.05584">
        <ele>44.36</ele>
        <time>2010-04-04T09:22:58Z</time>
      </trkpt>
      <trkpt lat="47.39459" lon="0.05582">
        <ele>44.84</ele>
        <time>2010-04-04T09:23:05Z</time>
      </trkpt>
      <trkpt lat="47.39459" lon="0.05582">
        <ele>43.4</ele>
        <time>2010-04-04T09:23:51Z</time>
      </trkpt>
      <trkpt lat="47.39458" lon="0.05582">
        <ele>45.8</ele>
        <time>2010-04-04T09:23:53Z</time>
      </trkpt>
      <trkpt lat="47.39458" lon="0.05582">
        <ele>45.8</ele>
        <time>2010-04-04T09:23:54Z</time>
      </trkpt>
      <trkpt lat="47.39457" lon="0.0558">
        <ele>45.32</ele>
        <time>2010-04-04T09:24:03Z</time>
      </trkpt>
      <trkpt lat="47.39457" lon="0.05581">
        <ele>45.32</ele>
        <time>2010-04-04T09:24:29Z</time>
      </trkpt>
      <trkpt lat="47.39462" lon="0.05583">
        <ele>45.8</ele>
        <time>2010-04-04T09:26:32Z</time>
      </trkpt>
      <trkpt lat="47.39462" lon="0.05583">
        <ele>45.8</ele>
        <time>2010-04-04T09:26:41Z</time>
      </trkpt>
      <trkpt lat="47.3946" lon="0.05585">
        <ele>45.8</ele>
        <time>2010-04-04T09:27:09Z</time>
      </trkpt>
      <trkpt lat="47.39453" lon="0.05586">
        <ele>49.16</ele>
        <time>2010-04-04T09:28:48Z</time>
      </trkpt>
      <trkpt lat="47.39456" lon="0.05587">
        <ele>48.68</ele>
        <time>2010-04-04T09:29:39Z</time>
      </trkpt>
      <trkpt lat="47.39456" lon="0.05588">
        <ele>49.16</ele>
        <time>2010-04-04T09:30:19Z</time>
      </trkpt>
      <trkpt lat="47.39455" lon="0.05594">
        <ele>49.65</ele>
        <time>2010-04-04T09:32:39Z</time>
      </trkpt>
      <trkpt lat="47.39456" lon="0.05593">
        <ele>51.57</ele>
        <time>2010-04-04T09:35:30Z</time>
      </trkpt>
      <trkpt lat="47.39455" lon="0.05592">
        <ele>52.05</ele>
        <time>2010-04-04T09:36:12Z</time>
      </trkpt>
      <trkpt lat="47.39453" lon="0.05594">
        <ele>53.01</ele>
        <time>2010-04-04T09:36:17Z</time>
      </trkpt>
      <trkpt lat="47.39452" lon="0.05593">
        <ele>53.01</ele>
        <time>2010-04-04T09:36:18Z</time>
      </trkpt>
      <trkpt lat="47.39448" lon="0.05593">
        <ele>51.57</ele>
        <time>2010-04-04T09:36:21Z</time>
      </trkpt>
      <trkpt lat="47.39449" lon="0.05593">
        <ele>52.53</ele>
        <time>2010-04-04T09:36:22Z</time>
      </trkpt>
      <trkpt lat="47.39452" lon="0.05594">
        <ele>53.01</ele>
        <time>2010-04-04T09:36:28Z</time>
      </trkpt>
      <trkpt lat="47.39454" lon="0.05592">
        <ele>51.09</ele>
        <time>2010-04-04T09:36:36Z</time>
      </trkpt>
      <trkpt lat="47.39455" lon="0.0559">
        <ele>51.57</ele>
        <time>2010-04-04T09:36:46Z</time>
      </trkpt>
      <trkpt lat="47.39455" lon="0.0559">
        <ele>52.53</ele>
        <time>2010-04-04T09:36:57Z</time>
      </trkpt>
      <trkpt lat="47.39455" lon="0.0559">
        <ele>52.53</ele>
        <time>2010-04-04T09:37:11Z</time>
      </trkpt>
      <trkpt lat="47.39455" lon="0.0559">
        <ele>52.05</ele>
        <time>2010-04-04T09:37:24Z</time>
      </trkpt>
      <trkpt lat="47.39455" lon="0.0559">
        <ele>52.05</ele>
        <time>2010-04-04T09:37:36Z</time>
      </trkpt>
      <trkpt lat="47.39455" lon="0.0559">
        <ele>53.01</ele>
        <time>2010-04-04T09:37:50Z</time>
      </trkpt>
      <trkpt lat="47.39456" lon="0.05589">
        <ele>51.57</ele>
        <time>2010-04-04T09:38:03Z</time>
      </trkpt>
      <trkpt lat="47.39455" lon="0.05589">
        <ele>53.49</ele>
        <time>2010-04-04T09:38:21Z</time>
      </trkpt>
      <trkpt lat="47.39455" lon="0.05589">
        <ele>51.57</ele>
        <time>2010-04-04T09:38:25Z</time>
      </trkpt>
      <trkpt lat="47.39455" lon="0.0559">
        <ele>53.01</ele>
        <time>2010-04-04T09:38:35Z</time>
      </trkpt>
      <trkpt lat="47.39453" lon="0.0559">
        <ele>52.53</ele>
        <time>2010-04-04T09:38:43Z</time>
      </trkpt>
      <trkpt lat="47.39453" lon="0.0559">
        <ele>52.05</ele>
        <time>2010-04-04T09:38:57Z</time>
      </trkpt>
      <trkpt lat="47.39451" lon="0.05591">
        <ele>53.49</ele>
        <time>2010-04-04T09:39:30Z</time>
      </trkpt>
      <trkpt lat="47.3945" lon="0.05591">
        <ele>53.01</ele>
        <time>2010-04-04T09:39:31Z</time>
      </trkpt>
      <trkpt lat="47.39448" lon="0.0559">
        <ele>52.53</ele>
        <time>2010-04-04T09:39:33Z</time>
      </trkpt>
      <trkpt lat="47.39447" lon="0.05589">
        <ele>52.53</ele>
        <time>2010-04-04T09:39:34Z</time>
      </trkpt>
      <trkpt lat="47.39446" lon="0.05589">
        <ele>53.01</ele>
        <time>2010-04-04T09:39:35Z</time>
      </trkpt>
      <trkpt lat="47.39435" lon="0.05575">
        <ele>52.53</ele>
        <time>2010-04-04T09:39:42Z</time>
      </trkpt>
      <trkpt lat="47.39431" lon="0.05555">
        <ele>53.49</ele>
        <time>2010-04-04T09:39:47Z</time>
      </trkpt>
      <trkpt lat="47.39423" lon="0.05526">
        <ele>53.97</ele>
        <time>2010-04-04T09:39:53Z</time>
      </trkpt>
      <trkpt lat="47.39409" lon="0.05509">
        <ele>53.49</ele>
        <time>2010-04-04T09:39:59Z</time>
      </trkpt>
      <trkpt lat="47.39388" lon="0.05492">
        <ele>53.49</ele>
        <time>2010-04-04T09:40:07Z</time>
      </trkpt>
      <trkpt lat="47.39368" lon="0.05472">
        <ele>53.49</ele>
        <time>2010-04-04T09:40:14Z</time>
      </trkpt>
      <trkpt lat="47.39338" lon="0.05448">
        <ele>53.97</ele>
        <time>2010-04-04T09:40:23Z</time>
      </trkpt>
      <trkpt lat="47.39334" lon="0.05443">
        <ele>53.97</ele>
        <time>2010-04-04T09:40:27Z</time>
      </trkpt>
      <trkpt lat="47.39334" lon="0.0544">
        <ele>53.49</ele>
        <time>2010-04-04T09:40:33Z</time>
      </trkpt>
      <trkpt lat="47.39334" lon="0.05438">
        <ele>53.97</ele>
        <time>2010-04-04T09:40:34Z</time>
      </trkpt>
      <trkpt lat="47.39334" lon="0.05436">
        <ele>54.45</ele>
        <time>2010-04-04T09:40:35Z</time>
      </trkpt>
      <trkpt lat="47.3934" lon="0.05409">
        <ele>53.97</ele>
        <time>2010-04-04T09:40:41Z</time>
      </trkpt>
      <trkpt lat="47.39353" lon="0.05352">
        <ele>53.97</ele>
        <time>2010-04-04T09:40:51Z</time>
      </trkpt>
      <trkpt lat="47.39353" lon="0.05305">
        <ele>54.93</ele>
        <time>2010-04-04T09:40:59Z</time>
      </trkpt>
      <trkpt lat="47.39354" lon="0.05265">
        <ele>55.41</ele>
        <time>2010-04-04T09:41:07Z</time>
      </trkpt>
      <trkpt lat="47.39352" lon="0.05255">
        <ele>55.41</ele>
        <time>2010-04-04T09:41:09Z</time>
      </trkpt>
      <trkpt lat="47.39349" lon="0.05251">
        <ele>54.93</ele>
        <time>2010-04-04T09:41:10Z</time>
      </trkpt>
      <trkpt lat="47.39346" lon="0.05248">
        <ele>55.41</ele>
        <time>2010-04-04T09:41:11Z</time>
      </trkpt>
      <trkpt lat="47.39331" lon="0.05234">
        <ele>55.89</ele>
        <time>2010-04-04T09:41:15Z</time>
      </trkpt>
      <trkpt lat="47.39328" lon="0.05229">
        <ele>55.89</ele>
        <time>2010-04-04T09:41:16Z</time>
      </trkpt>
      <trkpt lat="47.39326" lon="0.05224">
        <ele>55.41</ele>
        <time>2010-04-04T09:41:17Z</time>
      </trkpt>
      <trkpt lat="47.39325" lon="0.05218">
        <ele>55.41</ele>
        <time>2010-04-04T09:41:18Z</time>
      </trkpt>
      <trkpt lat="47.39324" lon="0.05212">
        <ele>55.41</ele>
        <time>2010-04-04T09:41:19Z</time>
      </trkpt>
      <trkpt lat="47.39323" lon="0.05206">
        <ele>55.41</ele>
        <time>2010-04-04T09:41:20Z</time>
      </trkpt>
      <trkpt lat="47.39324" lon="0.05199">
        <ele>55.41</ele>
        <time>2010-04-04T09:41:21Z</time>
      </trkpt>
      <trkpt lat="47.39324" lon="0.05192">
        <ele>56.37</ele>
        <time>2010-04-04T09:41:22Z</time>
      </trkpt>
      <trkpt lat="47.39327" lon="0.05134">
        <ele>56.86</ele>
        <time>2010-04-04T09:41:30Z</time>
      </trkpt>
      <trkpt lat="47.39329" lon="0.05112">
        <ele>56.86</ele>
        <time>2010-04-04T09:41:33Z</time>
      </trkpt>
      <trkpt lat="47.39333" lon="0.05062">
        <ele>56.86</ele>
        <time>2010-04-04T09:41:40Z</time>
      </trkpt>
      <trkpt lat="47.39346" lon="0.04998">
        <ele>57.82</ele>
        <time>2010-04-04T09:41:49Z</time>
      </trkpt>
      <trkpt lat="47.39363" lon="0.04933">
        <ele>57.34</ele>
        <time>2010-04-04T09:41:58Z</time>
      </trkpt>
      <trkpt lat="47.39364" lon="0.04918">
        <ele>57.34</ele>
        <time>2010-04-04T09:42:00Z</time>
      </trkpt>
      <trkpt lat="47.39365" lon="0.0491">
        <ele>58.3</ele>
        <time>2010-04-04T09:42:01Z</time>
      </trkpt>
      <trkpt lat="47.39364" lon="0.04903">
        <ele>56.86</ele>
        <time>2010-04-04T09:42:02Z</time>
      </trkpt>
      <trkpt lat="47.39363" lon="0.04895">
        <ele>57.34</ele>
        <time>2010-04-04T09:42:03Z</time>
      </trkpt>
      <trkpt lat="47.39361" lon="0.04888">
        <ele>57.34</ele>
        <time>2010-04-04T09:42:04Z</time>
      </trkpt>
      <trkpt lat="47.39359" lon="0.04882">
        <ele>57.82</ele>
        <time>2010-04-04T09:42:05Z</time>
      </trkpt>
      <trkpt lat="47.39339" lon="0.0484">
        <ele>58.3</ele>
        <time>2010-04-04T09:42:12Z</time>
      </trkpt>
      <trkpt lat="47.39321" lon="0.04799">
        <ele>59.26</ele>
        <time>2010-04-04T09:42:19Z</time>
      </trkpt>
      <trkpt lat="47.39319" lon="0.04793">
        <ele>59.26</ele>
        <time>2010-04-04T09:42:20Z</time>
      </trkpt>
      <trkpt lat="47.39292" lon="0.04734">
        <ele>59.26</ele>
        <time>2010-04-04T09:42:30Z</time>
      </trkpt>
      <trkpt lat="47.39287" lon="0.04723">
        <ele>59.26</ele>
        <time>2010-04-04T09:42:32Z</time>
      </trkpt>
      <trkpt lat="47.39262" lon="0.04666">
        <ele>59.74</ele>
        <time>2010-04-04T09:42:42Z</time>
      </trkpt>
      <trkpt lat="47.39239" lon="0.04615">
        <ele>60.7</ele>
        <time>2010-04-04T09:42:51Z</time>
      </trkpt>
      <trkpt lat="47.39216" lon="0.04564">
        <ele>62.62</ele>
        <time>2010-04-04T09:43:00Z</time>
      </trkpt>
      <trkpt lat="47.39197" lon="0.0452">
        <ele>61.66</ele>
        <time>2010-04-04T09:43:08Z</time>
      </trkpt>
      <trkpt lat="47.3918" lon="0.04482">
        <ele>64.07</ele>
        <time>2010-04-04T09:43:15Z</time>
      </trkpt>
      <trkpt lat="47.3916" lon="0.04438">
        <ele>63.1</ele>
        <time>2010-04-04T09:43:24Z</time>
      </trkpt>
      <trkpt lat="47.39139" lon="0.04391">
        <ele>64.07</ele>
        <time>2010-04-04T09:43:34Z</time>
      </trkpt>
      <trkpt lat="47.3912" lon="0.04349">
        <ele>65.99</ele>
        <time>2010-04-04T09:43:44Z</time>
      </trkpt>
      <trkpt lat="47.39104" lon="0.04313">
        <ele>67.43</ele>
        <time>2010-04-04T09:43:53Z</time>
      </trkpt>
      <trkpt lat="47.39088" lon="0.04277">
        <ele>67.91</ele>
        <time>2010-04-04T09:44:02Z</time>
      </trkpt>
      <trkpt lat="47.39069" lon="0.04236">
        <ele>69.83</ele>
        <time>2010-04-04T09:44:12Z</time>
      </trkpt>
      <trkpt lat="47.39057" lon="0.04205">
        <ele>70.79</ele>
        <time>2010-04-04T09:44:20Z</time>
      </trkpt>
      <trkpt lat="47.39048" lon="0.04168">
        <ele>71.76</ele>
        <time>2010-04-04T09:44:29Z</time>
      </trkpt>
      <trkpt lat="47.39043" lon="0.04139">
        <ele>73.68</ele>
        <time>2010-04-04T09:44:36Z</time>
      </trkpt>
      <trkpt lat="47.3904" lon="0.0411">
        <ele>73.68</ele>
        <time>2010-04-04T09:44:43Z</time>
      </trkpt>
      <trkpt lat="47.39034" lon="0.04069">
        <ele>75.6</ele>
        <time>2010-04-04T09:44:52Z</time>
      </trkpt>
      <trkpt lat="47.39028" lon="0.04031">
        <ele>75.6</ele>
        <time>2010-04-04T09:45:00Z</time>
      </trkpt>
      <trkpt lat="47.39024" lon="0.03994">
        <ele>76.56</ele>
        <time>2010-04-04T09:45:08Z</time>
      </trkpt>
      <trkpt lat="47.3902" lon="0.03969">
        <ele>76.56</ele>
        <time>2010-04-04T09:45:13Z</time>
      </trkpt>
      <trkpt lat="47.39016" lon="0.03937">
        <ele>77.52</ele>
        <time>2010-04-04T09:45:20Z</time>
      </trkpt>
      <trkpt lat="47.39012" lon="0.03907">
        <ele>78</ele>
        <time>2010-04-04T09:45:27Z</time>
      </trkpt>
      <trkpt lat="47.39007" lon="0.03874">
        <ele>78.48</ele>
        <time>2010-04-04T09:45:34Z</time>
      </trkpt>
      <trkpt lat="47.39001" lon="0.03841">
        <ele>78</ele>
        <time>2010-04-04T09:45:41Z</time>
      </trkpt>
      <trkpt lat="47.38997" lon="0.03812">
        <ele>78.97</ele>
        <time>2010-04-04T09:45:47Z</time>
      </trkpt>
      <trkpt lat="47.38994" lon="0.03786">
        <ele>79.45</ele>
        <time>2010-04-04T09:45:52Z</time>
      </trkpt>
      <trkpt lat="47.38989" lon="0.03752">
        <ele>79.45</ele>
        <time>2010-04-04T09:45:59Z</time>
      </trkpt>
      <trkpt lat="47.38983" lon="0.03725">
        <ele>79.45</ele>
        <time>2010-04-04T09:46:05Z</time>
      </trkpt>
      <trkpt lat="47.38976" lon="0.03683">
        <ele>81.37</ele>
        <time>2010-04-04T09:46:13Z</time>
      </trkpt>
      <trkpt lat="47.38972" lon="0.03642">
        <ele>82.81</ele>
        <time>2010-04-04T09:46:22Z</time>
      </trkpt>
      <trkpt lat="47.38965" lon="0.03599">
        <ele>83.29</ele>
        <time>2010-04-04T09:46:31Z</time>
      </trkpt>
      <trkpt lat="47.3896" lon="0.03566">
        <ele>84.73</ele>
        <time>2010-04-04T09:46:38Z</time>
      </trkpt>
      <trkpt lat="47.38956" lon="0.03538">
        <ele>85.21</ele>
        <time>2010-04-04T09:46:45Z</time>
      </trkpt>
      <trkpt lat="47.38952" lon="0.03511">
        <ele>85.21</ele>
        <time>2010-04-04T09:46:51Z</time>
      </trkpt>
      <trkpt lat="47.38945" lon="0.03475">
        <ele>84.25</ele>
        <time>2010-04-04T09:47:00Z</time>
      </trkpt>
      <trkpt lat="47.3894" lon="0.03447">
        <ele>85.69</ele>
        <time>2010-04-04T09:47:06Z</time>
      </trkpt>
      <trkpt lat="47.38934" lon="0.03408">
        <ele>84.73</ele>
        <time>2010-04-04T09:47:13Z</time>
      </trkpt>
      <trkpt lat="47.38924" lon="0.03356">
        <ele>84.25</ele>
        <time>2010-04-04T09:47:21Z</time>
      </trkpt>
      <trkpt lat="47.38921" lon="0.03342">
        <ele>82.81</ele>
        <time>2010-04-04T09:47:23Z</time>
      </trkpt>
      <trkpt lat="47.3892" lon="0.03335">
        <ele>84.25</ele>
        <time>2010-04-04T09:47:24Z</time>
      </trkpt>
      <trkpt lat="47.38918" lon="0.03328">
        <ele>83.29</ele>
        <time>2010-04-04T09:47:25Z</time>
      </trkpt>
      <trkpt lat="47.38917" lon="0.03321">
        <ele>83.77</ele>
        <time>2010-04-04T09:47:26Z</time>
      </trkpt>
      <trkpt lat="47.38916" lon="0.03314">
        <ele>84.73</ele>
        <time>2010-04-04T09:47:27Z</time>
      </trkpt>
      <trkpt lat="47.38912" lon="0.03292">
        <ele>83.77</ele>
        <time>2010-04-04T09:47:30Z</time>
      </trkpt>
      <trkpt lat="47.38905" lon="0.03257">
        <ele>82.33</ele>
        <time>2010-04-04T09:47:35Z</time>
      </trkpt>
      <trkpt lat="47.38904" lon="0.0325">
        <ele>83.29</ele>
        <time>2010-04-04T09:47:36Z</time>
      </trkpt>
      <trkpt lat="47.38902" lon="0.03244">
        <ele>83.29</ele>
        <time>2010-04-04T09:47:37Z</time>
      </trkpt>
      <trkpt lat="47.38898" lon="0.03218">
        <ele>83.29</ele>
        <time>2010-04-04T09:47:41Z</time>
      </trkpt>
      <trkpt lat="47.38889" lon="0.03168">
        <ele>81.85</ele>
        <time>2010-04-04T09:47:48Z</time>
      </trkpt>
      <trkpt lat="47.38877" lon="0.03098">
        <ele>80.41</ele>
        <time>2010-04-04T09:47:56Z</time>
      </trkpt>
      <trkpt lat="47.38868" lon="0.03056">
        <ele>79.93</ele>
        <time>2010-04-04T09:48:01Z</time>
      </trkpt>
      <trkpt lat="47.38866" lon="0.03047">
        <ele>79.45</ele>
        <time>2010-04-04T09:48:02Z</time>
      </trkpt>
      <trkpt lat="47.38861" lon="0.03021">
        <ele>78.48</ele>
        <time>2010-04-04T09:48:05Z</time>
      </trkpt>
      <trkpt lat="47.38861" lon="0.03012">
        <ele>78</ele>
        <time>2010-04-04T09:48:06Z</time>
      </trkpt>
      <trkpt lat="47.38859" lon="0.03004">
        <ele>77.04</ele>
        <time>2010-04-04T09:48:07Z</time>
      </trkpt>
      <trkpt lat="47.38855" lon="0.02985">
        <ele>76.56</ele>
        <time>2010-04-04T09:48:09Z</time>
      </trkpt>
      <trkpt lat="47.3884" lon="0.02925">
        <ele>77.04</ele>
        <time>2010-04-04T09:48:15Z</time>
      </trkpt>
      <trkpt lat="47.38838" lon="0.02915">
        <ele>77.04</ele>
        <time>2010-04-04T09:48:16Z</time>
      </trkpt>
      <trkpt lat="47.38836" lon="0.02906">
        <ele>77.04</ele>
        <time>2010-04-04T09:48:17Z</time>
      </trkpt>
      <trkpt lat="47.38834" lon="0.02896">
        <ele>76.56</ele>
        <time>2010-04-04T09:48:18Z</time>
      </trkpt>
      <trkpt lat="47.38832" lon="0.02886">
        <ele>76.56</ele>
        <time>2010-04-04T09:48:19Z</time>
      </trkpt>
      <trkpt lat="47.3883" lon="0.02877">
        <ele>76.56</ele>
        <time>2010-04-04T09:48:20Z</time>
      </trkpt>
      <trkpt lat="47.38819" lon="0.02818">
        <ele>76.56</ele>
        <time>2010-04-04T09:48:26Z</time>
      </trkpt>
      <trkpt lat="47.3881" lon="0.02774">
        <ele>75.12</ele>
        <time>2010-04-04T09:48:31Z</time>
      </trkpt>
      <trkpt lat="47.38809" lon="0.02766">
        <ele>75.6</ele>
        <time>2010-04-04T09:48:32Z</time>
      </trkpt>
      <trkpt lat="47.38807" lon="0.02757">
        <ele>74.64</ele>
        <time>2010-04-04T09:48:33Z</time>
      </trkpt>
      <trkpt lat="47.38806" lon="0.02748">
        <ele>75.12</ele>
        <time>2010-04-04T09:48:34Z</time>
      </trkpt>
      <trkpt lat="47.38804" lon="0.02739">
        <ele>74.64</ele>
        <time>2010-04-04T09:48:35Z</time>
      </trkpt>
      <trkpt lat="47.38792" lon="0.02674">
        <ele>74.16</ele>
        <time>2010-04-04T09:48:42Z</time>
      </trkpt>
      <trkpt lat="47.38782" lon="0.02622">
        <ele>73.68</ele>
        <time>2010-04-04T09:48:48Z</time>
      </trkpt>
      <trkpt lat="47.38768" lon="0.02557">
        <ele>70.31</ele>
        <time>2010-04-04T09:48:55Z</time>
      </trkpt>
      <trkpt lat="47.38766" lon="0.02547">
        <ele>70.31</ele>
        <time>2010-04-04T09:48:56Z</time>
      </trkpt>
      <trkpt lat="47.3876" lon="0.02528">
        <ele>69.35</ele>
        <time>2010-04-04T09:48:58Z</time>
      </trkpt>
      <trkpt lat="47.38756" lon="0.02519">
        <ele>69.83</ele>
        <time>2010-04-04T09:48:59Z</time>
      </trkpt>
      <trkpt lat="47.38752" lon="0.02511">
        <ele>69.83</ele>
        <time>2010-04-04T09:49:00Z</time>
      </trkpt>
      <trkpt lat="47.38746" lon="0.02504">
        <ele>68.87</ele>
        <time>2010-04-04T09:49:01Z</time>
      </trkpt>
      <trkpt lat="47.38741" lon="0.02497">
        <ele>70.31</ele>
        <time>2010-04-04T09:49:02Z</time>
      </trkpt>
      <trkpt lat="47.38736" lon="0.0249">
        <ele>68.87</ele>
        <time>2010-04-04T09:49:03Z</time>
      </trkpt>
      <trkpt lat="47.38714" lon="0.02466">
        <ele>69.83</ele>
        <time>2010-04-04T09:49:07Z</time>
      </trkpt>
      <trkpt lat="47.38664" lon="0.02403">
        <ele>67.91</ele>
        <time>2010-04-04T09:49:17Z</time>
      </trkpt>
      <trkpt lat="47.38628" lon="0.0236">
        <ele>66.47</ele>
        <time>2010-04-04T09:49:24Z</time>
      </trkpt>
      <trkpt lat="47.38579" lon="0.02296">
        <ele>66.47</ele>
        <time>2010-04-04T09:49:33Z</time>
      </trkpt>
      <trkpt lat="47.38534" lon="0.02252">
        <ele>66.95</ele>
        <time>2010-04-04T09:49:41Z</time>
      </trkpt>
      <trkpt lat="47.38486" lon="0.02207">
        <ele>66.95</ele>
        <time>2010-04-04T09:49:50Z</time>
      </trkpt>
      <trkpt lat="47.38436" lon="0.02161">
        <ele>65.99</ele>
        <time>2010-04-04T09:50:00Z</time>
      </trkpt>
      <trkpt lat="47.38393" lon="0.02131">
        <ele>65.03</ele>
        <time>2010-04-04T09:50:08Z</time>
      </trkpt>
      <trkpt lat="47.38347" lon="0.02097">
        <ele>63.1</ele>
        <time>2010-04-04T09:50:16Z</time>
      </trkpt>
      <trkpt lat="47.38342" lon="0.02091">
        <ele>63.1</ele>
        <time>2010-04-04T09:50:17Z</time>
      </trkpt>
      <trkpt lat="47.38338" lon="0.02085">
        <ele>63.1</ele>
        <time>2010-04-04T09:50:18Z</time>
      </trkpt>
      <trkpt lat="47.38333" lon="0.02077">
        <ele>63.58</ele>
        <time>2010-04-04T09:50:19Z</time>
      </trkpt>
      <trkpt lat="47.3833" lon="0.0207">
        <ele>63.58</ele>
        <time>2010-04-04T09:50:20Z</time>
      </trkpt>
      <trkpt lat="47.38326" lon="0.02061">
        <ele>62.62</ele>
        <time>2010-04-04T09:50:21Z</time>
      </trkpt>
      <trkpt lat="47.38296" lon="0.01978">
        <ele>61.66</ele>
        <time>2010-04-04T09:50:31Z</time>
      </trkpt>
      <trkpt lat="47.38264" lon="0.01904">
        <ele>60.7</ele>
        <time>2010-04-04T09:50:40Z</time>
      </trkpt>
      <trkpt lat="47.38223" lon="0.01831">
        <ele>60.22</ele>
        <time>2010-04-04T09:50:50Z</time>
      </trkpt>
      <trkpt lat="47.38192" lon="0.01779">
        <ele>60.7</ele>
        <time>2010-04-04T09:50:58Z</time>
      </trkpt>
      <trkpt lat="47.38149" lon="0.0172">
        <ele>60.7</ele>
        <time>2010-04-04T09:51:08Z</time>
      </trkpt>
      <trkpt lat="47.381" lon="0.01667">
        <ele>59.74</ele>
        <time>2010-04-04T09:51:18Z</time>
      </trkpt>
      <trkpt lat="47.38043" lon="0.01616">
        <ele>57.82</ele>
        <time>2010-04-04T09:51:28Z</time>
      </trkpt>
      <trkpt lat="47.38018" lon="0.01594">
        <ele>56.37</ele>
        <time>2010-04-04T09:51:32Z</time>
      </trkpt>
      <trkpt lat="47.37957" lon="0.01538">
        <ele>55.41</ele>
        <time>2010-04-04T09:51:42Z</time>
      </trkpt>
      <trkpt lat="47.37907" lon="0.01485">
        <ele>53.97</ele>
        <time>2010-04-04T09:51:51Z</time>
      </trkpt>
      <trkpt lat="47.37861" lon="0.01412">
        <ele>53.49</ele>
        <time>2010-04-04T09:52:01Z</time>
      </trkpt>
      <trkpt lat="47.37852" lon="0.01397">
        <ele>52.05</ele>
        <time>2010-04-04T09:52:03Z</time>
      </trkpt>
      <trkpt lat="47.37849" lon="0.01389">
        <ele>52.05</ele>
        <time>2010-04-04T09:52:04Z</time>
      </trkpt>
      <trkpt lat="47.37847" lon="0.01381">
        <ele>52.05</ele>
        <time>2010-04-04T09:52:05Z</time>
      </trkpt>
      <trkpt lat="47.37846" lon="0.01371">
        <ele>52.53</ele>
        <time>2010-04-04T09:52:06Z</time>
      </trkpt>
      <trkpt lat="47.37846" lon="0.01362">
        <ele>53.01</ele>
        <time>2010-04-04T09:52:07Z</time>
      </trkpt>
      <trkpt lat="47.37847" lon="0.01354">
        <ele>52.05</ele>
        <time>2010-04-04T09:52:08Z</time>
      </trkpt>
      <trkpt lat="47.37849" lon="0.01346">
        <ele>52.53</ele>
        <time>2010-04-04T09:52:09Z</time>
      </trkpt>
      <trkpt lat="47.37851" lon="0.01339">
        <ele>51.09</ele>
        <time>2010-04-04T09:52:10Z</time>
      </trkpt>
      <trkpt lat="47.37858" lon="0.01315">
        <ele>51.57</ele>
        <time>2010-04-04T09:52:14Z</time>
      </trkpt>
      <trkpt lat="47.37859" lon="0.01309">
        <ele>50.61</ele>
        <time>2010-04-04T09:52:15Z</time>
      </trkpt>
      <trkpt lat="47.37859" lon="0.01302">
        <ele>52.05</ele>
        <time>2010-04-04T09:52:16Z</time>
      </trkpt>
      <trkpt lat="47.37857" lon="0.01296">
        <ele>51.57</ele>
        <time>2010-04-04T09:52:17Z</time>
      </trkpt>
      <trkpt lat="47.37854" lon="0.01291">
        <ele>50.61</ele>
        <time>2010-04-04T09:52:18Z</time>
      </trkpt>
      <trkpt lat="47.3785" lon="0.01286">
        <ele>52.53</ele>
        <time>2010-04-04T09:52:19Z</time>
      </trkpt>
      <trkpt lat="47.37846" lon="0.01281">
        <ele>51.09</ele>
        <time>2010-04-04T09:52:20Z</time>
      </trkpt>
      <trkpt lat="47.37809" lon="0.01246">
        <ele>51.57</ele>
        <time>2010-04-04T09:52:28Z</time>
      </trkpt>
      <trkpt lat="47.37764" lon="0.01209">
        <ele>52.05</ele>
        <time>2010-04-04T09:52:37Z</time>
      </trkpt>
      <trkpt lat="47.37721" lon="0.01171">
        <ele>52.53</ele>
        <time>2010-04-04T09:52:47Z</time>
      </trkpt>
      <trkpt lat="47.37683" lon="0.01135">
        <ele>54.45</ele>
        <time>2010-04-04T09:52:56Z</time>
      </trkpt>
      <trkpt lat="47.37674" lon="0.01128">
        <ele>53.49</ele>
        <time>2010-04-04T09:52:58Z</time>
      </trkpt>
      <trkpt lat="47.3767" lon="0.01124">
        <ele>54.45</ele>
        <time>2010-04-04T09:52:59Z</time>
      </trkpt>
      <trkpt lat="47.37662" lon="0.01117">
        <ele>53.49</ele>
        <time>2010-04-04T09:53:01Z</time>
      </trkpt>
      <trkpt lat="47.37657" lon="0.01115">
        <ele>53.49</ele>
        <time>2010-04-04T09:53:02Z</time>
      </trkpt>
      <trkpt lat="47.37652" lon="0.01112">
        <ele>53.01</ele>
        <time>2010-04-04T09:53:03Z</time>
      </trkpt>
      <trkpt lat="47.37607" lon="0.01081">
        <ele>53.01</ele>
        <time>2010-04-04T09:53:12Z</time>
      </trkpt>
      <trkpt lat="47.37573" lon="0.01057">
        <ele>53.01</ele>
        <time>2010-04-04T09:53:19Z</time>
      </trkpt>
      <trkpt lat="47.37532" lon="0.01024">
        <ele>52.53</ele>
        <time>2010-04-04T09:53:28Z</time>
      </trkpt>
      <trkpt lat="47.37491" lon="0.00985">
        <ele>52.05</ele>
        <time>2010-04-04T09:53:37Z</time>
      </trkpt>
      <trkpt lat="47.37453" lon="0.00946">
        <ele>51.09</ele>
        <time>2010-04-04T09:53:45Z</time>
      </trkpt>
      <trkpt lat="47.37411" lon="0.00903">
        <ele>51.09</ele>
        <time>2010-04-04T09:53:54Z</time>
      </trkpt>
      <trkpt lat="47.37367" lon="0.00863">
        <ele>52.05</ele>
        <time>2010-04-04T09:54:03Z</time>
      </trkpt>
      <trkpt lat="47.37318" lon="0.00823">
        <ele>51.09</ele>
        <time>2010-04-04T09:54:13Z</time>
      </trkpt>
      <trkpt lat="47.37309" lon="0.00815">
        <ele>52.53</ele>
        <time>2010-04-04T09:54:15Z</time>
      </trkpt>
      <trkpt lat="47.3729" lon="0.008">
        <ele>52.53</ele>
        <time>2010-04-04T09:54:19Z</time>
      </trkpt>
      <trkpt lat="47.37286" lon="0.00796">
        <ele>53.01</ele>
        <time>2010-04-04T09:54:20Z</time>
      </trkpt>
      <trkpt lat="47.37255" lon="0.00768">
        <ele>54.45</ele>
        <time>2010-04-04T09:54:27Z</time>
      </trkpt>
      <trkpt lat="47.37223" lon="0.00728">
        <ele>52.53</ele>
        <time>2010-04-04T09:54:36Z</time>
      </trkpt>
      <trkpt lat="47.37209" lon="0.0071">
        <ele>53.97</ele>
        <time>2010-04-04T09:54:40Z</time>
      </trkpt>
      <trkpt lat="47.37201" lon="0.00702">
        <ele>53.01</ele>
        <time>2010-04-04T09:54:42Z</time>
      </trkpt>
      <trkpt lat="47.37187" lon="0.00683">
        <ele>53.01</ele>
        <time>2010-04-04T09:54:46Z</time>
      </trkpt>
      <trkpt lat="47.37175" lon="0.0067">
        <ele>52.53</ele>
        <time>2010-04-04T09:54:49Z</time>
      </trkpt>
      <trkpt lat="47.37171" lon="0.00666">
        <ele>52.53</ele>
        <time>2010-04-04T09:54:50Z</time>
      </trkpt>
      <trkpt lat="47.37136" lon="0.00629">
        <ele>52.05</ele>
        <time>2010-04-04T09:54:58Z</time>
      </trkpt>
      <trkpt lat="47.37101" lon="0.00586">
        <ele>51.57</ele>
        <time>2010-04-04T09:55:06Z</time>
      </trkpt>
      <trkpt lat="47.37073" lon="0.00542">
        <ele>52.53</ele>
        <time>2010-04-04T09:55:13Z</time>
      </trkpt>
      <trkpt lat="47.37045" lon="0.0049">
        <ele>52.05</ele>
        <time>2010-04-04T09:55:21Z</time>
      </trkpt>
      <trkpt lat="47.37038" lon="0.00477">
        <ele>53.01</ele>
        <time>2010-04-04T09:55:23Z</time>
      </trkpt>
      <trkpt lat="47.37035" lon="0.0047">
        <ele>53.01</ele>
        <time>2010-04-04T09:55:24Z</time>
      </trkpt>
      <trkpt lat="47.37016" lon="0.00431">
        <ele>52.53</ele>
        <time>2010-04-04T09:55:30Z</time>
      </trkpt>
      <trkpt lat="47.36997" lon="0.00368">
        <ele>53.97</ele>
        <time>2010-04-04T09:55:39Z</time>
      </trkpt>
      <trkpt lat="47.36991" lon="0.00315">
        <ele>53.97</ele>
        <time>2010-04-04T09:55:46Z</time>
      </trkpt>
      <trkpt lat="47.3699" lon="0.00255">
        <ele>53.97</ele>
        <time>2010-04-04T09:55:54Z</time>
      </trkpt>
      <trkpt lat="47.36977" lon="0.00188">
        <ele>54.93</ele>
        <time>2010-04-04T09:56:03Z</time>
      </trkpt>
      <trkpt lat="47.36969" lon="0.00127">
        <ele>53.97</ele>
        <time>2010-04-04T09:56:11Z</time>
      </trkpt>
      <trkpt lat="47.36963" lon="0.00072">
        <ele>57.34</ele>
        <time>2010-04-04T09:56:18Z</time>
      </trkpt>
      <trkpt lat="47.36961" lon="0.00057">
        <ele>53.97</ele>
        <time>2010-04-04T09:56:20Z</time>
      </trkpt>
      <trkpt lat="47.36961" lon="0.00049">
        <ele>54.45</ele>
        <time>2010-04-04T09:56:21Z</time>
      </trkpt>
      <trkpt lat="47.36959" lon="0.00035">
        <ele>55.41</ele>
        <time>2010-04-04T09:56:23Z</time>
      </trkpt>
      <trkpt lat="47.36957" lon="0.00028">
        <ele>55.89</ele>
        <time>2010-04-04T09:56:24Z</time>
      </trkpt>
      <trkpt lat="47.36944" lon="-0.00012">
        <ele>55.41</ele>
        <time>2010-04-04T09:56:30Z</time>
      </trkpt>
      <trkpt lat="47.36941" lon="-0.00018">
        <ele>55.89</ele>
        <time>2010-04-04T09:56:31Z</time>
      </trkpt>
      <trkpt lat="47.3692" lon="-0.00061">
        <ele>56.86</ele>
        <time>2010-04-04T09:56:39Z</time>
      </trkpt>
      <trkpt lat="47.36896" lon="-0.00119">
        <ele>58.3</ele>
        <time>2010-04-04T09:56:50Z</time>
      </trkpt>
      <trkpt lat="47.36888" lon="-0.00152">
        <ele>57.34</ele>
        <time>2010-04-04T09:56:56Z</time>
      </trkpt>
      <trkpt lat="47.36886" lon="-0.00164">
        <ele>58.3</ele>
        <time>2010-04-04T09:56:58Z</time>
      </trkpt>
      <trkpt lat="47.3688" lon="-0.00219">
        <ele>59.26</ele>
        <time>2010-04-04T09:57:07Z</time>
      </trkpt>
      <trkpt lat="47.36872" lon="-0.00286">
        <ele>60.7</ele>
        <time>2010-04-04T09:57:17Z</time>
      </trkpt>
      <trkpt lat="47.36862" lon="-0.00347">
        <ele>59.26</ele>
        <time>2010-04-04T09:57:26Z</time>
      </trkpt>
      <trkpt lat="47.36857" lon="-0.00383">
        <ele>60.22</ele>
        <time>2010-04-04T09:57:31Z</time>
      </trkpt>
      <trkpt lat="47.36856" lon="-0.0045">
        <ele>59.26</ele>
        <time>2010-04-04T09:57:40Z</time>
      </trkpt>
      <trkpt lat="47.36857" lon="-0.00465">
        <ele>59.74</ele>
        <time>2010-04-04T09:57:42Z</time>
      </trkpt>
      <trkpt lat="47.36857" lon="-0.00472">
        <ele>59.74</ele>
        <time>2010-04-04T09:57:43Z</time>
      </trkpt>
      <trkpt lat="47.36852" lon="-0.0053">
        <ele>60.22</ele>
        <time>2010-04-04T09:57:51Z</time>
      </trkpt>
      <trkpt lat="47.36837" lon="-0.006">
        <ele>60.7</ele>
        <time>2010-04-04T09:58:01Z</time>
      </trkpt>
      <trkpt lat="47.36813" lon="-0.0067">
        <ele>59.26</ele>
        <time>2010-04-04T09:58:11Z</time>
      </trkpt>
      <trkpt lat="47.36784" lon="-0.00744">
        <ele>58.78</ele>
        <time>2010-04-04T09:58:21Z</time>
      </trkpt>
      <trkpt lat="47.3675" lon="-0.00819">
        <ele>58.78</ele>
        <time>2010-04-04T09:58:32Z</time>
      </trkpt>
      <trkpt lat="47.36744" lon="-0.00832">
        <ele>58.78</ele>
        <time>2010-04-04T09:58:34Z</time>
      </trkpt>
      <trkpt lat="47.36742" lon="-0.00839">
        <ele>58.78</ele>
        <time>2010-04-04T09:58:35Z</time>
      </trkpt>
      <trkpt lat="47.36741" lon="-0.00847">
        <ele>58.78</ele>
        <time>2010-04-04T09:58:36Z</time>
      </trkpt>
      <trkpt lat="47.36739" lon="-0.00854">
        <ele>57.82</ele>
        <time>2010-04-04T09:58:37Z</time>
      </trkpt>
      <trkpt lat="47.36737" lon="-0.00861">
        <ele>58.78</ele>
        <time>2010-04-04T09:58:38Z</time>
      </trkpt>
      <trkpt lat="47.3673" lon="-0.00929">
        <ele>58.78</ele>
        <time>2010-04-04T09:58:46Z</time>
      </trkpt>
      <trkpt lat="47.36728" lon="-0.00947">
        <ele>57.34</ele>
        <time>2010-04-04T09:58:48Z</time>
      </trkpt>
      <trkpt lat="47.3672" lon="-0.01008">
        <ele>56.37</ele>
        <time>2010-04-04T09:58:54Z</time>
      </trkpt>
      <trkpt lat="47.36714" lon="-0.01038">
        <ele>54.93</ele>
        <time>2010-04-04T09:58:57Z</time>
      </trkpt>
      <trkpt lat="47.36708" lon="-0.01055">
        <ele>55.41</ele>
        <time>2010-04-04T09:58:59Z</time>
      </trkpt>
      <trkpt lat="47.36704" lon="-0.01062">
        <ele>54.45</ele>
        <time>2010-04-04T09:59:00Z</time>
      </trkpt>
      <trkpt lat="47.36701" lon="-0.01067">
        <ele>54.93</ele>
        <time>2010-04-04T09:59:01Z</time>
      </trkpt>
      <trkpt lat="47.36698" lon="-0.0107">
        <ele>53.97</ele>
        <time>2010-04-04T09:59:02Z</time>
      </trkpt>
      <trkpt lat="47.36696" lon="-0.01072">
        <ele>53.49</ele>
        <time>2010-04-04T09:59:03Z</time>
      </trkpt>
      <trkpt lat="47.36694" lon="-0.01073">
        <ele>53.97</ele>
        <time>2010-04-04T09:59:08Z</time>
      </trkpt>
      <trkpt lat="47.36695" lon="-0.01073">
        <ele>54.45</ele>
        <time>2010-04-04T09:59:47Z</time>
      </trkpt>
      <trkpt lat="47.36695" lon="-0.01073">
        <ele>54.45</ele>
        <time>2010-04-04T10:00:24Z</time>
      </trkpt>
      <trkpt lat="47.36695" lon="-0.01073">
        <ele>53.97</ele>
        <time>2010-04-04T10:00:37Z</time>
      </trkpt>
      <trkpt lat="47.36694" lon="-0.01073">
        <ele>54.93</ele>
        <time>2010-04-04T10:01:28Z</time>
      </trkpt>
      <trkpt lat="47.36694" lon="-0.01072">
        <ele>55.41</ele>
        <time>2010-04-04T10:01:51Z</time>
      </trkpt>
      <trkpt lat="47.36694" lon="-0.01072">
        <ele>54.45</ele>
        <time>2010-04-04T10:01:53Z</time>
      </trkpt>
      <trkpt lat="47.36694" lon="-0.01072">
        <ele>53.97</ele>
        <time>2010-04-04T10:02:18Z</time>
      </trkpt>
      <trkpt lat="47.36694" lon="-0.01074">
        <ele>54.45</ele>
        <time>2010-04-04T10:02:19Z</time>
      </trkpt>
      <trkpt lat="47.36693" lon="-0.01075">
        <ele>55.41</ele>
        <time>2010-04-04T10:02:20Z</time>
      </trkpt>
      <trkpt lat="47.36693" lon="-0.01078">
        <ele>53.01</ele>
        <time>2010-04-04T10:02:21Z</time>
      </trkpt>
      <trkpt lat="47.36693" lon="-0.0108">
        <ele>53.49</ele>
        <time>2010-04-04T10:02:22Z</time>
      </trkpt>
      <trkpt lat="47.36692" lon="-0.01083">
        <ele>53.97</ele>
        <time>2010-04-04T10:02:23Z</time>
      </trkpt>
      <trkpt lat="47.36691" lon="-0.01086">
        <ele>53.01</ele>
        <time>2010-04-04T10:02:24Z</time>
      </trkpt>
      <trkpt lat="47.3669" lon="-0.01089">
        <ele>54.45</ele>
        <time>2010-04-04T10:02:25Z</time>
      </trkpt>
      <trkpt lat="47.36688" lon="-0.01093">
        <ele>53.49</ele>
        <time>2010-04-04T10:02:26Z</time>
      </trkpt>
      <trkpt lat="47.36686" lon="-0.01096">
        <ele>54.93</ele>
        <time>2010-04-04T10:02:27Z</time>
      </trkpt>
      <trkpt lat="47.36684" lon="-0.011">
        <ele>54.45</ele>
        <time>2010-04-04T10:02:28Z</time>
      </trkpt>
      <trkpt lat="47.36677" lon="-0.01114">
        <ele>53.01</ele>
        <time>2010-04-04T10:02:31Z</time>
      </trkpt>
      <trkpt lat="47.36656" lon="-0.01156">
        <ele>54.45</ele>
        <time>2010-04-04T10:02:39Z</time>
      </trkpt>
      <trkpt lat="47.36628" lon="-0.01213">
        <ele>55.41</ele>
        <time>2010-04-04T10:02:49Z</time>
      </trkpt>
      <trkpt lat="47.366" lon="-0.0127">
        <ele>54.93</ele>
        <time>2010-04-04T10:02:59Z</time>
      </trkpt>
      <trkpt lat="47.36594" lon="-0.01281">
        <ele>54.93</ele>
        <time>2010-04-04T10:03:01Z</time>
      </trkpt>
      <trkpt lat="47.36582" lon="-0.01311">
        <ele>53.97</ele>
        <time>2010-04-04T10:03:06Z</time>
      </trkpt>
      <trkpt lat="47.3656" lon="-0.01382">
        <ele>54.93</ele>
        <time>2010-04-04T10:03:16Z</time>
      </trkpt>
      <trkpt lat="47.36551" lon="-0.01435">
        <ele>51.57</ele>
        <time>2010-04-04T10:03:23Z</time>
      </trkpt>
      <trkpt lat="47.36537" lon="-0.0151">
        <ele>52.53</ele>
        <time>2010-04-04T10:03:33Z</time>
      </trkpt>
      <trkpt lat="47.36519" lon="-0.01603">
        <ele>50.61</ele>
        <time>2010-04-04T10:03:45Z</time>
      </trkpt>
      <trkpt lat="47.36509" lon="-0.01686">
        <ele>50.61</ele>
        <time>2010-04-04T10:03:55Z</time>
      </trkpt>
      <trkpt lat="47.36499" lon="-0.01786">
        <ele>50.61</ele>
        <time>2010-04-04T10:04:07Z</time>
      </trkpt>
      <trkpt lat="47.36491" lon="-0.01864">
        <ele>51.09</ele>
        <time>2010-04-04T10:04:17Z</time>
      </trkpt>
      <trkpt lat="47.36485" lon="-0.01925">
        <ele>52.53</ele>
        <time>2010-04-04T10:04:25Z</time>
      </trkpt>
      <trkpt lat="47.36474" lon="-0.02004">
        <ele>52.53</ele>
        <time>2010-04-04T10:04:36Z</time>
      </trkpt>
      <trkpt lat="47.36464" lon="-0.02055">
        <ele>53.01</ele>
        <time>2010-04-04T10:04:43Z</time>
      </trkpt>
      <trkpt lat="47.36454" lon="-0.02116">
        <ele>55.41</ele>
        <time>2010-04-04T10:04:51Z</time>
      </trkpt>
      <trkpt lat="47.3645" lon="-0.02146">
        <ele>55.41</ele>
        <time>2010-04-04T10:04:55Z</time>
      </trkpt>
      <trkpt lat="47.3644" lon="-0.02215">
        <ele>54.93</ele>
        <time>2010-04-04T10:05:04Z</time>
      </trkpt>
      <trkpt lat="47.36427" lon="-0.02276">
        <ele>57.34</ele>
        <time>2010-04-04T10:05:12Z</time>
      </trkpt>
      <trkpt lat="47.3641" lon="-0.02339">
        <ele>54.93</ele>
        <time>2010-04-04T10:05:21Z</time>
      </trkpt>
      <trkpt lat="47.36399" lon="-0.02382">
        <ele>56.37</ele>
        <time>2010-04-04T10:05:29Z</time>
      </trkpt>
      <trkpt lat="47.36393" lon="-0.02404">
        <ele>56.37</ele>
        <time>2010-04-04T10:05:33Z</time>
      </trkpt>
      <trkpt lat="47.36379" lon="-0.02448">
        <ele>56.37</ele>
        <time>2010-04-04T10:05:40Z</time>
      </trkpt>
      <trkpt lat="47.36356" lon="-0.02518">
        <ele>57.34</ele>
        <time>2010-04-04T10:05:50Z</time>
      </trkpt>
      <trkpt lat="47.36335" lon="-0.02581">
        <ele>56.86</ele>
        <time>2010-04-04T10:05:59Z</time>
      </trkpt>
      <trkpt lat="47.36321" lon="-0.02631">
        <ele>57.34</ele>
        <time>2010-04-04T10:06:06Z</time>
      </trkpt>
      <trkpt lat="47.36319" lon="-0.02638">
        <ele>55.89</ele>
        <time>2010-04-04T10:06:07Z</time>
      </trkpt>
      <trkpt lat="47.36313" lon="-0.02682">
        <ele>57.82</ele>
        <time>2010-04-04T10:06:13Z</time>
      </trkpt>
      <trkpt lat="47.36313" lon="-0.0269">
        <ele>57.82</ele>
        <time>2010-04-04T10:06:14Z</time>
      </trkpt>
      <trkpt lat="47.36313" lon="-0.02749">
        <ele>59.26</ele>
        <time>2010-04-04T10:06:22Z</time>
      </trkpt>
      <trkpt lat="47.36314" lon="-0.02764">
        <ele>57.34</ele>
        <time>2010-04-04T10:06:24Z</time>
      </trkpt>
      <trkpt lat="47.36314" lon="-0.0285">
        <ele>56.37</ele>
        <time>2010-04-04T10:06:35Z</time>
      </trkpt>
      <trkpt lat="47.36316" lon="-0.02882">
        <ele>56.86</ele>
        <time>2010-04-04T10:06:39Z</time>
      </trkpt>
      <trkpt lat="47.3632" lon="-0.02959">
        <ele>55.89</ele>
        <time>2010-04-04T10:06:49Z</time>
      </trkpt>
      <trkpt lat="47.3632" lon="-0.03025">
        <ele>54.93</ele>
        <time>2010-04-04T10:06:58Z</time>
      </trkpt>
      <trkpt lat="47.36317" lon="-0.03078">
        <ele>54.45</ele>
        <time>2010-04-04T10:07:07Z</time>
      </trkpt>
      <trkpt lat="47.36314" lon="-0.031">
        <ele>54.93</ele>
        <time>2010-04-04T10:07:13Z</time>
      </trkpt>
      <trkpt lat="47.36313" lon="-0.03102">
        <ele>54.93</ele>
        <time>2010-04-04T10:07:17Z</time>
      </trkpt>
      <trkpt lat="47.36316" lon="-0.03118">
        <ele>53.97</ele>
        <time>2010-04-04T10:07:25Z</time>
      </trkpt>
      <trkpt lat="47.36318" lon="-0.03125">
        <ele>53.97</ele>
        <time>2010-04-04T10:07:32Z</time>
      </trkpt>
      <trkpt lat="47.36318" lon="-0.03125">
        <ele>53.97</ele>
        <time>2010-04-04T10:08:01Z</time>
      </trkpt>
      <trkpt lat="47.36317" lon="-0.03135">
        <ele>54.45</ele>
        <time>2010-04-04T10:08:51Z</time>
      </trkpt>
      <trkpt lat="47.36315" lon="-0.03155">
        <ele>53.97</ele>
        <time>2010-04-04T10:08:56Z</time>
      </trkpt>
      <trkpt lat="47.36313" lon="-0.032">
        <ele>55.89</ele>
        <time>2010-04-04T10:09:03Z</time>
      </trkpt>
      <trkpt lat="47.36313" lon="-0.03207">
        <ele>54.93</ele>
        <time>2010-04-04T10:09:04Z</time>
      </trkpt>
      <trkpt lat="47.36313" lon="-0.03213">
        <ele>54.45</ele>
        <time>2010-04-04T10:09:05Z</time>
      </trkpt>
      <trkpt lat="47.36311" lon="-0.03226">
        <ele>55.41</ele>
        <time>2010-04-04T10:09:07Z</time>
      </trkpt>
      <trkpt lat="47.3631" lon="-0.03288">
        <ele>55.89</ele>
        <time>2010-04-04T10:09:16Z</time>
      </trkpt>
      <trkpt lat="47.36304" lon="-0.03304">
        <ele>54.93</ele>
        <time>2010-04-04T10:09:20Z</time>
      </trkpt>
      <trkpt lat="47.36301" lon="-0.03305">
        <ele>54.45</ele>
        <time>2010-04-04T10:09:21Z</time>
      </trkpt>
      <trkpt lat="47.36298" lon="-0.03305">
        <ele>54.93</ele>
        <time>2010-04-04T10:09:22Z</time>
      </trkpt>
      <trkpt lat="47.36269" lon="-0.03303">
        <ele>55.89</ele>
        <time>2010-04-04T10:09:30Z</time>
      </trkpt>
      <trkpt lat="47.36233" lon="-0.03301">
        <ele>57.82</ele>
        <time>2010-04-04T10:09:39Z</time>
      </trkpt>
      <trkpt lat="47.36202" lon="-0.03299">
        <ele>59.26</ele>
        <time>2010-04-04T10:09:47Z</time>
      </trkpt>
      <trkpt lat="47.36178" lon="-0.03298">
        <ele>62.14</ele>
        <time>2010-04-04T10:09:55Z</time>
      </trkpt>
      <trkpt lat="47.36167" lon="-0.033">
        <ele>63.58</ele>
        <time>2010-04-04T10:10:00Z</time>
      </trkpt>
      <trkpt lat="47.36166" lon="-0.03303">
        <ele>62.14</ele>
        <time>2010-04-04T10:10:01Z</time>
      </trkpt>
      <trkpt lat="47.36166" lon="-0.03308">
        <ele>63.1</ele>
        <time>2010-04-04T10:10:02Z</time>
      </trkpt>
      <trkpt lat="47.36165" lon="-0.03312">
        <ele>62.62</ele>
        <time>2010-04-04T10:10:03Z</time>
      </trkpt>
      <trkpt lat="47.36166" lon="-0.03316">
        <ele>62.14</ele>
        <time>2010-04-04T10:10:04Z</time>
      </trkpt>
      <trkpt lat="47.36166" lon="-0.03321">
        <ele>62.62</ele>
        <time>2010-04-04T10:10:05Z</time>
      </trkpt>
      <trkpt lat="47.36166" lon="-0.03351">
        <ele>63.1</ele>
        <time>2010-04-04T10:10:11Z</time>
      </trkpt>
      <trkpt lat="47.36159" lon="-0.03393">
        <ele>63.1</ele>
        <time>2010-04-04T10:10:19Z</time>
      </trkpt>
      <trkpt lat="47.36153" lon="-0.03408">
        <ele>64.55</ele>
        <time>2010-04-04T10:10:22Z</time>
      </trkpt>
      <trkpt lat="47.36138" lon="-0.03456">
        <ele>66.47</ele>
        <time>2010-04-04T10:10:32Z</time>
      </trkpt>
      <trkpt lat="47.36127" lon="-0.03487">
        <ele>65.51</ele>
        <time>2010-04-04T10:10:40Z</time>
      </trkpt>
      <trkpt lat="47.36122" lon="-0.03488">
        <ele>65.51</ele>
        <time>2010-04-04T10:10:42Z</time>
      </trkpt>
      <trkpt lat="47.36119" lon="-0.03487">
        <ele>65.99</ele>
        <time>2010-04-04T10:10:43Z</time>
      </trkpt>
      <trkpt lat="47.36104" lon="-0.03484">
        <ele>66.95</ele>
        <time>2010-04-04T10:10:49Z</time>
      </trkpt>
      <trkpt lat="47.36101" lon="-0.03485">
        <ele>66.95</ele>
        <time>2010-04-04T10:10:51Z</time>
      </trkpt>
      <trkpt lat="47.36099" lon="-0.03486">
        <ele>66.47</ele>
        <time>2010-04-04T10:10:52Z</time>
      </trkpt>
      <trkpt lat="47.36099" lon="-0.03489">
        <ele>67.43</ele>
        <time>2010-04-04T10:10:53Z</time>
      </trkpt>
      <trkpt lat="47.36099" lon="-0.03491">
        <ele>65.99</ele>
        <time>2010-04-04T10:10:54Z</time>
      </trkpt>
      <trkpt lat="47.36099" lon="-0.03493">
        <ele>66.95</ele>
        <time>2010-04-04T10:10:55Z</time>
      </trkpt>
      <trkpt lat="47.36099" lon="-0.03494">
        <ele>66.95</ele>
        <time>2010-04-04T10:10:59Z</time>
      </trkpt>
      <trkpt lat="47.36099" lon="-0.03495">
        <ele>64.55</ele>
        <time>2010-04-04T10:11:05Z</time>
      </trkpt>
      <trkpt lat="47.36099" lon="-0.03495">
        <ele>65.51</ele>
        <time>2010-04-04T10:11:15Z</time>
      </trkpt>
    </trkseg>
  </trk>
</gpx>